GFSSW_850_thetae_009.txt.gz
Theta_e
312 312 312 312 312 312 312 311 310 309 307 308 308 308 309 311 310 312 313 311 312 316 315 313 315 317 316 318 317 316 311 312 315 319 323 324 316 325 330 330 328 327 331 337 339
312 312 312 313 312 312 312 311 310 308 308 308 309 308 311 311 312 311 311 310 314 317 316 313 315 317 318 318 318 315 310 312 314 317 318 316 321 327 329 328 329 328 331 336 331
312 313 313 313 313 312 312 311 310 308 308 308 308 311 311 312 314 313 316 319 317 318 317 316 316 316 318 318 317 314 313 312 313 320 319 317 315 317 326 326 329 327 330 331 329
313 313 313 313 313 312 312 311 309 308 308 309 310 311 313 313 317 318 319 318 318 319 316 315 315 318 318 317 318 315 313 313 313 317 314 312 315 319 319 327 328 327 328 328 327
313 313 313 313 313 312 311 310 309 308 309 309 311 313 313 315 316 317 317 317 316 316 315 315 315 317 316 315 316 313 312 314 314 314 315 314 313 315 316 321 328 328 326 326 325
312 312 312 313 312 311 310 309 309 309 309 311 313 313 314 315 318 317 317 317 317 317 317 316 315 316 319 316 312 313 312 313 315 316 314 313 314 315 315 327 328 328 326 326 325
312 311 312 312 312 310 309 309 309 309 311 312 313 314 314 317 318 317 316 317 317 317 319 319 318 319 317 313 315 313 312 312 313 315 315 316 316 313 316 328 328 328 327 327 325
313 311 312 312 311 309 309 309 309 311 312 314 315 314 314 317 317 317 316 316 317 318 318 318 318 318 316 315 314 313 311 312 313 315 315 314 312 314 316 327 328 328 327 327 325
314 311 311 311 310 309 309 310 311 312 314 315 315 314 313 317 318 316 316 317 318 319 319 319 320 317 316 311 311 310 313 314 316 314 315 314 315 314 313 325 324 326 327 327 327
314 311 311 311 310 310 311 312 313 314 315 315 318 315 314 317 315 317 316 318 319 319 319 319 319 313 311 309 310 314 315 313 314 314 315 315 314 313 315 316 319 321 321 323 324
313 311 311 311 311 311 312 314 316 317 317 313 315 316 319 319 316 316 316 319 320 319 316 317 315 315 315 315 315 316 315 314 313 315 314 314 315 317 319 321 321 320 321 323 324
313 311 311 311 312 313 314 321 325 323 322 314 315 317 318 317 316 316 316 318 318 316 316 314 317 316 316 317 318 317 317 317 316 314 315 317 316 316 318 320 321 319 321 323 325
313 312 311 312 312 314 317 320 323 321 321 317 318 318 318 318 316 317 318 319 317 317 316 316 317 317 317 317 319 319 318 318 317 315 315 317 317 315 316 318 320 319 319 321 322
313 312 312 312 314 314 316 324 323 321 311 314 316 317 318 318 317 318 318 319 318 316 315 317 318 318 318 318 318 321 319 318 316 316 318 315 318 317 316 317 318 319 319 319 319
314 313 313 315 320 317 324 323 320 322 311 314 317 318 318 319 317 317 319 321 317 317 317 319 319 318 318 318 318 320 319 318 318 315 315 316 316 317 316 318 318 318 319 318 318
316 313 313 319 323 322 322 316 318 316 315 317 317 317 316 318 318 318 320 321 319 316 316 318 318 318 318 318 318 318 319 318 317 316 317 319 317 317 316 317 316 317 318 318 318
317 314 314 322 326 320 317 316 313 317 318 317 317 317 317 318 318 317 316 316 318 318 318 317 317 316 318 320 318 317 318 318 319 316 318 318 320 318 316 315 316 316 317 318 317
317 317 320 322 324 319 318 313 321 319 318 316 317 317 319 319 317 317 317 316 315 318 317 319 319 317 315 318 319 318 318 318 322 317 318 317 320 317 316 317 318 318 318 317 317
317 322 322 318 320 318 316 314 319 319 317 317 318 319 319 319 317 317 316 315 316 316 320 319 319 317 316 316 318 319 315 315 315 311 315 316 317 315 315 316 317 318 317 317 317
318 319 318 317 317 316 318 319 323 320 318 317 319 318 318 318 319 318 319 318 318 315 315 318 317 317 316 318 317 316 315 317 312 315 316 316 318 316 315 315 313 313 314 315 315
316 316 317 316 316 315 314 319 323 319 321 318 317 318 318 317 318 319 319 318 318 318 316 318 314 316 317 317 317 317 317 314 313 311 313 313 317 312 314 313 312 312 313 313 313
316 310 319 316 313 313 316 320 322 318 320 321 320 319 318 320 321 320 320 319 317 319 316 316 312 312 317 315 316 316 317 313 309 317 308 307 313 312 312 313 313 312 312 312 311
317 325 325 319 308 304 315 322 319 318 319 320 320 320 319 320 320 320 319 317 314 315 317 315 312 313 318 317 314 318 317 314 310 307 314 307 309 313 313 313 312 311 311 311 310
319 315 322 320 313 311 317 319 320 320 320 320 319 319 319 320 318 320 320 318 314 315 316 316 314 312 315 316 313 314 315 315 312 309 311 309 312 314 312 311 311 311 311 310 310
321 313 318 310 314 320 319 319 320 320 320 319 319 320 319 321 320 320 319 317 315 316 316 312 313 314 313 313 314 314 314 314 315 313 313 313 312 313 311 310 311 311 310 310 309
323 316 313 310 315 318 317 321 319 320 319 320 318 320 318 316 317 319 316 315 316 317 316 309 311 309 315 313 313 313 311 310 311 312 313 314 315 312 312 312 311 311 310 309 308
322 323 314 312 312 315 314 319 319 318 319 319 318 316 315 317 317 317 316 316 316 316 311 307 305 304 306 308 309 306 310 313 313 314 312 313 312 310 310 311 311 310 310 309 306

GFSSW_850_thetae_012.txt.gz
Theta_e
310 311 312 312 312 312 312 312 312 311 310 308 307 308 308 308 311 310 311 312 311 315 313 312 312 313 315 317 317 315 310 311 319 323 324 324 318 325 328 330 328 329 334 334 334
311 312 312 312 312 312 312 312 311 310 309 307 307 308 309 311 311 312 312 311 311 315 315 313 315 316 317 317 317 313 310 312 313 319 323 325 321 324 329 328 327 329 335 335 335
312 312 313 313 313 313 312 312 311 310 309 307 308 308 310 312 312 312 312 314 314 314 316 315 314 315 317 317 316 313 313 311 314 324 325 317 320 320 327 327 327 333 337 338 334
312 313 313 313 312 313 312 312 311 310 308 308 308 310 312 312 316 317 317 319 317 318 317 317 315 316 317 316 317 314 313 313 314 322 318 316 317 324 327 325 327 326 330 336 328
313 313 312 312 312 312 312 311 310 309 308 308 310 311 312 313 314 318 316 317 317 317 317 315 315 316 316 316 315 314 313 312 313 316 315 316 314 321 318 325 327 330 330 330 328
313 312 311 311 312 312 311 311 309 308 308 309 311 311 313 315 317 318 317 316 317 316 316 316 315 314 318 314 314 314 311 312 313 312 313 311 313 315 315 325 327 328 328 328 327
312 312 311 311 312 312 311 309 308 308 309 310 311 313 313 315 317 317 317 316 317 317 317 317 316 316 318 315 314 311 311 311 312 314 312 315 314 313 318 328 327 327 329 328 329
314 314 311 311 311 310 309 309 308 309 311 311 313 314 312 315 316 317 316 316 316 316 317 317 317 317 317 314 313 311 309 311 312 314 313 312 310 310 324 327 325 324 324 324 325
315 314 312 311 311 310 309 309 310 311 312 313 315 314 313 315 317 317 316 316 317 318 318 317 317 316 313 311 310 309 311 314 315 314 314 312 314 313 318 327 324 325 325 325 324
315 313 311 311 310 309 310 310 311 312 313 315 317 315 313 316 317 316 316 316 319 319 318 318 317 312 311 309 312 311 313 312 314 314 311 311 316 315 316 323 321 323 324 325 326
315 313 311 311 310 310 311 312 315 316 316 312 314 314 316 317 316 316 316 318 319 319 317 316 313 313 315 313 312 313 314 313 313 313 315 316 316 315 319 318 318 319 321 323 324
314 312 310 310 310 311 312 318 325 321 321 314 313 314 317 317 316 316 316 318 317 316 315 313 315 315 316 316 316 315 314 315 314 314 316 317 315 313 315 318 318 320 322 324 324
314 311 310 311 311 312 316 319 322 322 320 317 317 317 318 316 316 316 318 318 316 316 314 314 316 316 317 316 318 318 316 317 315 317 315 317 317 315 316 318 319 320 323 324 325
314 311 311 311 312 313 314 321 324 322 311 314 315 316 317 317 316 318 318 318 316 314 315 317 317 317 316 317 317 320 318 316 315 316 319 315 321 317 317 318 317 318 320 321 321
313 312 312 313 315 316 324 320 321 322 311 313 316 317 318 318 316 317 320 319 316 316 316 318 318 317 317 318 318 319 316 316 315 314 314 316 317 315 317 319 317 317 318 319 319
314 312 313 319 321 322 320 317 319 315 314 315 316 316 316 317 317 318 320 319 317 315 315 316 317 316 317 317 317 317 318 315 315 314 315 316 316 316 316 317 317 317 318 317 316
315 313 314 321 324 319 317 317 313 316 317 316 316 316 316 316 316 316 315 315 316 317 318 316 316 315 317 319 316 316 316 317 318 315 317 316 318 315 315 314 317 317 318 317 316
317 315 315 324 323 318 317 311 318 318 317 315 316 315 317 318 317 315 315 315 314 315 316 318 317 316 315 317 318 317 317 316 320 317 318 316 320 317 313 316 319 318 317 317 317
316 317 323 321 319 318 316 309 315 316 316 316 317 318 318 318 316 316 315 314 315 315 319 318 318 316 315 315 317 317 314 314 314 311 314 315 316 315 314 314 316 317 317 316 316
317 321 319 316 317 316 313 315 321 319 317 316 317 317 318 318 318 317 318 317 317 315 315 317 317 315 315 317 315 316 313 315 311 315 315 315 317 316 316 315 314 314 315 315 314
320 319 318 316 316 316 310 315 321 322 319 317 317 317 317 317 317 318 317 318 317 318 316 315 313 314 316 316 317 316 315 312 312 309 311 311 314 311 314 315 312 312 315 314 314
319 310 319 316 312 310 313 319 321 317 319 320 317 317 316 319 319 319 318 318 316 318 316 314 312 312 316 315 315 315 316 311 308 313 307 305 310 309 310 312 313 312 313 313 312
316 323 322 316 307 304 312 319 320 317 319 319 320 318 318 319 319 319 318 316 313 315 315 313 312 314 316 314 313 317 316 311 308 307 313 309 310 311 311 311 312 311 311 310 309
317 317 324 320 310 310 315 317 319 319 319 319 318 318 318 319 317 319 319 316 314 315 315 313 311 312 313 314 312 314 316 312 311 308 310 309 310 314 311 310 310 310 310 310 310
317 315 319 311 312 312 313 318 319 319 319 318 318 318 318 320 319 319 318 316 314 315 315 310 313 313 313 312 313 313 313 313 313 311 312 311 309 310 311 309 310 311 310 309 309
320 315 314 312 317 317 315 318 318 319 318 319 318 318 317 315 316 317 315 313 312 315 313 307 309 308 315 311 310 313 311 310 311 311 311 312 311 309 311 311 310 310 310 309 309
322 319 318 308 311 314 313 319 318 317 318 317 317 315 316 317 316 315 314 313 314 314 309 305 304 304 304 306 305 306 308 309 309 309 309 312 310 309 309 310 310 310 310 311 310

GFSSW_850_thetae_015.txt.gz
Theta_e
309 310 310 311 312 312 312 312 312 312 311 310 308 307 307 308 308 310 310 310 311 313 314 312 314 312 315 315 316 314 315 322 325 326 327 325 323 323 329 330 329 328 336 336 336
309 310 311 312 312 312 312 312 312 312 311 310 307 307 308 309 310 311 312 312 312 314 313 312 312 313 316 316 316 315 316 316 319 325 326 325 323 325 329 329 326 333 336 335 335
309 311 312 312 313 312 312 312 312 311 310 309 307 308 309 310 312 314 312 311 311 314 315 313 314 316 317 316 316 313 318 314 314 324 326 324 320 324 329 330 327 335 336 335 339
310 312 313 312 312 312 312 312 312 311 310 308 307 308 310 311 317 317 315 314 316 314 316 315 315 315 316 317 316 315 313 312 314 321 324 321 318 326 329 327 328 330 330 332 335
311 312 313 311 311 311 312 312 311 310 308 307 308 309 311 312 313 316 317 318 316 316 315 315 315 315 318 317 315 315 314 312 312 316 320 318 319 326 324 323 327 330 332 330 331
312 313 312 312 311 311 312 311 310 309 308 308 309 311 312 314 316 317 316 316 317 317 317 316 315 315 316 315 316 315 312 311 311 313 313 315 313 319 317 327 328 328 330 332 332
313 313 313 312 311 311 311 310 309 308 308 309 310 311 313 313 316 316 316 316 316 316 316 316 315 315 316 315 313 311 313 312 312 312 312 314 314 312 319 326 329 334 335 334 330
313 313 314 313 311 311 310 309 308 308 309 310 311 313 313 315 315 317 317 316 315 315 316 316 316 315 316 314 312 313 313 314 313 314 312 312 314 316 322 324 325 330 332 331 328
313 314 314 312 311 310 309 308 309 310 310 312 314 313 314 315 317 317 316 316 316 316 315 316 316 316 312 314 314 314 315 314 315 313 314 315 315 317 317 323 322 322 324 326 326
314 314 314 312 311 310 309 309 310 311 312 314 315 315 313 316 317 316 316 316 318 316 316 316 314 315 313 314 316 315 315 314 316 314 317 319 320 319 318 322 321 322 323 323 323
314 314 313 311 310 309 310 311 314 314 314 313 312 313 314 317 317 315 316 317 318 317 317 315 317 317 316 313 312 313 314 315 313 315 320 320 320 319 318 319 320 321 323 323 325
314 314 312 310 310 310 311 315 321 320 320 315 314 313 315 316 316 316 315 318 318 317 315 317 317 315 316 316 316 316 316 316 316 317 320 320 321 320 318 318 318 320 321 323 324
314 314 311 310 310 311 313 320 320 322 320 318 317 317 317 316 316 315 316 318 316 316 315 318 316 315 317 317 319 318 318 316 319 319 318 321 321 322 320 319 318 319 320 322 324
314 314 311 310 311 313 316 315 324 324 314 315 315 315 316 316 316 317 317 318 316 315 317 319 316 316 317 318 317 320 317 317 319 320 322 316 321 321 321 321 320 319 319 321 326
314 313 311 311 315 314 319 323 322 323 317 313 315 316 317 316 316 317 319 319 316 316 317 318 317 317 319 317 317 319 316 318 315 317 318 319 323 319 321 323 322 320 318 318 321
314 313 311 312 317 317 324 319 322 319 318 314 316 315 316 316 316 318 319 318 317 317 317 316 316 316 317 316 316 317 318 318 317 318 321 318 320 321 323 324 322 319 318 316 317
315 313 312 314 320 323 320 320 317 320 316 315 315 315 316 316 316 315 316 317 319 321 320 318 317 315 316 319 317 318 320 323 324 326 322 317 320 321 319 319 321 319 318 316 316
314 314 313 318 325 320 320 314 316 317 317 314 315 315 317 317 316 315 316 317 315 316 318 319 318 316 315 318 319 318 320 325 323 324 323 317 323 322 316 316 319 319 318 317 316
313 315 314 318 325 319 314 314 315 315 316 315 316 318 318 317 317 316 315 316 315 315 321 320 320 315 314 315 318 318 318 316 318 313 319 319 318 317 315 315 317 317 317 316 316
314 316 316 322 321 319 314 313 317 317 317 315 316 317 318 318 318 317 317 316 316 316 314 318 319 315 315 316 315 317 314 319 317 319 318 316 318 321 319 317 317 317 317 316 316
313 317 322 319 319 315 315 313 320 322 319 316 317 317 317 318 317 318 317 317 317 317 316 314 317 317 316 317 319 318 317 314 315 315 316 317 317 316 318 318 317 318 316 316 316
318 313 320 317 312 309 314 316 321 319 318 318 316 316 317 318 319 319 319 317 315 317 318 314 316 319 317 315 315 316 316 315 318 314 312 314 317 311 314 315 315 315 315 315 315
318 322 323 315 311 309 311 318 320 317 317 318 319 317 318 319 320 319 318 314 313 314 317 314 317 320 319 316 315 317 316 312 311 312 316 324 316 312 312 312 313 314 313 313 313
318 319 323 315 311 311 314 316 319 318 318 317 317 317 319 319 317 319 318 315 314 315 314 313 313 316 320 315 314 316 316 312 314 317 314 317 316 313 315 314 312 311 311 311 311
317 316 320 314 310 310 311 315 318 319 318 317 318 317 318 320 319 318 317 315 315 315 313 313 316 313 313 312 313 313 314 313 314 314 318 315 313 313 314 315 312 310 310 310 309
316 315 314 312 312 312 311 318 318 317 318 318 319 317 317 318 317 319 316 314 314 315 313 308 313 310 315 312 311 313 312 312 313 313 312 312 314 312 311 311 310 310 309 308 309
319 317 315 307 312 313 313 315 317 317 317 316 317 316 317 317 315 313 312 312 313 315 310 309 309 309 311 307 308 312 311 312 311 311 314 315 315 312 312 311 311 310 309 309 310

GFSSW_850_thetae_018.txt.gz
Theta_e
309 310 310 310 311 312 312 312 312 312 312 311 310 308 307 307 308 308 309 310 311 312 313 311 314 313 315 315 316 316 318 322 327 329 330 327 326 325 327 330 331 331 336 338 339
309 309 309 310 312 312 312 312 312 312 312 311 310 307 307 308 309 311 313 311 311 312 313 314 314 314 315 316 317 319 320 321 326 328 330 326 325 324 330 331 331 336 338 339 339
309 309 310 311 312 312 311 311 312 312 311 310 308 307 308 309 312 316 316 312 312 314 313 313 313 316 316 317 318 319 320 320 325 328 325 325 324 324 328 333 332 336 339 340 340
309 309 311 312 312 311 311 312 312 312 311 309 307 307 308 311 320 317 313 311 312 315 314 315 316 316 316 318 318 320 319 317 323 327 324 323 324 325 329 329 330 335 338 338 337
308 310 312 312 312 311 311 312 312 311 310 308 307 308 310 315 315 316 313 313 315 315 315 315 316 316 317 318 319 319 319 317 316 321 325 323 323 327 328 327 333 336 337 337 335
309 311 313 312 313 311 311 312 311 310 308 307 308 310 311 317 315 316 315 314 314 314 316 316 317 317 319 319 319 319 317 316 314 321 321 323 321 326 323 330 335 335 336 336 335
310 312 313 313 313 311 311 311 310 309 308 308 309 311 312 316 316 317 315 315 316 316 318 317 316 316 318 320 316 316 316 316 315 319 320 321 321 319 322 329 333 333 333 334 334
311 313 313 314 313 311 311 310 309 308 308 309 311 312 317 314 315 316 316 317 316 315 317 317 317 317 318 316 315 316 317 318 317 318 315 318 320 320 322 328 331 332 333 333 331
312 313 314 314 312 311 310 309 308 308 310 311 313 314 318 314 315 317 316 316 316 315 316 316 316 318 317 319 316 316 317 317 318 318 317 318 317 320 324 328 330 331 331 331 328
312 313 314 314 311 310 309 308 309 310 311 313 314 318 315 317 317 315 315 315 317 316 316 317 318 320 318 318 317 317 318 317 317 320 317 319 322 321 325 327 327 328 329 328 328
313 314 314 313 311 310 309 310 312 315 313 317 315 316 315 316 317 315 315 316 317 318 321 318 319 319 319 318 317 318 318 318 318 321 323 322 322 322 323 327 327 327 327 328 327
313 314 314 312 310 309 310 311 317 321 321 315 314 313 314 314 317 316 315 319 320 320 320 319 320 319 320 318 319 319 318 320 319 321 323 324 325 323 322 324 326 327 327 327 327
313 314 314 311 310 309 311 314 320 321 324 320 317 317 317 316 317 316 317 319 319 319 319 321 321 319 320 320 320 321 321 322 321 321 323 324 325 325 323 322 322 324 326 327 327
313 314 313 311 310 310 312 315 316 324 321 318 317 318 316 317 317 316 317 319 319 320 320 321 319 320 321 321 321 322 320 321 322 322 322 323 322 326 325 325 324 324 325 326 327
313 314 313 310 312 311 316 315 323 322 319 317 317 316 316 317 317 319 318 319 320 320 321 322 321 321 322 321 321 322 320 323 322 323 323 323 323 326 326 326 327 326 326 327 328
313 314 313 310 312 314 320 323 322 325 319 317 317 318 319 318 318 319 320 319 319 321 321 321 319 321 321 320 320 320 322 322 322 323 324 323 323 322 327 327 327 325 324 325 323
313 313 312 311 315 316 323 323 322 322 318 317 318 318 319 319 319 321 321 321 322 322 323 321 321 319 320 322 322 323 323 323 324 325 324 322 323 322 323 324 326 325 323 322 320
313 314 313 311 321 325 323 319 319 318 318 317 318 319 320 319 320 320 321 321 320 322 322 321 323 320 319 322 322 323 323 323 321 323 321 322 322 322 321 321 324 324 322 320 319
313 313 313 312 314 323 318 324 320 320 320 318 318 319 320 320 319 321 321 322 320 321 321 322 321 319 319 320 321 321 322 322 324 320 324 321 322 322 321 321 322 324 321 320 319
313 313 313 313 314 317 322 320 319 321 319 318 317 319 320 320 319 320 322 320 321 320 320 322 323 319 319 319 319 321 320 323 323 323 321 319 320 319 323 322 322 323 321 320 319
313 315 317 314 316 321 324 321 320 324 322 319 318 319 319 321 320 319 320 320 320 320 320 321 322 321 320 321 322 321 321 319 320 321 318 316 316 321 321 322 322 322 321 320 319
316 319 317 317 322 320 321 319 322 323 320 320 320 321 321 321 322 321 321 321 319 320 322 320 323 325 323 319 319 320 322 319 319 319 320 322 318 317 320 320 321 321 321 320 320
316 321 323 321 323 323 318 319 322 321 321 322 321 321 322 323 324 323 322 316 316 319 322 320 323 324 322 321 320 321 321 319 319 320 320 327 317 317 318 319 319 320 321 320 319
317 325 322 316 316 319 319 320 320 320 321 321 322 322 323 323 322 324 322 317 317 318 313 315 322 323 325 321 320 321 321 319 319 320 318 319 316 317 317 319 319 319 319 318 317
319 321 321 324 318 319 319 319 320 322 320 320 322 323 324 324 323 324 322 318 318 316 318 320 322 319 317 317 317 318 319 319 318 319 319 317 317 315 317 317 317 318 318 317 315
319 320 318 319 315 317 316 319 319 321 322 322 324 323 323 324 323 324 322 320 321 319 320 316 322 317 319 317 316 317 318 318 319 319 318 318 318 318 317 316 317 317 316 315 314
318 316 318 313 317 318 317 319 319 322 320 320 323 323 324 322 320 320 317 318 318 321 320 319 318 317 318 314 315 319 317 317 317 318 318 319 318 317 316 316 316 316 315 314 314

GFSSW_850_thetae_024.txt.gz
Theta_e
308 308 308 309 310 310 310 312 312 311 311 312 312 312 310 309 307 307 309 311 314 312 312 316 314 314 317 317 317 317 318 320 321 323 329 325 329 331 329 328 325 326 336 341 339
308 308 308 309 310 310 311 312 311 311 311 312 312 311 309 307 307 309 316 312 311 311 312 316 317 316 318 317 317 317 319 320 326 330 328 327 327 328 328 328 332 334 341 341 339
307 307 308 309 309 310 312 312 311 311 312 312 311 310 307 307 315 321 318 314 311 310 313 317 317 317 317 317 318 318 319 320 326 326 325 328 326 327 329 329 329 331 337 338 338
307 307 308 309 309 311 312 312 311 311 312 311 310 308 307 308 324 321 317 312 311 311 315 318 317 317 317 318 318 319 319 320 325 327 326 328 327 326 327 325 326 331 335 337 337
307 307 308 309 310 312 312 312 311 311 311 310 309 307 308 321 320 320 316 312 311 314 318 317 316 316 319 319 319 319 321 321 325 325 326 327 328 327 323 325 328 333 336 335 336
307 307 308 309 311 312 313 312 311 311 310 309 308 307 312 320 318 319 316 315 313 316 318 316 317 318 318 319 319 319 321 320 324 325 324 326 326 325 326 326 330 334 333 333 332
307 307 308 309 312 313 313 312 311 310 309 308 307 309 316 317 319 321 316 316 317 318 317 317 318 318 319 321 321 321 320 320 321 324 324 325 325 325 328 329 330 330 328 328 329
308 307 308 310 312 313 313 311 310 309 308 308 309 311 319 319 318 319 320 319 319 317 317 319 320 320 320 321 320 320 320 320 320 323 324 323 322 322 327 327 328 329 328 328 327
309 307 308 311 313 313 312 310 309 308 308 309 313 319 322 320 318 318 319 320 320 320 319 319 319 320 320 321 320 321 320 320 320 323 324 323 322 322 324 327 327 327 327 328 328
310 307 308 312 313 313 311 309 309 309 309 311 313 318 318 320 317 318 319 319 320 320 320 319 319 321 322 321 320 320 319 320 320 320 323 322 322 322 323 327 328 328 328 329 329
312 307 308 312 313 313 311 309 318 319 314 318 321 318 319 318 318 318 318 319 320 321 322 321 322 321 322 321 321 320 321 320 320 321 321 321 321 320 322 324 327 327 329 329 329
313 307 309 312 313 313 310 318 322 323 325 322 315 319 319 319 318 318 318 320 322 322 322 321 321 321 321 321 321 320 320 319 319 320 320 319 319 321 322 324 326 327 328 329 329
313 308 309 313 313 313 311 310 320 320 324 321 319 317 319 318 318 318 318 319 321 321 321 322 322 322 322 320 320 320 321 321 320 318 318 322 319 321 321 323 324 326 326 328 329
314 308 309 313 313 312 313 311 317 318 325 322 320 319 319 319 318 319 318 320 321 321 323 323 322 322 321 321 320 322 323 322 322 322 320 323 324 324 325 323 324 325 326 327 327
314 308 310 313 321 318 325 320 323 326 329 322 320 319 319 318 318 318 319 320 321 321 323 325 320 320 321 323 323 322 322 323 322 321 325 324 323 325 325 325 326 326 327 328 328
314 309 310 313 313 318 322 327 326 331 327 320 319 319 319 318 318 318 319 319 321 322 320 321 321 323 323 322 322 323 323 324 322 322 328 322 325 324 325 325 321 325 326 327 328
315 310 310 313 317 316 320 328 327 325 320 320 319 318 319 318 318 319 319 319 319 321 320 321 320 322 323 321 321 321 321 324 328 329 330 323 323 325 325 324 325 326 326 327 328
315 311 310 313 319 321 324 329 326 320 321 318 318 319 319 318 318 318 320 319 319 319 320 321 325 321 321 321 324 324 321 327 329 327 327 324 323 323 325 324 325 327 328 329 330
315 311 310 313 317 322 325 330 324 322 320 320 318 318 319 318 318 318 318 319 318 319 323 325 323 322 322 321 321 321 322 322 325 329 327 321 319 321 324 323 323 328 328 330 328
315 312 310 313 313 320 326 326 323 321 321 319 318 318 319 319 318 318 318 319 319 322 322 324 324 324 322 321 321 321 321 324 322 323 323 320 320 323 325 322 323 327 328 328 327
313 314 313 313 314 321 327 325 323 321 320 321 318 318 320 320 319 319 318 319 323 323 322 322 324 323 323 322 319 323 322 320 320 327 331 329 321 320 320 321 323 324 327 327 326
313 316 317 315 317 317 325 322 321 322 320 322 321 319 320 321 320 319 319 321 321 321 322 321 321 327 321 322 323 322 324 322 333 325 330 330 324 320 320 320 321 322 324 326 325
313 317 319 316 318 323 323 322 321 322 322 323 322 321 320 321 321 320 320 323 323 323 322 323 322 325 322 323 323 322 321 320 323 327 328 331 325 321 319 318 319 320 322 325 325
314 320 323 320 315 321 324 322 321 321 321 321 322 321 321 320 321 321 322 323 322 323 319 322 322 321 326 322 324 325 322 321 321 330 327 324 320 319 320 320 319 319 319 321 323
315 320 321 324 323 322 325 322 321 322 320 322 322 320 322 323 322 323 323 324 322 321 320 322 323 322 321 321 322 323 322 321 321 322 323 323 320 319 319 319 318 318 319 319 319
316 319 321 321 320 322 324 325 322 321 322 323 323 321 323 323 323 323 323 326 324 323 323 322 325 324 325 323 322 321 321 321 319 319 320 319 320 319 318 319 318 317 317 318 318
315 319 321 321 322 324 326 325 323 322 322 321 322 323 323 324 324 325 325 325 324 326 326 326 329 326 323 319 319 319 321 319 319 319 319 320 321 320 319 318 318 318 317 317 317

GFSSW_850_thetae_027.txt.gz
Theta_e
309 308 308 308 308 309 310 310 311 311 311 311 312 312 310 309 308 307 309 310 311 312 309 312 315 311 314 316 317 317 311 311 313 326 328 326 326 329 328 327 327 335 336 335 332
309 308 308 308 308 309 310 310 311 311 311 311 312 311 309 307 307 314 319 316 312 311 310 312 318 316 314 316 317 315 310 314 325 327 326 326 326 326 326 328 331 331 332 330 333
309 309 307 307 308 309 310 311 312 311 311 311 311 310 308 307 318 321 319 317 312 311 310 314 316 316 315 317 317 315 314 315 325 327 326 327 328 326 327 327 329 327 329 330 331
309 308 307 307 308 309 310 312 312 311 311 311 310 309 307 308 321 320 317 314 311 310 312 315 316 317 316 314 316 315 316 317 327 326 326 327 326 322 325 326 330 325 333 332 333
311 307 307 307 308 309 311 312 312 311 310 310 309 307 307 315 318 320 316 314 311 312 316 317 318 317 315 315 316 316 316 319 326 326 326 325 326 326 323 325 332 330 333 332 332
312 307 307 307 308 309 311 313 312 310 310 309 308 307 309 320 320 320 316 315 312 314 316 317 317 316 317 317 317 318 318 320 325 326 327 327 327 325 324 329 333 334 333 334 333
313 309 307 307 308 310 312 313 311 310 309 308 307 308 310 311 319 320 320 316 317 317 317 317 318 319 319 319 320 320 318 318 321 324 324 325 324 322 324 328 331 334 333 332 329
315 311 307 307 308 311 313 313 310 309 308 308 308 310 311 316 318 319 319 318 318 317 317 317 319 319 319 319 320 319 318 318 319 323 323 322 320 323 325 325 330 330 329 329 327
319 312 308 307 308 312 313 312 309 308 308 308 312 322 319 320 318 317 319 321 320 319 319 318 319 319 320 319 318 318 317 318 318 321 322 321 320 325 328 328 327 327 327 327 327
321 313 309 307 308 312 313 311 309 309 309 309 310 315 316 320 317 317 318 319 320 320 320 319 319 318 317 318 318 318 319 316 317 319 321 320 318 318 326 327 327 328 327 327 326
322 315 311 307 309 313 313 310 321 322 314 311 316 314 319 319 318 319 318 319 319 320 320 321 318 319 320 320 320 320 318 317 316 317 321 320 318 318 321 326 325 327 328 328 327
322 317 312 307 309 313 313 310 320 318 321 322 324 316 318 319 318 318 318 319 320 320 320 319 319 320 321 320 320 321 321 319 317 318 318 318 317 317 318 322 326 323 328 328 328
320 319 313 307 310 313 313 311 317 319 321 323 320 319 316 318 319 318 318 319 320 320 321 321 321 321 321 321 321 321 321 320 319 317 316 320 317 319 319 322 325 325 328 329 329
321 319 313 307 311 318 318 314 310 316 322 323 322 320 317 318 319 317 318 320 320 322 321 321 321 321 321 321 320 320 321 321 321 320 316 319 319 324 322 322 322 325 328 329 328
318 320 314 307 315 318 324 322 322 323 327 321 321 319 319 319 319 317 318 320 319 322 321 322 323 321 322 321 321 321 320 321 322 321 322 322 320 319 322 320 322 321 324 328 328
318 320 314 307 312 317 323 326 323 326 327 322 321 319 319 319 318 318 318 320 321 321 321 321 321 321 321 321 321 321 321 322 322 321 321 321 321 323 322 322 322 323 325 326 328
318 319 315 308 312 318 317 326 324 322 321 321 319 319 318 318 317 317 318 317 319 320 320 319 320 321 322 321 321 321 320 321 322 321 323 324 323 322 322 321 323 323 323 324 329
317 319 315 308 316 321 320 325 327 321 321 320 319 318 317 317 317 317 317 316 316 317 319 321 322 321 321 320 322 320 321 323 325 326 324 324 324 322 321 322 323 323 323 322 329
318 317 315 309 313 320 323 326 321 323 319 320 317 318 317 318 316 316 318 317 316 316 319 322 323 322 322 321 321 321 319 323 324 323 324 321 318 321 321 322 322 322 321 328 329
316 315 315 311 311 318 322 323 324 321 321 320 319 317 317 317 317 316 316 317 318 320 321 322 323 322 322 322 320 320 319 321 320 321 321 318 319 324 322 321 322 321 327 330 330
314 314 316 313 311 318 319 322 322 322 320 322 319 318 318 319 316 317 317 317 318 321 320 320 323 324 323 323 320 320 319 319 319 319 320 320 319 318 318 320 320 324 329 330 329
314 315 314 309 314 315 317 320 321 322 322 321 321 320 318 320 319 316 317 322 321 321 321 320 321 321 324 321 321 320 321 322 316 319 317 315 317 317 316 318 320 321 327 329 328
314 315 314 311 313 314 315 319 321 322 322 321 322 321 320 320 322 318 323 322 322 322 321 322 319 315 317 318 321 321 320 320 322 317 318 314 317 316 317 317 319 320 321 327 327
314 316 318 316 312 314 314 318 321 321 322 321 322 321 321 320 320 320 323 322 322 319 319 322 321 317 316 318 321 322 323 321 319 315 317 316 319 317 315 315 316 318 319 323 326
313 314 318 319 318 314 316 318 322 323 321 321 321 321 320 320 321 321 324 322 322 319 320 319 319 320 321 322 322 321 322 321 319 319 318 318 320 318 317 315 316 318 318 318 320
313 315 319 319 318 318 315 320 322 321 321 321 321 320 319 321 322 321 324 323 322 320 320 320 321 321 321 320 318 318 319 318 318 318 317 318 318 316 317 317 316 317 316 318 317
311 315 318 319 318 318 316 320 322 321 321 320 322 322 321 323 323 324 324 324 322 321 320 319 315 314 319 315 314 310 313 316 318 317 317 315 315 313 315 315 316 317 317 317 317

GFSSW_850_thetae_030.txt.gz
Theta_e
309 309 309 308 308 308 308 309 310 311 311 310 311 311 310 310 307 309 316 316 311 311 310 309 313 310 312 317 316 316 313 311 312 318 327 327 327 330 327 329 334 335 335 333 334
309 309 309 308 307 307 308 309 310 311 311 310 311 310 309 308 311 319 319 317 314 311 310 310 316 315 312 315 317 314 310 313 313 325 325 325 326 327 325 330 331 332 330 329 330
311 309 308 308 307 307 308 309 311 312 311 310 310 310 308 307 316 321 317 316 312 311 310 311 315 315 315 315 316 314 313 313 318 326 325 324 325 326 327 327 329 329 327 326 329
313 310 308 308 307 308 309 310 311 312 310 310 310 309 307 307 320 320 316 314 311 310 312 313 315 316 314 314 315 314 315 315 322 326 326 325 325 321 325 327 328 328 328 329 327
320 312 309 307 307 308 309 310 312 311 310 309 309 308 307 310 316 319 315 314 311 312 316 315 317 318 314 314 314 314 315 319 324 325 326 325 326 322 327 327 327 327 330 329 327
322 317 310 307 307 308 309 311 312 311 310 309 308 307 308 314 320 319 317 314 312 316 316 317 317 317 315 317 315 319 316 324 326 326 325 325 326 324 327 327 331 331 330 329 328
322 322 312 308 307 308 309 311 312 310 309 308 308 307 308 310 318 317 318 316 315 315 316 317 317 318 319 318 319 319 316 319 325 326 326 325 324 321 326 331 332 331 331 329 327
319 322 316 310 307 307 309 312 312 310 308 308 308 309 310 314 318 318 320 319 318 318 317 317 318 319 318 319 319 317 315 316 322 324 325 320 322 323 327 332 332 332 331 331 330
318 322 320 311 308 307 309 312 311 309 308 308 308 317 314 318 318 318 319 320 320 319 319 318 319 318 319 317 315 314 316 318 319 321 322 318 320 323 325 330 331 331 332 332 331
318 318 322 313 308 307 310 312 311 311 311 309 309 311 313 319 318 317 318 320 319 319 320 319 318 315 315 315 316 318 319 318 317 318 320 318 318 323 324 325 328 328 329 327 332
317 318 322 315 309 307 310 313 317 322 318 312 312 311 314 318 319 318 317 318 319 320 318 320 316 317 318 317 319 319 319 318 317 315 320 318 317 324 324 325 326 325 326 326 327
316 318 322 318 310 307 311 313 318 315 318 319 320 322 318 318 316 318 318 318 319 319 319 317 318 318 319 320 319 319 319 319 317 316 319 318 317 318 318 323 325 325 325 326 327
314 318 318 320 310 307 313 314 314 314 317 319 318 317 317 317 317 318 317 319 320 319 319 319 320 320 320 320 320 319 320 320 319 315 314 315 318 319 318 323 325 326 327 326 325
313 318 316 320 309 309 322 320 311 311 319 321 321 318 317 316 318 318 318 318 318 320 320 319 320 320 320 320 319 318 319 319 319 318 315 316 319 319 321 319 324 323 325 327 325
313 317 319 319 309 317 322 322 319 322 313 319 322 319 316 317 318 317 318 319 318 320 319 318 321 320 320 319 319 319 319 319 321 319 319 320 316 317 320 317 321 322 325 326 327
312 318 317 318 310 314 321 324 321 323 321 323 320 318 317 318 318 318 319 319 319 319 319 319 320 319 319 320 319 319 320 319 320 319 320 321 318 317 320 319 318 320 322 324 327
310 317 317 319 312 309 318 322 320 324 319 321 319 318 317 317 317 316 316 317 317 319 320 319 319 319 321 320 319 320 318 318 319 319 319 322 319 318 320 319 319 320 321 324 327
310 316 318 319 312 313 317 324 323 320 322 319 318 317 318 316 317 316 315 315 315 317 316 318 320 321 320 320 320 319 318 318 322 321 320 322 323 321 319 320 321 321 321 322 326
308 314 315 317 311 317 321 324 318 322 318 318 317 317 316 316 316 315 314 315 314 314 316 320 321 320 320 320 320 319 318 318 320 319 322 320 319 318 320 320 321 321 322 322 327
308 312 314 317 314 313 319 319 321 321 320 319 317 316 316 315 315 314 314 315 316 315 318 320 320 319 320 321 320 319 318 320 318 322 324 317 317 321 321 322 319 321 321 324 330
308 312 313 316 314 311 318 317 319 319 321 321 320 318 316 316 315 314 315 315 316 321 319 319 318 320 321 321 320 319 318 317 317 315 318 318 317 313 318 319 321 319 322 325 329
308 313 313 314 311 312 317 317 316 319 320 322 320 320 316 316 316 315 315 315 319 320 319 320 320 318 321 319 320 318 319 319 315 316 314 313 317 316 314 316 321 322 322 327 329
309 312 313 315 311 311 313 316 316 317 320 321 321 320 319 319 319 319 319 321 321 319 319 318 318 315 317 316 317 319 318 318 317 312 316 314 316 315 313 314 318 322 325 327 329
309 313 313 313 314 309 313 316 317 316 318 320 321 320 320 319 319 320 322 321 321 319 320 319 317 315 315 315 316 321 322 321 318 314 315 314 317 317 315 313 314 317 320 326 328
310 313 313 314 313 310 311 314 315 315 319 320 320 320 320 318 319 320 322 321 321 318 319 316 318 317 316 320 321 319 321 321 318 317 316 316 317 316 316 314 314 317 317 321 325
310 313 314 314 313 312 311 313 313 314 317 318 320 320 318 318 317 320 322 320 319 319 318 317 318 319 320 317 316 317 316 316 317 317 317 317 317 311 313 315 315 315 317 316 318
305 312 315 314 314 314 312 313 313 313 317 317 319 319 318 318 321 320 322 321 320 318 318 317 313 312 317 312 311 312 313 314 316 317 316 314 314 312 312 313 313 315 316 316 316

GFSSW_850_thetae_033.txt.gz
Theta_e
309 308 309 309 309 308 308 308 309 310 311 311 310 310 310 309 308 313 318 317 315 309 309 308 314 310 312 317 317 315 311 311 313 314 325 327 327 328 329 332 334 335 333 332 334
310 309 308 309 309 308 308 308 309 310 311 310 310 310 310 309 313 319 318 316 317 312 310 310 315 312 311 314 315 312 310 313 312 318 324 326 326 327 330 331 330 330 331 332 332
318 312 309 308 308 307 307 308 309 311 311 310 310 310 309 307 314 320 318 314 315 311 310 312 316 316 315 314 315 313 313 312 314 323 325 325 324 326 329 329 330 329 330 332 333
322 320 313 309 307 307 307 308 310 311 311 310 309 309 308 307 319 317 316 313 311 310 311 314 315 315 313 314 315 314 313 313 315 325 325 324 324 321 325 326 331 329 326 328 330
323 322 320 311 308 307 307 308 310 312 311 309 309 308 307 308 316 319 316 312 310 311 312 315 317 317 314 313 313 312 314 315 315 325 325 325 323 325 327 327 328 327 326 326 326
321 322 322 317 309 307 307 308 310 312 311 309 308 308 307 309 319 319 316 312 311 312 315 316 317 317 316 315 315 317 316 324 324 325 325 324 325 327 327 328 327 328 324 324 323
314 320 321 322 312 308 307 308 311 312 310 309 308 307 307 308 319 319 318 314 313 314 316 317 317 318 318 316 318 319 318 323 324 325 325 324 322 326 327 329 328 327 326 324 325
316 313 317 322 317 309 307 308 311 312 310 308 308 307 308 310 317 317 319 318 317 316 317 317 318 318 318 318 318 316 314 318 324 324 324 320 323 321 328 329 330 330 329 328 327
315 314 316 321 320 310 307 308 311 312 309 308 308 309 310 314 314 317 318 319 320 319 318 317 318 318 318 316 313 313 315 317 323 322 322 320 320 320 328 329 330 331 330 329 328
311 314 314 317 321 313 307 308 312 310 315 314 309 308 310 318 318 318 317 318 318 319 319 319 317 314 313 314 316 317 317 316 317 316 320 322 319 322 325 328 329 330 330 329 327
312 315 314 317 321 315 307 310 313 320 318 316 310 308 310 316 317 316 317 317 318 319 318 318 315 316 316 316 318 318 318 318 317 317 319 318 318 322 323 325 326 328 330 331 329
307 314 316 315 321 316 307 311 316 314 313 316 316 318 319 320 319 318 318 317 318 317 319 316 318 317 317 317 319 319 319 319 317 315 315 316 317 320 321 324 327 328 328 330 331
304 312 318 315 320 317 307 317 318 314 311 314 316 315 316 317 318 318 317 317 318 318 317 317 318 319 319 319 319 318 319 318 319 317 314 315 317 316 316 323 325 326 328 328 329
301 313 319 318 317 317 314 320 312 311 316 318 321 318 316 317 316 318 317 318 317 318 317 317 318 319 319 319 318 319 318 318 318 317 313 314 316 317 316 321 322 325 324 325 326
299 312 317 317 314 309 321 318 314 320 310 313 321 318 315 316 317 317 318 318 317 319 317 317 320 319 319 318 318 318 319 318 319 319 317 317 315 314 318 316 322 323 324 324 325
300 311 316 318 318 313 321 320 320 313 312 318 320 317 315 316 317 317 317 318 317 318 318 317 319 317 317 319 318 318 319 317 317 318 318 320 317 316 318 318 318 323 323 324 324
300 311 315 317 318 317 313 321 321 315 314 320 318 316 315 316 316 316 315 317 317 319 318 318 318 318 320 319 318 317 315 316 317 318 318 319 319 318 316 316 317 317 323 324 325
303 309 313 315 317 315 312 322 321 318 319 320 317 316 315 315 316 315 314 314 314 315 316 318 318 319 320 319 319 319 316 316 320 318 318 320 322 319 318 318 318 319 320 322 323
304 306 311 314 317 313 320 323 316 318 319 315 316 317 316 316 315 315 313 313 313 314 316 318 319 319 319 319 319 319 317 316 318 316 319 318 318 315 317 319 318 319 321 323 324
304 306 309 314 316 313 318 320 319 319 321 320 316 316 316 314 315 314 313 313 314 313 314 317 318 319 318 320 319 318 317 317 316 321 322 317 316 318 320 319 318 318 320 323 323
304 307 309 312 316 311 316 316 317 318 319 321 320 316 316 315 313 312 314 314 314 317 315 318 316 316 321 319 318 318 317 315 315 314 316 316 317 312 317 318 317 317 320 321 325
304 308 309 312 313 310 312 314 315 316 317 319 320 320 316 314 314 314 314 314 315 318 317 317 315 315 319 318 318 318 318 315 314 316 312 312 315 313 312 313 316 321 321 322 323
304 308 310 311 314 311 311 314 314 315 316 318 320 319 317 314 315 314 314 318 318 316 317 317 316 315 317 316 316 319 317 317 315 310 315 313 315 313 312 312 316 319 322 322 323
305 309 311 312 312 312 312 313 316 315 315 317 319 320 320 318 317 317 320 320 319 318 318 316 314 316 317 317 315 319 320 317 316 314 314 313 315 316 314 313 314 315 320 322 323
304 308 311 313 311 312 311 312 315 316 315 314 316 319 320 319 318 319 320 320 319 317 317 316 317 314 314 314 319 318 319 318 317 316 316 316 315 315 315 313 312 314 316 318 322
304 309 311 312 311 311 312 312 314 315 315 316 315 318 316 318 316 317 319 319 318 318 317 315 315 318 318 316 315 316 315 314 315 316 315 315 315 312 312 313 313 313 315 317 320
302 307 310 311 312 312 312 311 312 314 314 314 317 318 318 317 318 317 319 319 317 317 315 314 312 313 316 311 311 312 312 313 314 314 315 314 312 311 312 311 311 314 316 316 317

GFSSW_850_thetae_036.txt.gz
Theta_e
312 310 309 308 309 309 308 308 308 309 310 311 310 309 310 310 310 317 318 316 316 310 309 308 313 310 311 316 315 313 309 310 312 313 315 326 327 327 330 331 331 333 334 333 334
319 316 312 310 308 308 308 307 308 309 310 311 310 309 310 309 314 319 318 315 315 313 309 309 314 310 312 313 314 311 309 312 311 312 323 325 325 327 330 331 330 331 331 332 331
322 321 320 314 309 307 307 307 308 309 310 311 310 309 309 308 314 319 317 314 313 312 309 314 315 315 314 313 313 311 312 311 313 314 322 324 324 326 330 330 329 330 330 330 330
322 323 322 321 314 309 307 307 308 309 311 311 309 309 308 307 318 317 316 313 311 311 310 314 315 315 313 313 314 313 312 313 313 320 324 323 324 324 325 326 330 329 331 329 330
315 321 322 322 321 312 307 307 308 309 311 311 309 308 308 307 314 319 315 312 310 310 313 315 316 316 314 312 312 311 312 315 314 323 324 323 323 325 327 330 329 327 330 329 329
318 312 320 321 322 318 309 307 308 309 311 311 309 308 308 306 319 318 315 312 311 313 315 316 316 316 316 315 315 316 317 321 323 324 325 326 326 326 327 329 327 327 329 327 326
318 317 312 318 320 321 312 308 307 309 311 311 309 308 308 308 317 318 316 314 312 314 315 316 316 316 317 315 317 317 321 322 323 324 324 324 321 326 328 327 326 327 326 324 321
312 317 317 315 316 321 317 308 307 308 311 311 308 307 308 308 316 318 318 317 316 315 315 316 316 317 317 317 316 314 314 318 323 323 323 320 323 325 328 326 327 325 325 325 323
302 313 318 316 315 319 320 310 307 308 311 311 309 308 308 311 312 316 317 319 319 319 318 316 317 317 317 315 313 312 314 317 324 323 322 319 321 323 328 327 327 327 326 325 326
299 306 314 315 316 317 320 310 307 310 312 313 314 310 308 315 317 317 317 317 318 318 318 318 317 313 311 313 316 317 317 316 317 316 322 322 319 321 327 328 329 328 329 328 328
299 303 310 316 314 319 320 308 311 316 318 318 310 308 308 314 316 317 317 317 317 318 317 317 314 315 315 314 316 317 317 317 315 315 317 320 319 321 324 327 328 329 330 329 328
299 299 313 314 319 319 319 307 313 313 315 315 315 315 318 318 318 317 317 317 317 317 318 315 316 315 316 316 318 318 318 317 316 314 315 315 317 322 322 325 327 329 329 329 328
299 299 309 313 318 318 319 309 316 318 313 313 314 314 314 316 317 317 316 317 316 316 317 316 316 318 318 317 318 317 318 317 318 316 314 315 316 321 320 324 325 327 329 328 329
300 299 311 315 317 316 317 317 318 315 313 315 317 316 315 317 317 317 317 317 317 316 315 316 316 318 318 318 316 318 316 317 317 316 314 313 314 316 317 323 321 324 327 329 329
303 299 310 314 315 312 316 317 313 315 311 312 320 317 317 316 316 317 317 317 316 317 316 317 318 318 318 317 316 317 317 318 318 317 316 317 315 314 315 317 322 322 325 328 328
306 301 309 313 314 314 318 318 317 317 311 312 319 317 314 315 316 315 317 317 317 317 317 315 318 316 316 316 316 318 318 314 315 316 317 317 316 316 316 317 319 321 323 327 328
305 303 308 311 314 312 316 315 322 316 312 316 319 315 313 314 315 314 315 316 316 317 317 317 317 317 318 318 317 316 314 315 316 317 318 317 318 317 315 314 315 315 320 326 328
304 304 305 310 314 315 314 319 320 316 315 317 316 315 314 314 314 315 313 314 314 314 315 317 317 318 318 317 316 317 314 315 318 317 316 317 319 318 317 317 318 317 317 320 323
303 304 304 309 314 315 316 319 316 315 317 315 316 316 315 314 314 314 313 312 313 313 316 316 317 317 318 318 317 317 317 314 316 314 318 316 316 313 316 318 318 318 318 317 322
302 303 302 307 313 314 314 318 319 315 320 320 316 315 315 313 314 313 312 312 313 313 314 316 316 317 318 319 318 317 315 316 314 320 321 316 315 315 316 317 318 318 319 321 320
302 304 303 306 312 312 312 314 316 317 318 319 320 318 315 314 313 312 313 313 312 312 313 315 313 313 320 318 317 316 316 313 313 313 316 315 315 311 314 316 316 315 319 320 322
304 303 305 306 312 313 314 312 313 317 317 318 319 320 317 313 313 313 313 313 314 315 314 315 313 312 316 317 316 314 315 314 314 316 311 311 314 313 310 310 313 316 319 320 321
304 305 308 308 312 312 312 312 313 315 315 316 318 319 318 315 314 313 312 313 314 314 315 316 314 314 315 314 315 318 316 315 312 310 314 312 314 311 311 311 314 314 318 319 321
303 304 309 309 311 310 311 312 312 314 314 315 317 319 319 318 314 313 314 318 316 315 316 315 314 314 316 315 314 317 317 315 315 313 313 312 314 313 313 312 313 315 316 316 320
303 304 309 309 309 311 310 311 312 313 314 314 315 317 318 319 317 318 318 319 317 317 314 314 315 313 314 314 315 316 318 315 316 315 316 316 313 314 313 312 311 313 313 315 317
302 305 308 309 308 310 312 311 312 312 314 313 315 315 316 318 315 316 319 317 317 315 315 312 315 314 317 315 315 317 315 314 315 315 314 313 314 311 311 312 312 311 315 318 320
300 304 308 308 309 309 310 311 311 312 313 314 313 313 315 315 316 316 316 316 315 316 314 312 311 312 316 311 313 313 311 313 313 312 314 315 313 310 311 311 311 313 315 315 316

GFSSW_850_thetae_039.txt.gz
Theta_e
320 318 316 314 310 309 308 308 307 308 309 310 311 310 310 309 311 317 317 315 315 309 310 308 310 311 312 315 314 313 316 315 314 314 316 326 328 328 329 331 331 332 333 333 333
322 322 320 320 317 311 308 307 307 308 309 310 311 310 309 309 314 319 317 315 314 312 309 309 312 310 313 314 315 314 315 315 314 314 319 325 326 328 331 331 331 331 332 333 333
321 322 322 322 321 319 310 307 307 308 309 310 311 309 309 308 313 317 317 314 313 311 309 314 313 312 313 312 313 312 316 314 314 313 317 324 325 326 330 331 330 330 331 332 331
317 316 321 322 322 321 317 309 307 307 308 310 311 309 309 308 318 316 317 313 312 310 312 316 314 315 314 314 313 314 313 313 313 319 323 324 324 329 326 327 329 330 330 331 330
318 318 316 318 321 322 321 314 308 307 308 310 311 309 308 308 309 318 315 311 310 310 314 315 316 316 316 313 312 313 314 314 317 322 323 323 324 326 328 329 330 329 328 328 329
311 317 319 316 314 320 320 320 310 307 308 309 311 309 308 308 314 318 313 311 310 312 315 315 316 316 316 315 315 315 316 322 323 324 324 326 327 325 328 329 327 329 328 329 327
300 308 316 318 316 313 318 321 313 308 307 309 311 310 308 309 309 318 315 312 311 313 315 315 316 316 316 317 315 316 321 322 324 324 326 323 323 327 328 328 327 328 327 327 328
299 299 309 317 317 315 314 320 317 309 307 308 311 310 308 308 308 318 316 316 314 313 314 314 315 316 316 316 315 315 316 319 323 324 323 320 324 326 328 328 328 327 327 326 326
299 299 300 314 318 316 315 316 319 309 307 309 310 309 309 309 309 314 316 317 318 318 318 316 316 316 316 317 317 315 317 319 325 324 324 321 323 325 328 328 327 327 326 324 324
300 299 298 307 316 317 316 317 317 309 310 313 313 311 312 312 315 315 316 317 318 317 317 317 316 316 315 317 320 319 319 318 319 318 323 324 321 326 328 328 327 327 327 325 325
300 299 299 301 313 317 316 319 309 312 315 315 313 312 308 312 316 316 316 317 317 317 319 317 318 319 317 317 316 318 319 319 318 317 321 325 323 326 327 328 328 328 328 327 325
303 301 299 300 312 316 317 319 310 313 313 312 313 314 316 316 317 317 316 317 317 318 317 318 320 317 315 316 318 318 319 319 317 315 316 317 319 321 326 328 328 329 329 329 328
304 302 300 302 313 313 316 315 315 315 316 313 312 312 313 314 315 316 316 316 316 317 318 319 317 317 317 317 318 318 319 318 319 317 315 317 319 320 323 325 326 327 328 328 328
305 304 301 310 310 311 314 314 312 316 313 313 314 314 314 315 316 316 316 317 317 317 316 318 316 318 318 318 317 320 317 317 318 318 318 314 319 316 321 325 324 326 326 328 328
305 306 302 310 314 313 314 315 314 314 315 313 318 316 316 316 315 316 316 317 318 318 318 320 318 319 319 318 317 320 317 318 319 318 318 318 319 318 317 322 326 325 325 327 328
304 305 303 309 312 313 315 317 316 319 316 311 318 318 317 314 315 314 315 316 316 318 317 317 316 317 318 316 316 317 318 315 317 319 322 319 320 321 320 320 322 323 325 326 327
303 303 304 307 309 311 315 316 319 320 312 313 319 315 314 314 314 314 316 318 318 319 319 317 318 317 317 319 317 317 318 321 320 324 323 319 320 322 319 316 318 319 321 324 326
302 303 304 304 309 310 314 316 320 316 315 315 316 314 315 314 314 314 315 317 314 314 315 318 318 318 317 319 320 318 319 322 320 322 319 318 322 320 318 317 317 318 318 317 319
302 302 304 303 308 312 315 317 316 316 315 315 315 315 314 314 315 314 315 317 316 315 318 318 318 316 318 318 318 318 319 316 320 317 323 319 319 317 317 319 319 319 319 318 317
302 302 303 303 307 312 314 315 316 314 318 319 316 316 316 314 315 315 314 314 315 314 315 318 318 317 317 318 317 318 317 321 319 323 323 319 318 318 318 318 317 319 320 320 320
302 303 303 303 307 311 314 314 314 315 317 319 320 320 316 315 315 314 315 313 313 313 314 316 316 315 319 320 320 318 319 316 317 318 321 320 319 317 318 317 319 317 317 320 321
302 302 303 303 308 311 312 312 313 314 316 317 318 320 318 315 314 315 316 316 312 313 316 317 317 318 318 316 316 316 319 319 323 319 316 318 319 315 316 314 313 315 315 318 320
302 302 303 303 309 310 311 311 312 313 315 317 318 318 318 315 315 314 313 313 312 314 317 317 316 318 317 317 316 319 317 315 315 315 318 325 321 314 314 315 314 313 314 316 318
302 304 304 304 307 308 310 311 312 312 313 316 317 317 318 318 314 314 314 315 313 314 314 315 316 318 318 318 317 319 318 316 319 320 320 319 320 318 318 316 316 315 314 314 315
302 304 306 306 306 307 309 310 312 312 313 314 315 317 318 318 316 316 315 318 316 316 315 317 318 316 315 314 315 316 318 317 318 319 322 321 316 318 318 317 315 313 313 315 316
301 304 305 308 305 307 309 310 311 312 312 314 315 315 316 319 317 317 319 318 318 315 316 313 318 314 315 314 315 318 316 317 317 316 316 316 317 315 313 312 312 311 315 317 319
301 303 304 307 307 306 307 309 311 312 311 312 313 314 315 315 316 316 315 316 317 318 316 315 316 316 318 312 315 318 316 316 315 315 318 319 319 314 313 312 312 313 314 313 315

GFSSW_850_thetae_042.txt.gz
Theta_e
322 322 322 320 320 319 313 309 307 308 308 309 310 311 310 310 310 317 317 315 315 310 310 310 313 314 314 315 315 315 318 318 318 319 318 325 324 330 332 332 333 334 336 336 333
319 321 322 321 322 321 321 313 308 307 307 309 310 311 309 309 310 318 317 315 313 311 310 313 313 312 314 316 316 318 318 318 319 319 319 321 324 329 332 332 333 333 332 333 334
315 317 317 321 321 321 322 321 312 307 307 308 310 311 309 309 310 320 317 314 313 310 309 314 312 314 315 315 317 318 320 319 319 317 317 320 327 329 330 331 331 332 330 330 331
310 312 315 315 314 320 321 321 319 310 307 308 309 311 310 309 317 315 318 313 312 310 314 315 316 317 318 318 317 318 319 319 318 319 321 325 327 329 329 332 332 332 330 330 330
301 307 311 314 316 314 316 320 320 316 308 307 308 311 310 312 310 315 316 311 311 310 314 315 318 319 319 319 318 318 319 319 321 321 326 326 327 328 331 331 331 331 330 329 328
299 299 302 310 313 315 312 316 318 320 312 308 308 310 311 312 309 318 313 310 310 311 314 316 318 318 319 319 319 319 319 325 324 325 326 327 328 328 332 331 330 330 329 328 327
299 299 299 300 309 313 313 310 314 319 317 309 307 309 311 311 309 318 313 311 311 313 314 315 317 318 319 320 319 319 322 325 326 327 328 326 327 332 331 329 329 328 329 327 326
299 299 299 299 302 312 313 311 312 318 320 311 308 310 313 310 308 316 315 313 312 313 314 314 315 317 319 319 319 320 321 321 323 327 326 327 326 331 330 329 329 329 326 328 326
300 300 299 299 300 308 310 310 312 313 318 310 309 310 313 309 308 311 317 317 315 314 315 315 316 319 319 320 320 321 320 321 322 327 327 327 325 328 329 328 327 326 325 326 327
301 300 300 299 299 304 307 309 310 312 313 311 313 312 312 312 313 312 316 315 318 317 317 317 319 321 320 319 319 320 321 322 322 325 327 327 326 328 329 328 326 326 325 325 327
305 300 300 299 299 303 308 312 316 315 313 317 317 315 309 313 316 316 316 316 318 319 321 321 322 320 319 318 320 321 320 321 321 321 322 323 324 325 328 329 328 326 327 327 326
306 305 302 300 299 305 313 316 316 313 315 315 312 314 314 313 317 318 316 319 319 321 321 322 322 321 320 320 321 322 321 321 322 320 320 322 321 324 328 329 329 328 328 328 327
305 305 305 301 300 306 311 316 315 316 317 317 314 314 314 314 316 317 316 318 319 320 321 322 321 320 321 321 321 322 322 322 322 321 320 320 321 323 326 329 329 329 328 328 328
304 305 306 303 304 309 312 311 314 312 319 316 314 314 314 315 316 316 317 317 319 320 321 322 321 321 321 321 322 321 321 321 322 322 322 320 322 322 324 327 329 328 329 327 327
305 304 305 302 314 314 314 313 316 316 315 315 317 316 317 316 316 317 317 317 319 319 320 321 321 321 321 321 321 321 321 322 322 323 322 322 321 322 322 322 325 327 328 328 326
306 304 304 304 310 312 314 315 316 322 314 314 319 318 318 317 316 316 316 317 318 320 321 321 319 321 321 321 320 321 322 322 323 323 323 322 322 322 321 321 322 323 325 327 328
304 304 303 306 307 312 315 317 320 317 314 314 320 319 318 317 317 318 318 319 319 320 321 321 321 320 320 321 321 321 322 324 323 324 324 323 323 322 322 322 323 322 322 325 327
300 305 303 304 308 310 313 318 316 310 313 315 318 319 318 316 317 318 318 319 319 319 320 320 320 320 320 321 321 322 323 324 322 323 322 321 322 322 322 321 321 322 322 322 322
299 303 303 303 306 310 314 318 311 312 315 315 316 320 318 316 317 318 319 319 319 319 319 320 319 320 321 321 321 322 322 322 323 323 323 321 321 321 320 321 321 322 323 324 322
298 300 303 302 304 308 313 315 311 312 315 317 316 320 319 316 317 318 319 319 319 319 319 320 321 321 321 321 321 322 321 323 323 323 322 321 321 319 320 319 320 320 321 324 324
299 302 304 302 303 305 312 313 311 313 316 319 319 317 319 317 316 318 318 317 319 319 319 319 320 321 322 322 322 322 322 322 322 322 323 322 321 320 320 320 322 321 320 322 323
300 304 303 302 304 306 311 313 311 313 315 318 319 322 320 318 317 317 318 318 317 318 319 319 320 322 320 320 320 320 321 322 323 322 322 324 322 320 320 321 320 320 319 321 322
301 302 303 303 305 306 309 311 311 313 314 318 319 320 321 320 318 318 318 318 316 319 319 320 320 322 320 319 320 320 320 320 322 321 323 327 323 321 320 320 320 320 320 318 319
301 304 304 304 304 307 308 311 311 311 313 316 318 319 321 321 319 318 318 317 316 318 318 319 320 320 321 319 319 321 320 321 322 324 323 324 321 321 321 321 321 320 320 318 317
302 304 304 306 306 307 309 309 310 312 312 314 318 319 320 320 320 319 317 318 317 316 317 320 320 320 319 318 318 318 318 321 321 322 322 322 321 321 320 321 320 318 317 318 320
301 305 305 305 305 307 310 310 310 311 312 313 316 318 319 319 319 320 320 320 319 319 319 319 319 320 320 319 319 319 319 319 321 320 321 321 320 320 320 320 319 317 318 320 320
301 304 305 306 307 307 310 309 310 311 311 311 313 314 317 318 318 316 316 316 317 321 321 321 320 320 319 319 319 321 321 320 321 321 321 321 321 320 320 320 319 318 319 318 318

GFSSW_850_thetae_045.txt.gz
Theta_e
319 320 321 322 321 321 320 320 315 309 308 308 308 310 311 310 309 314 318 318 315 312 310 315 315 316 316 317 317 317 320 319 319 321 321 322 324 328 330 331 334 335 338 338 334
315 315 318 320 321 320 321 321 321 315 309 308 308 309 311 310 309 315 320 315 313 311 313 314 315 315 316 318 318 319 321 320 320 321 321 322 325 329 331 330 332 336 335 333 334
309 310 314 315 317 314 317 320 322 321 314 308 308 309 311 310 314 317 320 315 313 311 315 314 315 315 317 318 319 320 320 321 321 320 320 322 324 328 330 331 323 334 332 333 333
300 301 306 311 313 313 314 312 319 320 320 313 308 308 310 310 318 322 317 315 312 310 315 316 315 317 319 320 320 320 321 320 321 320 322 326 323 327 328 332 334 335 330 330 330
299 299 299 302 308 312 314 313 309 318 317 319 310 308 309 316 316 315 316 315 311 310 316 318 318 320 320 319 320 321 321 322 323 322 326 327 328 329 333 332 333 330 330 329 328
299 299 299 299 299 304 309 314 310 314 316 317 315 308 313 317 314 314 318 312 315 315 317 317 319 319 320 320 320 321 321 324 324 325 326 327 329 329 333 331 331 331 329 328 327
299 299 299 299 299 299 303 309 312 310 312 315 319 309 313 314 314 317 316 315 315 316 317 318 318 319 321 321 320 320 321 324 322 325 326 327 324 329 331 328 327 329 330 328 326
301 299 299 299 299 299 301 306 309 311 311 314 318 309 315 315 312 316 317 315 315 316 316 318 318 319 320 320 320 320 322 323 324 326 327 325 324 330 329 328 328 326 330 329 327
303 301 300 300 299 299 299 303 306 309 310 311 316 314 316 315 311 312 319 316 316 316 316 316 318 319 321 320 321 321 322 323 323 324 327 326 326 330 328 327 328 325 328 329 326
306 304 301 300 300 299 299 302 306 307 311 310 314 316 316 314 312 312 318 317 318 318 318 319 319 321 321 320 320 320 321 322 324 324 325 325 326 329 329 326 327 325 326 328 324
306 306 305 301 300 299 299 314 317 319 316 313 318 315 313 314 316 316 316 317 319 319 321 321 323 323 321 320 320 321 321 322 323 322 321 323 324 325 329 329 326 327 325 326 326
307 306 306 304 301 299 301 313 316 317 316 315 315 315 317 315 317 316 318 318 319 322 321 323 324 322 321 320 320 321 321 321 322 322 322 322 323 323 328 328 327 326 327 325 325
307 306 305 305 303 301 309 314 316 317 316 313 315 316 315 315 316 317 318 318 321 322 322 323 323 322 320 320 321 322 322 323 322 323 322 322 322 322 325 327 327 326 325 326 325
305 306 305 305 303 308 312 314 315 315 317 315 318 317 316 316 317 316 317 318 320 321 321 322 322 321 321 321 321 322 322 321 322 322 323 323 324 324 324 327 329 327 326 326 326
301 305 305 304 310 314 316 316 317 318 313 317 318 317 317 316 317 317 317 317 320 320 321 322 322 322 322 321 322 322 322 322 323 324 324 323 321 324 323 324 326 328 327 326 326
301 302 305 304 305 313 316 317 319 319 315 316 319 319 319 317 317 318 317 317 318 320 321 321 321 322 322 321 322 322 323 323 324 324 326 323 323 324 323 321 321 325 326 327 326
301 300 304 305 307 310 315 318 317 314 314 315 318 319 320 320 319 319 319 319 319 320 322 321 322 321 321 322 322 322 324 325 325 326 326 324 323 323 324 322 322 323 323 325 327
301 299 302 305 306 311 313 317 313 310 312 317 318 320 320 320 319 319 320 319 319 320 322 322 322 322 322 321 323 323 324 326 330 326 325 324 322 322 323 322 322 322 323 323 325
301 301 302 304 305 308 308 316 313 311 313 314 317 320 321 319 319 319 319 319 319 320 321 322 322 321 321 321 322 323 324 324 325 325 324 323 322 322 321 321 321 322 324 325 325
302 303 303 304 304 307 308 314 311 311 311 314 314 319 322 320 318 320 320 319 319 319 320 321 322 321 321 322 322 323 324 324 324 325 327 322 323 322 321 321 320 320 322 323 325
302 303 303 303 304 306 309 312 313 310 311 313 316 316 320 321 318 319 319 319 319 319 320 321 321 322 323 323 323 323 324 323 324 324 326 326 323 322 321 321 321 322 320 321 322
302 305 303 302 305 306 308 310 310 311 311 312 316 317 318 321 319 318 319 319 318 319 320 320 322 324 323 323 322 322 323 323 325 324 324 325 325 322 322 321 321 321 321 321 321
302 303 303 304 306 309 307 309 310 312 312 313 317 319 320 320 321 319 318 318 318 319 321 320 320 324 323 323 322 322 323 323 324 323 324 330 325 322 321 321 320 320 321 321 321
302 304 304 305 305 308 307 309 309 310 312 311 315 317 319 321 321 321 319 318 319 318 319 320 320 321 324 324 322 321 321 321 322 326 324 323 322 322 322 322 321 321 321 321 321
302 305 305 306 307 309 308 307 308 310 311 312 313 316 316 319 319 320 320 320 318 317 319 321 321 320 320 321 321 321 321 321 321 321 323 322 322 322 322 321 320 321 320 319 320
300 305 305 307 306 308 308 308 308 309 310 312 314 316 317 317 318 320 319 319 319 319 320 320 321 321 320 321 320 319 319 319 319 320 321 321 321 321 320 319 319 320 320 320 322
300 303 305 306 308 309 310 308 307 309 310 310 312 313 316 317 319 318 318 318 319 321 321 320 323 321 323 321 321 323 319 319 319 320 321 321 321 321 321 320 320 320 320 322 322

GFSSW_850_thetae_048.txt.gz
Theta_e
315 315 317 317 318 317 319 320 321 321 320 312 308 308 309 311 311 310 317 321 320 315 311 317 318 317 317 318 318 318 318 320 321 322 322 322 323 325 325 329 329 327 332 335 334
307 308 311 313 313 315 315 315 317 320 321 321 314 309 309 311 312 311 317 319 315 313 310 317 317 317 317 318 319 319 320 321 321 321 321 321 322 328 325 329 324 321 324 331 336
300 300 303 305 307 309 310 311 312 312 319 319 320 313 309 310 315 320 317 318 315 312 314 316 316 316 317 318 319 319 320 321 321 321 321 321 323 323 327 331 324 323 324 331 331
299 299 299 300 300 303 306 307 311 311 310 317 316 318 310 310 320 322 320 318 314 312 312 316 316 317 318 320 320 320 320 321 321 322 321 322 326 327 331 335 331 331 330 331 330
299 299 299 299 299 299 300 302 307 309 309 312 316 318 314 317 318 319 316 314 314 311 316 317 318 318 321 321 319 320 320 321 323 323 322 324 326 326 333 334 333 330 329 330 329
300 299 299 299 299 299 299 300 302 307 309 308 313 316 317 317 317 316 318 312 314 312 317 318 319 320 320 321 320 320 321 321 324 323 324 323 323 322 332 331 332 331 329 328 327
302 300 300 300 299 299 299 299 300 305 308 308 309 316 317 316 316 315 318 317 314 316 317 318 318 319 320 322 320 320 319 321 324 324 325 324 323 324 325 329 331 330 329 327 326
306 304 301 300 300 299 299 299 300 302 305 308 309 313 317 314 316 316 318 318 316 316 318 318 319 319 319 320 321 320 320 321 323 325 326 324 326 323 324 327 327 331 330 328 324
307 306 304 301 300 300 300 300 300 302 304 307 309 317 317 315 316 315 317 318 316 316 317 318 318 318 319 321 321 320 320 322 324 324 326 328 327 324 324 328 326 329 328 328 327
306 307 306 305 301 300 300 300 302 310 314 313 314 315 315 316 316 314 315 319 317 317 317 318 318 319 320 320 321 321 321 322 324 325 323 325 329 327 329 327 326 327 327 326 325
305 308 306 306 304 300 300 300 314 321 319 318 315 314 314 317 316 313 313 319 318 318 319 319 320 321 322 322 321 319 320 323 324 324 325 322 324 326 324 326 326 326 327 326 326
302 306 307 306 305 302 301 312 312 317 316 312 314 317 316 318 317 316 314 318 318 320 320 321 323 323 323 322 321 320 320 321 322 324 322 320 322 327 326 328 326 326 327 325 326
302 304 306 306 305 302 301 309 314 316 316 312 311 312 314 315 317 318 316 317 319 320 321 322 323 324 322 322 320 320 321 322 324 323 323 322 321 325 328 326 326 326 326 326 325
298 301 304 306 303 310 308 312 313 316 317 310 312 315 313 315 315 316 317 317 318 319 321 322 322 323 323 320 320 320 321 322 322 322 322 323 324 323 323 327 327 326 326 326 325
300 300 301 305 308 312 316 315 316 320 310 314 316 318 318 316 317 316 316 318 319 320 321 322 322 322 323 321 321 321 323 323 322 322 323 323 325 323 323 325 327 327 326 327 326
303 300 301 302 305 309 317 316 317 318 313 314 319 319 318 318 317 318 317 317 318 319 320 320 321 322 323 322 322 322 322 323 323 323 326 324 324 325 324 325 324 327 327 326 327
302 302 301 302 306 307 311 315 317 314 311 311 318 320 319 320 318 319 319 319 320 320 322 320 321 322 322 322 322 322 323 326 326 327 328 324 324 325 324 324 324 327 327 327 326
301 302 301 302 304 307 309 315 313 310 312 317 317 319 320 320 321 320 320 319 320 319 320 321 322 321 322 321 323 322 323 328 331 331 330 326 325 324 324 323 322 322 322 326 327
302 302 302 303 304 306 309 313 312 310 312 312 316 318 320 321 320 320 320 320 320 319 321 321 322 321 322 321 322 323 324 324 328 326 330 327 325 324 323 321 321 322 323 324 323
302 303 303 303 304 307 308 310 309 310 312 312 312 315 319 321 321 320 321 321 321 320 320 321 324 322 322 322 322 322 323 325 326 329 330 323 322 323 322 321 320 320 322 324 325
303 303 304 303 304 307 308 309 309 309 310 312 312 313 315 317 321 320 321 321 321 321 319 320 322 323 322 321 321 322 324 325 326 325 329 329 325 324 323 322 322 322 321 321 323
303 305 304 304 305 306 308 310 309 309 309 312 313 313 315 318 319 323 320 321 320 321 320 320 323 324 322 322 322 323 323 325 327 326 329 334 327 324 323 323 322 322 321 321 321
303 303 304 304 305 307 308 307 308 309 309 311 313 314 315 317 320 321 322 320 319 320 321 320 321 323 323 324 323 322 323 323 325 326 328 330 326 323 323 322 321 321 321 321 321
302 304 305 305 304 307 308 309 308 307 309 309 312 313 314 318 321 320 322 320 319 319 318 320 321 321 325 325 324 323 323 324 325 327 326 327 325 323 322 323 321 321 320 320 321
302 304 305 306 306 308 308 307 308 308 308 309 312 313 314 318 320 321 322 321 319 319 320 322 324 322 321 321 323 323 323 322 322 323 325 324 322 323 322 323 322 322 321 321 320
300 305 305 306 305 307 308 309 308 308 308 309 312 313 314 316 317 318 321 321 320 320 320 320 322 322 322 321 321 323 323 321 321 321 321 322 322 322 321 321 322 320 320 321 320
301 303 305 306 307 308 309 309 309 309 309 308 311 313 315 315 315 318 318 320 321 321 321 321 324 322 322 321 321 321 323 322 321 320 321 321 323 322 321 322 321 320 320 320 320

GFSSW_850_thetae_051.txt.gz
Theta_e
304 304 304 308 310 312 312 313 315 315 317 319 320 320 316 310 312 312 312 314 319 318 313 312 316 316 317 317 317 318 312 313 315 319 320 321 324 325 325 327 327 325 324 324 329
300 300 300 301 302 304 307 308 310 310 310 313 317 318 318 313 312 314 314 317 320 316 312 312 317 316 317 317 317 315 311 314 317 319 318 319 319 326 325 323 325 323 322 329 331
299 299 299 300 300 300 301 302 305 307 308 308 309 315 314 316 312 321 317 315 318 316 312 316 317 316 316 316 316 316 313 316 318 320 320 319 324 327 328 329 325 325 327 331 330
300 299 299 299 299 300 299 300 300 302 305 308 307 307 313 315 318 320 317 319 319 314 312 315 315 315 315 313 316 316 318 318 319 323 321 323 325 326 325 330 329 331 331 329 329
302 300 300 299 300 299 299 299 300 300 302 306 307 307 310 316 316 317 319 316 315 314 311 313 316 316 315 316 319 317 318 320 320 323 323 323 322 325 322 330 329 329 329 329 328
306 302 300 300 300 300 300 300 300 300 301 304 308 308 312 317 315 318 316 316 313 314 311 316 317 318 319 319 317 319 318 318 319 321 324 323 323 323 323 326 330 328 327 328 327
304 307 304 300 300 300 300 300 300 300 300 303 308 310 311 307 313 316 318 319 315 314 312 317 318 318 319 318 320 319 318 317 317 322 322 323 324 324 325 324 331 329 326 324 325
305 306 306 304 301 300 300 300 300 300 300 302 307 311 312 306 312 314 316 318 318 315 316 317 318 318 319 319 318 318 317 316 317 322 324 325 327 324 323 323 330 328 327 325 323
303 305 306 306 305 301 300 300 301 300 301 309 308 311 315 314 313 311 315 316 318 316 316 317 318 317 318 316 316 317 317 317 318 324 325 325 327 323 325 326 329 329 328 324 324
303 302 305 306 305 303 300 300 301 301 308 317 314 314 312 311 314 316 315 315 318 316 316 317 317 315 314 315 317 318 318 317 322 322 324 325 325 323 323 327 326 328 328 326 325
303 303 304 306 306 304 302 300 311 317 319 319 316 306 308 314 317 315 314 315 318 317 316 317 315 316 315 316 318 318 318 316 318 321 322 323 326 322 323 325 325 326 328 326 326
301 303 301 305 306 305 304 301 308 314 315 316 316 319 315 314 318 317 313 315 319 319 316 316 317 317 319 320 321 321 318 317 323 324 322 322 325 323 325 325 325 326 325 324 325
301 299 301 303 305 304 304 301 302 311 315 314 312 312 310 311 315 316 315 316 318 318 318 318 319 319 320 321 321 319 318 318 322 322 320 320 325 326 324 327 326 326 326 325 325
303 302 298 301 303 308 310 313 312 314 316 311 310 312 311 311 315 315 317 315 317 318 318 318 319 320 321 322 320 317 318 321 322 321 319 319 319 326 327 328 327 326 325 325 327
302 303 299 300 305 308 312 316 317 316 309 309 312 313 313 312 315 314 314 317 316 317 317 319 320 320 321 322 320 318 321 322 322 320 319 320 320 320 327 327 326 325 326 324 327
302 302 300 301 303 304 307 314 317 317 317 312 317 318 315 312 314 316 314 315 317 317 317 318 320 319 319 321 321 320 322 322 322 320 321 321 321 323 323 322 325 325 324 325 325
302 302 303 301 302 305 308 311 316 316 310 309 319 318 318 317 314 315 316 315 315 318 318 318 319 319 319 320 321 319 320 321 325 322 322 324 324 321 321 322 324 324 325 325 326
302 301 302 302 301 304 307 312 315 308 308 313 313 319 319 318 318 317 317 317 315 316 317 318 319 319 319 320 320 320 319 322 328 325 327 325 325 322 321 322 322 323 325 325 325
303 302 302 303 301 303 307 312 308 308 309 308 310 313 319 320 320 318 317 317 318 316 318 318 319 319 319 320 319 320 320 320 327 326 327 325 324 322 322 319 320 321 322 325 325
303 303 302 303 302 304 308 310 310 308 308 309 310 312 314 317 320 319 319 319 319 317 317 319 320 319 319 319 319 319 320 321 325 328 331 325 325 322 321 320 318 319 320 323 325
304 303 303 303 302 304 306 307 307 309 309 308 309 310 312 312 314 316 320 319 318 318 318 317 318 319 320 321 321 320 320 321 323 324 323 323 322 321 321 321 318 316 321 323 323
304 304 303 303 304 304 305 306 307 306 308 308 310 310 311 313 313 314 318 321 320 318 319 318 320 318 318 320 320 320 320 321 323 325 325 318 322 321 318 319 319 319 320 321 324
304 303 303 303 304 305 305 306 307 307 308 308 308 310 311 312 313 314 320 320 321 318 319 318 318 318 319 319 320 320 320 321 323 324 324 322 324 322 321 320 320 320 321 321 321
302 303 304 305 304 304 305 305 306 307 307 307 309 308 308 311 312 313 319 321 320 318 319 318 318 318 318 320 323 323 322 321 322 321 323 322 324 322 322 320 318 319 320 320 321
301 303 304 306 305 305 304 305 306 307 307 306 307 308 308 310 312 313 318 319 319 320 318 318 318 318 319 319 321 323 323 321 322 323 323 323 323 322 319 318 320 321 321 321 321
300 304 304 304 305 305 305 305 305 306 306 307 307 308 308 308 311 313 317 318 319 320 318 318 319 318 319 320 321 320 320 321 321 322 323 322 322 321 320 321 321 321 321 320 320
302 303 304 304 305 305 305 305 306 306 306 307 307 307 308 309 310 316 318 319 319 319 320 320 318 319 319 319 319 318 319 320 321 321 319 319 318 318 319 318 319 320 320 320 320

GFSSW_850_thetae_054.txt.gz
Theta_e
300 300 300 301 301 302 303 304 305 307 308 309 311 313 315 316 318 317 315 315 314 316 315 311 314 314 316 316 317 317 312 311 312 316 318 322 325 324 325 327 326 324 324 325 323
299 299 300 299 299 300 300 300 301 302 304 305 307 307 309 313 315 317 318 314 317 320 315 312 314 316 317 316 316 313 309 312 313 315 320 326 325 326 327 326 325 323 323 327 331
301 300 300 300 300 299 300 299 300 300 301 302 304 305 305 308 313 318 319 316 317 318 315 312 316 316 315 315 315 313 312 314 314 316 323 324 325 325 324 324 327 328 327 328 329
303 300 300 300 299 300 300 299 300 300 300 301 302 304 305 306 313 320 317 317 317 318 315 312 315 315 313 314 315 314 314 315 315 319 323 323 325 327 327 329 330 329 328 329 329
306 304 302 300 300 300 300 300 300 300 300 300 302 305 305 311 311 314 314 318 317 317 314 311 315 315 313 314 316 316 316 319 318 322 322 322 324 324 329 330 328 328 327 327 328
306 304 302 304 301 300 300 300 300 300 299 300 302 305 308 315 310 315 318 318 316 315 314 312 313 316 316 317 317 318 318 317 317 323 323 322 322 323 322 330 328 328 327 327 327
304 304 304 303 303 301 300 300 300 300 299 299 302 305 311 305 307 315 318 318 319 319 313 312 313 316 317 317 318 318 316 315 316 321 321 322 324 323 328 328 329 327 326 325 325
302 303 303 305 303 301 301 300 300 300 299 299 302 307 309 305 305 307 307 315 317 319 315 312 316 316 318 318 317 317 316 316 316 322 323 322 323 322 326 329 329 328 326 324 324
304 302 302 302 305 302 300 301 301 300 300 300 310 312 310 309 312 311 310 313 317 318 316 316 316 316 317 314 314 315 315 316 317 318 323 322 323 323 323 323 329 328 326 323 320
305 304 302 302 303 304 302 300 301 301 300 304 316 313 310 308 314 316 315 314 316 317 318 316 316 314 312 312 315 315 316 315 314 322 323 325 323 321 325 329 328 328 326 322 322
299 301 302 301 302 304 304 301 305 315 313 317 317 310 312 312 312 316 316 314 315 317 313 316 315 314 313 313 315 316 316 316 316 318 324 323 322 321 322 325 328 327 325 322 322
302 302 299 300 302 304 304 303 307 309 308 309 313 315 313 315 316 315 316 315 315 317 314 315 316 315 315 315 317 317 318 318 316 321 320 321 323 322 321 323 324 326 326 325 324
305 304 302 300 299 302 305 304 310 312 311 311 310 313 312 311 315 311 315 314 317 317 316 315 317 316 316 316 318 318 319 317 317 320 320 321 322 326 324 324 324 326 327 326 322
304 304 303 302 298 303 307 311 310 313 313 312 312 309 311 311 313 307 312 313 316 318 317 316 316 317 318 318 318 319 318 317 319 318 318 316 318 323 324 323 325 326 325 324 324
303 302 303 303 298 305 309 311 312 313 299 306 311 310 311 310 312 313 309 315 315 316 316 318 318 318 318 318 318 319 319 318 321 320 319 319 318 317 324 325 325 325 325 323 323
303 302 302 303 299 299 302 307 315 316 313 312 314 311 311 310 313 314 313 316 316 314 315 316 317 316 317 318 318 319 320 319 318 318 320 320 318 319 326 326 326 324 325 324 324
304 303 302 303 301 301 303 310 314 311 308 308 318 316 312 311 310 313 313 314 314 316 315 316 316 316 317 318 318 319 317 319 321 321 321 320 323 320 322 324 326 324 324 324 325
304 304 302 302 303 301 303 311 313 309 307 309 310 317 317 313 312 313 314 312 312 314 315 317 319 317 317 317 318 318 318 319 324 324 324 323 324 320 320 319 325 325 324 324 324
304 304 303 302 303 301 303 311 310 308 308 308 308 309 318 318 318 314 314 314 314 314 315 317 318 317 317 317 317 319 319 318 323 324 323 323 322 319 320 320 318 323 324 323 324
304 304 303 303 302 301 304 308 311 309 309 309 308 310 310 312 316 317 317 316 316 315 314 316 318 317 317 317 316 318 319 321 322 326 326 325 325 321 320 318 316 316 321 323 324
304 304 304 303 302 303 304 306 307 308 307 309 309 309 310 311 312 312 317 318 316 316 316 315 316 318 318 318 318 318 318 320 321 322 322 322 321 318 318 319 316 314 319 322 324
305 304 304 303 303 302 303 304 306 307 307 308 308 308 310 310 312 312 314 315 318 317 317 315 316 317 317 317 317 317 319 319 322 323 321 317 321 318 317 317 318 318 320 323 324
304 302 303 303 303 303 302 304 305 306 307 306 308 308 307 309 309 312 313 314 317 320 318 316 316 317 318 317 318 317 318 319 321 320 323 322 322 319 317 318 321 320 319 320 323
301 303 303 303 303 303 303 303 304 305 305 306 307 307 308 308 308 310 311 313 316 319 319 318 317 317 318 318 318 321 319 319 320 319 321 321 322 320 320 320 320 319 318 320 323
300 302 304 305 304 303 303 304 304 304 305 306 307 306 307 308 307 307 311 316 317 318 318 319 318 318 317 318 318 318 320 321 319 319 321 321 322 321 319 318 318 320 320 320 320
300 302 303 303 304 304 303 304 304 305 306 306 306 306 307 307 307 307 308 314 317 319 319 318 320 316 318 318 319 318 317 320 320 320 321 320 321 319 320 320 317 319 320 320 320
303 303 304 304 304 306 305 303 304 304 305 305 306 306 306 306 306 308 314 313 317 318 317 318 319 318 319 317 318 318 318 318 318 319 320 321 320 319 319 318 318 319 321 320 320

GFSSW_850_thetae_057.txt.gz
Theta_e
300 300 299 299 300 299 300 300 300 300 301 302 303 305 306 309 312 313 315 317 315 312 316 313 312 312 312 315 317 316 310 310 312 313 314 323 323 324 325 326 326 324 324 324 324
301 301 300 300 299 300 299 300 299 300 300 300 301 302 303 305 308 311 314 317 314 313 318 313 313 316 316 316 316 311 309 312 311 312 314 325 324 324 325 326 325 323 323 325 329
302 302 301 300 300 300 299 299 299 299 300 300 301 301 302 303 307 313 318 314 317 319 317 313 312 316 315 315 314 312 311 312 313 314 314 325 325 326 325 323 325 327 326 328 328
300 300 301 301 302 300 300 299 299 299 299 300 300 301 302 304 307 320 316 317 316 317 317 314 312 315 311 312 313 313 312 313 314 317 321 322 324 326 325 327 328 327 327 327 328
303 304 301 303 303 301 301 300 300 299 299 299 299 300 303 307 306 312 314 312 317 316 317 314 312 315 313 313 315 313 315 317 317 319 322 323 323 326 330 329 328 327 328 328 328
302 306 306 301 303 302 301 301 300 300 299 299 299 300 306 312 307 308 311 311 317 317 316 314 311 314 315 315 316 316 317 316 317 321 322 321 322 322 325 329 328 327 326 327 327
302 303 302 304 301 302 301 300 300 301 300 299 299 299 307 303 305 305 314 317 318 316 316 314 313 316 316 315 317 317 316 314 315 321 320 321 322 322 323 328 328 327 326 325 325
301 303 300 301 301 301 301 301 300 300 301 300 299 301 307 304 305 305 307 316 318 319 318 317 313 313 315 317 315 315 315 315 316 320 322 322 322 320 326 329 328 327 326 325 324
300 302 304 302 300 300 301 301 300 300 301 300 300 307 310 307 308 313 312 307 316 315 316 318 314 315 315 313 313 313 312 315 315 317 320 321 322 321 328 329 328 328 326 324 322
303 301 301 300 300 299 300 301 300 302 302 301 310 309 306 308 309 314 315 315 309 314 316 317 316 312 310 311 313 312 315 315 314 316 322 323 322 320 323 324 326 328 326 324 320
304 304 304 302 298 299 301 301 304 312 311 308 311 308 309 311 314 314 316 316 312 315 314 314 313 314 314 312 313 315 315 315 314 315 320 321 320 319 323 327 327 327 326 324 320
303 304 305 304 302 299 299 303 305 306 308 307 308 311 311 312 314 312 315 314 314 313 312 313 314 314 314 313 314 314 315 316 316 316 320 319 319 320 319 322 327 327 327 326 322
303 303 304 305 303 301 299 304 308 307 308 311 304 304 307 308 313 311 312 314 313 314 313 314 315 315 315 315 315 315 316 316 317 317 319 320 318 323 321 322 324 326 327 327 324
303 304 303 304 303 300 304 308 308 307 309 308 311 308 309 312 314 308 309 313 315 313 315 315 315 315 315 315 315 316 316 317 316 316 318 316 317 315 322 322 323 324 325 327 326
303 304 303 303 303 302 304 306 305 310 301 304 310 309 310 310 309 311 308 311 312 315 316 317 316 316 316 316 316 317 318 318 317 318 317 317 316 315 322 324 321 322 325 325 327
303 304 303 302 302 303 301 301 308 314 310 308 311 311 312 310 310 312 312 314 314 314 314 315 315 315 315 316 316 317 318 318 317 316 319 318 317 317 323 323 321 321 324 325 326
303 304 304 303 302 303 301 304 315 312 307 307 313 311 311 310 309 312 311 313 314 314 313 313 313 314 315 316 316 316 316 318 318 319 320 319 320 317 317 320 321 321 324 325 325
303 304 304 303 302 302 302 308 313 309 307 308 308 312 312 310 311 310 312 310 312 314 312 313 315 314 315 316 317 317 316 318 321 321 320 321 323 320 317 318 320 323 323 324 325
303 304 304 304 302 302 301 308 311 309 307 308 307 310 314 316 313 312 312 312 312 312 315 315 316 316 315 316 316 317 317 317 320 321 323 321 320 319 317 317 319 323 324 323 324
303 304 303 304 303 302 302 306 310 310 308 309 307 308 310 311 313 313 314 314 314 313 313 314 317 317 316 316 315 317 317 320 320 325 325 321 323 321 320 318 316 317 322 324 323
303 304 304 304 303 302 302 303 306 306 307 308 309 309 309 310 311 311 314 315 316 315 313 313 315 315 316 316 316 316 317 319 320 319 320 321 319 316 319 318 316 313 316 322 323
303 304 303 304 303 303 302 302 304 305 306 307 308 308 308 309 310 311 313 312 315 317 316 314 315 316 316 315 316 316 317 318 319 321 318 315 319 316 316 315 316 315 316 319 321
303 301 303 304 304 302 302 302 303 305 305 306 306 307 307 307 307 308 311 311 314 316 319 318 316 317 317 315 315 316 315 316 318 317 320 320 321 317 317 315 317 317 320 320 321
300 302 301 303 303 303 303 303 303 304 305 305 306 306 307 307 307 307 308 309 309 317 318 318 317 316 318 317 316 318 317 316 318 318 318 320 319 319 318 319 317 320 321 321 319
300 301 303 304 303 303 303 303 303 304 304 305 305 305 306 307 307 307 307 309 310 317 318 318 319 319 316 316 317 318 318 316 317 318 319 318 319 319 318 318 318 321 320 320 319
299 301 303 302 304 303 304 304 303 303 304 304 304 305 305 305 306 306 306 307 309 315 317 317 318 317 316 317 316 317 317 317 317 317 318 318 318 317 319 320 318 320 321 320 320
301 301 303 304 304 304 303 303 304 304 304 303 304 304 304 305 305 306 306 306 310 312 315 316 316 317 318 317 316 317 317 317 317 318 319 320 318 318 318 316 317 319 319 320 320

GFSSW_850_thetae_060.txt.gz
Theta_e
300 300 301 300 300 300 299 299 299 299 299 299 300 300 301 302 305 307 309 311 315 314 317 313 312 310 310 312 316 314 310 310 313 311 313 317 320 323 324 326 326 325 324 323 322
305 302 300 300 300 300 300 299 299 299 299 299 300 300 301 302 304 308 310 312 317 314 316 313 313 313 314 315 315 311 309 311 310 310 312 313 320 322 324 325 325 324 323 323 325
304 304 304 304 302 300 300 300 300 300 299 299 299 300 300 301 304 311 317 316 314 313 317 313 313 316 315 314 313 310 310 310 312 314 313 312 324 325 324 322 323 324 326 326 328
303 303 303 305 306 305 300 300 300 300 300 299 299 299 300 301 307 318 315 317 319 319 317 314 312 315 310 310 312 312 311 312 314 315 316 321 323 324 322 321 326 327 327 327 327
304 303 303 304 304 307 305 300 300 300 301 300 299 299 300 305 304 309 316 314 312 317 317 316 311 314 311 310 312 310 313 315 317 316 318 322 322 323 327 327 327 327 328 328 327
303 304 303 303 303 305 306 305 300 300 300 301 300 299 301 308 304 306 307 307 308 314 316 316 312 312 313 313 313 315 315 315 315 316 320 321 320 323 321 327 328 327 327 329 325
300 301 301 302 302 300 304 307 302 300 300 300 301 300 301 301 304 303 306 314 314 316 316 315 314 315 314 314 316 316 315 312 313 317 319 321 320 320 321 326 328 328 326 325 323
300 300 299 300 303 301 299 301 309 303 300 300 301 301 302 302 304 304 304 309 316 316 316 317 315 312 313 315 314 315 313 314 313 317 319 321 320 317 322 326 328 327 326 324 322
300 302 302 301 300 298 298 299 301 308 301 300 301 301 304 303 305 311 312 306 311 317 319 312 314 313 314 313 313 311 312 313 314 315 319 320 319 319 324 327 327 327 326 325 322
303 304 304 304 304 304 299 298 301 303 306 302 308 306 302 303 308 312 314 315 309 317 313 315 315 311 309 311 315 313 313 312 313 315 317 319 320 318 325 327 328 327 327 326 322
302 303 303 304 305 304 303 298 304 308 306 309 310 303 303 310 311 315 315 315 311 312 313 313 312 313 313 312 311 312 314 314 312 312 316 315 317 317 319 325 323 324 326 326 324
302 302 303 303 304 305 303 301 304 305 307 306 306 308 306 311 314 310 311 314 312 312 312 312 314 313 313 312 313 313 314 313 313 314 315 315 317 316 319 321 323 323 324 326 324
302 302 302 303 304 304 302 301 306 304 308 307 306 305 305 308 311 308 310 313 312 312 313 314 314 313 313 313 314 313 313 314 315 314 314 318 318 318 319 319 322 326 326 326 326
301 301 303 304 303 302 304 306 305 303 308 307 310 308 306 307 311 306 309 312 312 313 312 313 314 314 313 314 313 314 313 314 315 315 316 316 318 314 316 320 321 322 325 326 326
300 301 303 304 303 303 303 303 301 307 303 303 310 308 309 309 308 312 309 311 313 313 314 315 314 314 315 314 313 314 314 315 316 314 316 316 315 314 321 320 319 319 322 323 324
300 301 303 304 303 303 302 302 303 312 311 306 310 311 313 312 309 311 310 310 312 314 314 313 314 313 315 314 313 316 317 316 315 314 318 317 316 315 316 319 319 319 321 322 324
299 300 303 303 304 303 302 302 309 312 307 306 308 311 311 311 310 311 311 312 311 312 313 313 314 313 315 315 314 315 315 317 318 319 320 316 317 318 316 315 318 318 320 322 322
299 300 302 304 303 303 302 305 309 310 310 308 308 307 310 310 309 311 309 310 311 311 311 313 313 312 312 314 314 315 316 317 321 320 318 319 322 320 317 317 318 318 320 321 323
299 300 302 303 303 303 302 304 308 310 308 309 308 309 311 312 311 311 310 308 310 312 314 313 312 313 313 314 315 315 316 315 317 319 321 319 318 317 316 316 316 319 321 322 323
299 300 301 303 304 303 302 302 307 309 307 308 309 309 310 310 312 312 311 313 311 313 312 314 316 316 315 314 314 316 315 319 317 323 324 319 321 318 317 317 315 317 321 323 323
300 301 301 303 303 302 304 302 303 303 306 307 308 309 308 309 310 311 315 312 314 314 312 313 313 315 315 315 314 315 315 317 317 317 319 320 318 315 317 317 317 314 317 321 323
300 301 301 303 303 300 304 303 301 302 304 306 308 308 308 307 307 311 313 312 309 314 313 313 313 315 315 314 314 314 315 316 317 318 317 316 318 315 314 315 314 315 316 316 318
300 301 301 303 304 303 304 303 302 302 305 305 306 307 306 306 305 308 309 309 307 310 319 318 314 315 315 314 314 314 314 315 316 315 317 320 319 316 315 316 316 316 319 319 319
299 301 301 302 302 303 303 303 303 302 302 305 305 305 306 306 306 307 307 308 307 308 312 317 318 315 317 316 315 316 315 314 316 316 316 316 318 317 318 317 317 317 319 320 321
299 299 302 303 303 303 303 303 303 303 303 304 304 305 306 306 305 306 307 307 308 309 317 316 318 318 318 317 317 316 317 315 315 315 316 316 316 317 316 316 316 321 321 320 321
299 300 301 302 303 304 303 303 304 303 303 304 304 304 304 305 305 305 304 305 306 309 311 315 316 315 316 317 317 317 314 314 314 315 315 316 316 314 316 317 317 318 319 319 320
299 300 303 303 304 303 304 304 303 303 302 303 303 303 303 304 304 304 304 305 306 307 310 313 313 314 318 316 316 316 316 315 316 315 315 317 316 315 316 315 316 319 320 320 321

GFSSW_850_thetae_063.txt.gz
Theta_e
305 304 303 302 302 301 300 300 300 300 300 300 300 300 301 301 303 303 306 309 310 315 315 315 314 311 312 312 314 314 316 317 316 315 317 314 319 319 322 325 325 326 324 323 322
304 304 304 305 307 307 306 302 300 300 300 300 300 300 301 301 302 305 309 310 309 313 314 314 311 310 310 312 314 315 316 316 315 314 316 315 315 317 323 325 326 325 324 323 324
304 303 304 304 305 306 308 308 304 300 300 300 300 300 300 301 302 309 315 317 311 315 315 313 312 311 314 314 313 312 316 313 314 314 313 313 318 321 324 325 325 324 324 325 326
304 303 303 303 304 304 304 306 307 306 301 300 300 300 300 301 305 317 316 314 315 314 314 313 314 314 314 314 312 314 313 313 314 314 314 315 320 325 325 324 324 324 325 325 327
301 301 300 300 301 302 302 301 305 308 305 301 300 300 300 301 302 304 314 315 317 315 315 312 313 313 314 311 311 312 314 313 314 315 315 318 322 323 324 323 326 326 325 327 327
302 300 299 299 298 299 301 301 300 304 307 305 301 300 301 305 304 304 305 307 310 311 317 315 312 312 313 312 314 314 313 315 315 315 317 321 320 321 322 324 327 326 325 326 324
303 301 300 300 299 298 298 298 299 299 301 308 303 301 301 301 302 302 303 304 311 309 313 315 313 312 313 315 314 315 317 316 316 315 318 320 322 323 322 325 327 328 326 324 324
298 299 301 302 302 302 302 301 299 299 300 305 305 301 302 302 302 303 303 304 311 314 314 315 313 312 312 314 314 316 315 317 314 318 319 320 320 319 320 327 326 327 326 324 323
300 302 302 303 303 303 302 302 301 299 302 304 305 301 303 302 302 306 307 304 304 314 314 314 315 312 313 314 316 314 317 315 315 316 320 321 321 320 323 327 327 327 325 325 322
302 301 302 302 302 303 303 303 300 305 308 304 306 306 304 302 306 312 313 314 307 311 315 313 312 314 313 314 315 317 316 315 316 317 318 320 321 320 323 327 327 327 326 324 323
301 302 302 302 302 303 303 304 301 305 304 308 309 305 305 306 308 313 315 314 311 309 316 313 316 315 313 315 314 314 314 315 314 314 315 317 318 318 318 325 326 327 326 324 325
300 301 301 301 302 303 302 302 304 303 304 304 304 306 307 306 310 311 313 312 311 311 313 314 317 316 313 314 315 315 316 316 316 315 316 319 319 320 319 321 324 326 325 324 325
299 300 301 302 303 303 303 301 304 301 305 306 306 306 305 307 307 307 307 313 312 313 313 316 315 315 314 314 315 315 316 316 316 315 316 318 320 319 320 320 322 323 323 323 324
299 299 300 302 302 303 304 304 303 302 308 307 308 308 306 306 309 306 307 309 312 313 313 313 314 314 315 315 315 316 315 315 315 315 320 317 321 319 319 319 321 322 325 325 324
298 298 300 301 303 303 303 302 303 305 308 306 310 308 308 307 307 311 307 309 312 313 314 315 315 315 314 315 314 315 315 316 315 316 317 318 320 319 317 321 321 322 323 325 325
298 298 299 301 303 303 303 302 301 310 309 309 310 311 310 310 310 311 309 309 310 313 314 314 314 315 315 314 314 315 316 317 317 318 321 320 320 321 319 321 321 320 320 323 323
297 297 298 300 302 303 303 302 307 308 308 307 308 308 309 310 312 311 310 310 311 315 316 315 314 314 314 315 314 316 318 320 322 323 323 318 319 320 320 319 319 321 320 320 322
297 298 299 300 302 304 303 304 307 306 310 309 308 308 309 311 311 311 310 309 310 312 314 316 315 315 314 316 317 316 317 322 323 323 322 318 322 321 321 319 318 318 318 318 320
297 297 298 300 301 303 302 303 305 305 308 308 309 309 311 310 310 311 310 310 309 312 314 314 314 312 313 314 316 317 318 318 320 320 323 322 321 319 320 319 318 318 320 320 322
297 297 298 300 301 302 302 304 302 307 306 307 309 309 309 309 311 312 312 310 311 312 313 314 317 315 315 314 314 317 317 319 319 323 324 322 322 321 321 320 319 320 319 321 321
297 299 299 300 301 302 304 304 302 302 302 306 308 308 308 308 308 312 313 309 308 313 313 314 315 315 316 315 316 316 318 318 319 320 323 322 322 321 322 321 320 321 318 317 320
296 299 299 301 302 301 304 303 302 302 303 305 306 308 308 307 307 309 311 310 308 309 315 314 315 315 316 314 315 315 317 319 321 321 320 321 321 316 320 319 318 319 318 318 316
298 298 299 301 302 302 304 303 302 302 304 305 306 306 307 307 307 308 308 308 307 309 310 319 315 316 316 316 314 315 316 317 317 317 321 323 321 317 317 318 318 317 319 319 319
298 300 299 301 301 302 303 303 303 302 302 302 305 305 306 306 306 307 306 306 307 309 312 317 319 316 316 318 318 317 315 316 318 320 319 320 319 319 319 320 321 319 319 319 319
298 299 300 301 300 302 303 303 303 303 302 303 303 305 305 305 305 305 306 306 306 309 312 317 318 318 318 317 317 317 317 317 316 317 318 319 318 318 318 319 319 319 318 318 319
298 299 299 300 302 301 303 303 303 303 304 303 304 305 305 305 305 305 305 305 306 307 308 309 317 317 317 316 316 317 317 316 315 316 316 317 318 317 317 316 316 317 317 318 319
297 298 299 300 301 303 305 303 303 303 303 303 304 304 304 304 303 304 304 304 305 305 307 309 315 315 316 315 315 318 316 315 316 316 316 318 318 317 318 317 317 318 318 318 320

GFSSW_850_thetae_066.txt.gz
Theta_e
305 305 305 305 305 306 307 307 308 305 301 300 300 300 300 301 302 302 306 308 308 309 312 314 314 314 314 315 316 316 319 319 319 319 320 319 320 320 322 322 327 328 328 329 325
304 304 305 305 306 306 306 306 306 308 307 303 301 301 301 301 301 303 306 308 309 309 313 315 315 313 314 314 315 317 319 319 319 319 319 320 320 320 322 323 325 327 328 327 324
302 303 302 302 303 302 305 305 305 305 307 308 304 301 301 300 305 309 314 315 315 309 315 316 315 313 313 314 315 316 318 318 318 318 318 319 320 321 322 322 323 325 328 328 328
300 300 299 298 298 299 299 301 302 303 303 307 308 303 301 301 307 314 316 315 314 312 313 314 314 313 315 316 315 316 317 317 317 317 317 319 320 322 323 324 327 325 328 329 326
303 302 298 298 298 298 298 298 298 299 301 302 306 306 302 306 304 304 305 310 314 314 314 314 315 315 317 316 316 317 316 317 317 317 317 318 320 321 322 323 328 329 329 330 327
304 303 299 298 298 299 299 299 299 299 299 299 301 306 306 306 303 303 303 304 312 315 314 314 315 315 315 316 316 316 316 316 316 317 318 320 320 322 321 323 329 330 329 328 326
298 297 298 300 301 301 300 299 299 300 300 299 299 303 308 306 305 303 302 302 304 311 316 316 315 314 314 316 315 316 317 318 318 318 319 319 320 321 321 327 328 328 329 328 327
303 301 301 300 301 300 300 299 299 300 301 300 301 304 309 307 306 308 306 303 303 308 311 313 315 315 315 315 317 317 318 318 319 318 319 321 319 320 323 327 328 328 329 328 328
303 302 301 301 301 301 300 299 300 301 301 303 304 307 308 306 304 307 309 310 306 311 312 313 314 316 316 317 318 319 319 319 319 318 320 323 321 324 325 326 326 328 329 328 328
302 301 301 301 301 300 301 300 301 303 308 306 309 307 307 309 306 309 312 314 309 307 311 315 316 318 318 318 318 319 320 319 319 319 319 321 323 322 322 325 327 328 329 329 328
300 300 301 301 300 301 301 304 305 307 304 305 308 310 310 309 307 309 312 314 312 308 315 316 318 319 318 318 318 318 318 319 318 318 317 318 320 322 322 323 327 327 329 329 328
300 299 300 300 300 302 304 305 303 302 304 305 305 305 306 308 309 311 310 313 314 312 314 319 320 318 318 318 317 317 318 318 318 318 318 317 321 322 322 323 324 327 328 329 328
299 298 299 299 300 303 304 304 304 303 306 306 307 307 307 306 307 309 311 310 313 316 312 318 317 318 318 317 316 317 317 318 318 318 318 319 321 322 322 323 324 325 326 328 328
297 297 298 298 303 303 305 304 304 302 309 308 309 309 308 307 307 306 310 309 309 313 315 314 314 316 318 318 317 317 317 317 318 318 317 321 322 322 322 322 323 324 326 326 327
297 298 298 298 302 303 304 303 303 305 307 307 309 309 308 307 307 308 309 310 309 310 315 316 313 314 316 317 317 318 317 318 318 319 318 318 322 321 321 321 321 322 324 327 327
297 297 297 299 301 303 303 303 304 310 306 309 310 312 310 309 308 312 308 308 310 312 312 315 315 314 315 316 317 317 317 317 318 318 321 320 322 322 321 322 321 322 323 325 327
296 297 297 300 302 302 302 305 309 307 307 309 310 310 310 310 311 311 310 309 310 311 312 313 315 316 316 316 317 317 318 321 321 322 321 322 323 323 322 321 322 323 323 324 326
296 297 298 300 301 301 303 305 307 304 306 309 310 310 309 312 312 312 313 310 310 311 311 312 316 316 317 317 317 317 318 322 322 324 324 322 323 322 322 322 322 322 322 322 325
295 298 299 300 299 301 302 306 303 304 307 310 309 309 311 311 311 312 312 312 310 311 313 314 315 316 316 317 318 318 320 320 322 324 324 324 322 322 321 322 322 322 323 324 324
297 299 299 300 299 301 304 304 304 305 308 308 308 309 310 310 311 313 312 312 312 310 312 314 316 316 316 316 318 319 319 320 321 324 325 324 323 322 321 322 321 324 323 324 325
297 299 300 299 299 302 305 304 305 303 305 307 309 310 309 309 308 314 314 312 310 309 311 314 316 318 316 317 318 319 320 320 321 321 324 325 324 322 322 322 322 323 322 323 325
297 299 299 300 302 302 303 303 304 304 304 305 307 308 310 309 309 311 312 309 308 310 313 314 317 318 317 317 317 318 319 320 322 323 322 324 324 321 322 323 322 322 321 322 320
297 298 298 301 303 303 303 304 304 304 305 305 306 307 308 308 308 308 310 308 307 308 313 317 316 316 316 317 317 318 318 318 319 320 322 326 322 321 320 321 322 322 321 322 322
297 300 299 300 301 303 303 303 304 303 305 304 306 306 307 308 307 307 307 306 306 309 309 315 318 316 315 315 317 318 317 318 319 321 320 320 320 320 320 320 320 321 321 322 322
297 299 299 302 301 302 302 303 305 304 304 304 305 305 306 307 307 307 307 306 307 308 309 313 320 320 319 319 318 319 319 319 318 318 320 320 320 319 319 320 320 319 320 321 320
297 298 299 300 301 302 300 302 303 304 304 305 305 305 306 307 307 307 307 307 307 308 309 310 317 315 316 316 317 319 319 319 319 319 319 319 320 319 319 319 319 319 320 320 321
296 296 298 299 301 302 303 303 304 305 304 304 305 305 306 307 306 306 305 306 307 307 307 309 312 314 314 314 313 317 319 319 318 318 319 320 320 319 319 320 320 320 319 319 320

GFSSW_850_thetae_069.txt.gz
Theta_e
304 304 305 305 305 305 306 306 306 307 307 308 308 305 301 301 302 303 309 310 312 310 309 317 318 317 316 317 318 318 320 321 321 322 321 322 321 320 321 322 321 325 327 328 332
302 301 302 302 302 302 302 301 304 304 306 306 308 308 306 302 302 307 310 309 308 306 309 317 318 317 316 317 318 319 320 320 322 322 321 321 321 321 321 321 322 323 327 329 330
300 299 299 299 299 299 299 298 299 299 301 302 304 307 309 305 308 315 314 315 315 314 308 316 318 317 317 317 317 319 320 320 321 320 320 321 321 320 322 322 322 324 324 329 330
302 299 298 298 298 298 298 298 299 299 299 299 301 304 307 308 310 309 306 307 313 314 312 317 318 318 319 318 317 318 319 319 319 319 319 320 320 321 321 321 322 325 326 328 331
303 301 300 298 297 298 298 298 298 299 299 300 300 300 302 311 311 309 305 309 310 313 316 316 318 318 319 318 318 319 319 318 318 318 318 319 320 320 320 320 322 326 330 329 330
302 298 297 297 298 298 298 298 298 298 299 299 300 299 306 312 312 308 307 306 311 318 317 316 317 318 318 318 319 318 319 319 317 318 318 319 320 320 320 320 322 326 329 330 331
303 303 302 300 299 299 298 298 298 298 299 299 300 300 306 309 311 310 307 306 305 310 316 316 317 317 318 319 317 318 318 319 320 318 319 318 320 321 320 320 323 326 329 330 330
301 302 303 302 300 299 299 298 298 299 299 300 301 307 308 307 309 309 309 308 308 307 308 314 317 318 317 317 318 319 318 319 320 320 320 319 321 321 321 323 325 328 328 329 330
301 301 302 301 299 299 298 297 299 300 300 301 308 310 310 309 309 308 309 309 311 310 308 311 314 316 318 319 319 320 320 321 321 321 320 320 321 323 324 324 325 327 328 330 330
301 301 300 301 299 299 298 299 305 306 309 310 310 311 311 309 310 309 313 314 314 311 309 312 314 318 318 320 321 321 321 322 322 323 320 320 323 322 323 325 325 326 328 330 330
300 301 300 300 298 299 301 307 307 311 308 306 308 311 309 309 311 311 311 314 315 313 313 311 316 318 319 319 320 320 321 322 323 322 321 321 321 322 322 323 324 326 327 330 330
299 300 300 299 298 299 306 307 306 305 306 306 307 307 307 306 307 310 313 315 314 316 314 311 315 316 318 319 320 320 320 321 322 321 320 320 320 320 322 323 323 325 327 328 331
300 299 298 297 298 304 306 306 306 307 308 307 308 309 309 308 308 308 312 315 315 315 317 314 314 316 318 319 320 321 321 322 321 321 321 320 321 321 322 322 322 323 324 326 329
298 298 297 296 301 305 305 305 306 307 311 312 311 311 311 309 310 308 310 313 312 314 315 317 315 317 318 319 321 321 320 320 320 321 322 322 321 323 323 324 323 323 324 324 328
299 298 298 298 302 303 305 305 306 308 309 310 311 311 310 310 309 310 309 312 314 312 313 317 318 315 317 319 320 321 320 320 320 321 322 321 321 322 323 322 323 322 323 325 326
298 297 297 299 302 303 304 306 307 314 309 310 311 312 313 312 311 311 309 309 311 313 313 312 313 316 316 316 318 319 320 320 320 321 323 322 323 323 324 323 322 322 322 325 326
296 297 297 300 303 305 304 306 311 309 307 308 311 311 311 311 313 311 310 311 314 315 316 314 315 316 316 315 317 317 319 322 323 324 324 323 323 323 323 322 322 323 323 325 326
297 296 298 300 301 302 304 308 308 305 307 308 309 309 308 310 314 313 313 311 311 311 314 318 318 316 316 317 317 319 320 324 326 327 325 324 324 325 324 323 323 323 323 323 325
296 297 298 300 301 302 304 309 306 306 306 307 309 307 308 312 312 314 314 314 312 311 314 316 315 315 317 317 316 319 320 320 322 325 328 325 325 324 324 322 322 322 323 325 325
297 299 300 301 302 303 304 305 306 306 308 308 306 306 309 311 313 315 315 313 312 312 312 314 316 316 317 317 317 319 320 321 321 326 328 327 327 326 323 322 322 324 325 325 326
297 299 300 301 302 303 306 305 305 304 305 307 307 308 309 310 311 314 316 314 311 311 311 312 314 317 317 319 319 317 320 321 322 323 325 327 328 325 324 323 323 324 323 324 327
297 301 301 302 302 303 304 304 304 305 305 305 306 307 309 310 310 311 316 311 308 308 313 312 314 317 319 319 318 319 320 322 324 324 325 327 328 322 324 324 323 323 323 323 323
297 299 300 301 304 305 304 304 304 304 305 306 306 306 308 308 310 310 313 311 308 308 311 312 315 315 317 320 318 320 320 321 322 323 327 328 325 324 322 322 322 323 322 323 323
298 301 299 301 302 304 304 305 304 304 305 305 307 306 307 309 310 309 310 308 307 307 307 310 316 317 319 320 319 319 320 320 321 324 323 325 324 323 322 321 321 321 321 322 323
296 300 301 302 303 303 304 305 304 304 305 304 306 306 307 308 309 309 309 309 308 307 308 311 318 319 317 319 319 319 319 320 320 321 321 321 321 320 320 320 320 320 320 321 321
296 298 299 300 301 303 303 304 304 305 305 306 306 305 306 306 307 307 308 309 309 309 309 309 315 316 319 317 318 319 318 318 319 319 320 320 320 320 320 320 320 320 320 321 321
296 297 298 300 302 303 303 303 303 304 303 305 306 306 306 307 307 308 308 308 308 309 309 308 312 315 322 317 317 318 319 319 319 319 321 321 321 320 320 320 321 321 321 320 320

GFSSW_850_thetae_072.txt.gz
Theta_e
303 302 301 301 301 302 301 302 303 301 301 303 305 306 308 308 307 305 311 311 311 311 312 311 317 319 320 318 317 318 320 321 321 321 322 323 323 321 321 321 321 321 324 326 334
300 299 299 299 299 299 299 299 299 299 300 300 300 301 305 307 309 310 312 311 311 310 308 311 317 319 319 318 317 319 321 320 320 321 322 322 322 322 322 322 322 321 324 329 331
303 302 301 299 298 298 298 298 298 299 299 299 300 300 302 304 311 316 314 313 312 314 314 309 315 319 319 318 318 319 320 320 320 320 321 321 321 321 322 321 322 322 325 326 332
301 302 301 299 298 297 298 298 298 298 299 299 299 300 300 303 316 312 311 310 307 306 315 313 313 317 320 319 318 318 318 319 319 319 320 320 320 321 320 322 321 321 324 326 328
301 302 299 298 297 297 297 298 298 298 298 299 299 300 300 308 312 312 313 310 309 317 316 316 316 317 319 319 318 318 318 318 318 319 319 319 320 320 320 320 320 321 328 329 329
302 302 303 304 300 298 297 298 298 298 298 299 299 300 304 308 309 312 311 308 307 312 319 316 317 318 318 319 319 318 318 318 319 319 319 319 320 319 320 320 320 321 326 330 330
301 303 302 301 302 300 297 297 297 298 298 299 299 301 308 305 306 308 311 310 308 308 310 318 317 317 318 319 318 318 319 319 319 319 320 319 319 319 319 320 320 320 324 329 330
300 301 301 300 300 298 296 297 297 298 299 300 300 304 309 306 308 309 311 312 312 309 308 308 313 316 318 318 319 319 319 319 319 319 320 320 320 320 320 321 321 322 324 329 330
299 300 302 300 298 297 296 296 297 304 305 305 304 311 312 310 310 310 310 310 311 311 309 310 310 315 317 319 319 319 319 319 319 320 321 321 321 321 321 323 323 324 326 328 330
300 299 300 301 299 296 296 298 304 307 310 310 312 312 312 311 311 311 312 315 314 313 312 310 310 315 317 319 322 319 319 319 321 322 322 322 321 321 323 324 324 324 324 328 330
300 299 300 300 299 296 302 308 308 310 312 310 310 312 310 311 308 309 312 313 315 315 315 310 313 316 317 318 319 320 320 320 321 322 323 323 321 321 322 322 325 325 325 327 330
299 299 300 299 298 297 306 308 307 306 307 307 307 307 307 307 308 308 310 314 315 317 317 315 313 315 314 318 318 319 320 321 322 322 322 322 322 321 321 322 323 324 325 326 330
298 299 299 299 296 304 308 307 306 308 308 308 309 309 310 310 310 310 308 312 315 316 317 319 317 313 312 314 319 319 320 321 321 321 322 321 321 322 322 322 322 323 324 326 330
298 299 298 298 300 305 306 307 307 307 310 313 312 312 312 311 312 309 309 311 316 316 316 317 317 314 314 316 316 319 320 321 321 322 323 323 323 323 323 323 323 323 323 323 326
297 298 299 298 298 301 304 306 307 307 314 313 312 312 312 312 312 311 309 310 315 314 315 317 317 316 316 317 317 318 321 322 321 322 323 321 322 322 322 324 323 324 324 324 323
298 297 298 298 301 303 304 305 307 312 313 311 313 314 314 314 313 312 310 311 313 313 314 314 314 313 316 317 317 318 319 322 323 323 324 322 323 323 324 324 324 324 322 324 325
298 297 296 299 300 303 305 306 311 311 308 308 310 312 312 311 310 313 312 311 312 314 314 314 314 314 314 316 317 317 322 325 325 324 325 322 322 324 324 323 322 322 322 324 326
298 296 297 298 299 301 303 306 311 308 309 309 310 308 309 308 309 314 313 313 311 313 313 316 319 315 316 316 318 317 321 323 326 327 324 322 323 325 325 323 323 323 323 324 325
296 297 298 299 299 301 303 306 307 307 307 307 307 308 309 308 311 312 315 314 313 312 313 316 317 316 316 316 317 319 319 319 323 325 329 326 324 325 324 323 323 322 323 323 324
297 298 299 299 299 301 304 305 307 307 307 309 308 308 306 309 312 313 315 315 315 313 312 313 317 315 316 316 317 318 318 322 322 325 331 330 327 326 325 324 322 323 325 325 325
297 299 298 299 300 301 304 305 305 305 306 306 307 308 308 308 310 311 314 314 312 312 311 312 314 316 315 319 320 319 319 320 321 322 329 332 329 327 326 324 323 325 324 325 327
296 300 299 301 302 302 303 304 305 306 305 306 306 307 308 309 310 311 312 314 310 310 312 313 314 315 314 314 318 319 319 319 324 324 322 328 329 327 326 325 325 324 323 323 324
298 298 298 302 303 304 303 304 304 305 305 305 306 306 306 306 308 309 311 312 310 312 310 309 315 314 315 316 319 320 319 319 320 324 326 331 325 325 324 323 322 323 323 323 323
298 300 298 302 302 304 303 305 304 304 304 305 306 306 307 306 307 310 312 312 310 309 308 310 312 316 318 319 318 322 320 320 322 325 327 328 326 325 324 322 322 322 321 322 323
297 299 301 302 303 303 304 306 305 305 304 304 305 305 306 308 307 309 309 310 310 308 309 311 316 317 317 316 319 321 321 320 322 323 325 324 325 324 321 322 322 320 320 321 321
297 298 298 301 302 303 303 303 304 305 306 305 306 305 305 306 306 307 307 308 311 310 310 310 313 312 314 315 318 321 320 320 321 322 322 321 322 321 321 320 322 322 322 321 321
296 297 298 300 302 302 305 304 303 304 304 305 306 307 307 307 307 308 308 309 310 310 310 309 311 315 315 317 319 320 320 320 319 319 320 323 322 321 321 320 321 321 320 320 320

GFSSW_850_thetae_075.txt.gz
Theta_e
301 301 301 300 299 299 299 299 300 300 299 300 300 301 302 303 306 307 309 311 309 311 310 310 310 315 314 319 318 318 316 316 315 316 318 320 321 321 321 320 321 321 321 322 331
301 300 300 300 298 298 298 298 298 298 299 299 299 300 301 302 305 311 313 312 312 311 312 311 309 315 319 319 320 315 314 315 316 316 317 318 317 321 321 320 321 321 326 329 329
301 301 299 298 298 298 297 298 298 298 298 298 299 299 300 301 303 315 310 310 310 309 307 314 309 312 318 319 319 316 315 315 317 318 319 317 317 320 319 319 321 323 327 328 329
301 301 301 298 297 297 297 297 297 298 298 298 298 299 299 300 309 312 312 312 313 311 310 316 311 310 312 316 318 316 316 316 317 318 318 317 318 318 319 319 320 320 321 328 330
301 300 302 301 299 299 298 297 297 297 298 298 298 299 299 304 305 306 311 312 310 309 317 317 315 312 313 315 317 317 316 317 317 317 318 318 316 317 318 319 319 320 323 325 327
300 300 299 300 299 298 297 297 297 297 297 297 298 299 301 306 304 311 310 310 308 308 308 313 317 315 316 316 316 318 318 317 317 317 317 317 316 317 318 318 319 319 323 326 326
299 299 299 299 299 297 296 296 296 297 297 299 300 301 303 301 302 304 310 310 311 308 310 309 309 309 315 316 317 318 317 317 316 317 315 317 316 317 318 319 319 319 320 326 328
299 300 299 298 298 297 296 296 296 297 299 304 304 304 306 304 309 307 308 310 311 311 312 310 308 309 313 316 317 318 317 316 316 316 317 316 317 316 319 319 318 319 320 328 329
299 301 300 298 298 297 296 296 297 299 303 307 307 305 311 311 310 309 310 311 312 311 311 310 309 309 313 316 316 316 316 317 317 317 317 316 316 317 319 319 319 320 321 327 329
299 299 300 299 299 296 295 302 307 308 309 311 311 312 312 310 309 309 311 312 313 313 312 311 310 307 313 314 318 318 318 316 316 317 317 316 316 317 319 320 321 322 323 326 329
299 298 299 299 298 295 300 308 307 309 307 310 312 313 311 312 309 307 308 312 313 315 313 313 307 308 309 314 316 317 319 318 318 318 319 319 318 317 318 319 319 322 323 324 329
299 298 298 298 298 300 306 307 307 306 307 307 306 307 309 309 306 307 307 309 313 314 314 314 310 310 312 315 316 317 317 317 318 319 320 320 322 317 317 316 319 321 322 323 329
299 298 298 299 297 303 306 306 307 307 306 305 307 308 308 309 309 309 310 308 313 313 314 315 317 316 316 312 315 314 314 318 318 319 319 319 319 318 319 319 321 320 324 324 329
298 297 297 299 298 304 304 305 306 307 307 308 310 309 310 310 311 310 310 308 315 315 315 316 316 316 318 315 313 314 315 317 319 320 323 321 322 318 318 319 320 319 322 324 329
298 297 298 298 298 299 302 304 305 306 309 313 312 311 312 311 312 310 310 308 313 314 314 314 316 316 318 316 313 315 318 319 321 322 323 323 321 319 318 319 319 319 321 324 329
297 297 298 297 297 300 303 304 305 309 310 313 312 311 312 311 313 311 309 309 311 313 314 313 313 314 315 316 315 316 317 319 320 321 325 323 321 319 319 320 321 320 321 322 329
297 297 298 297 297 299 303 303 308 309 309 310 313 314 313 313 313 312 309 310 311 312 313 312 313 313 313 315 315 316 319 324 326 326 326 322 322 320 319 320 320 319 320 322 329
298 299 298 297 296 298 300 304 306 308 305 308 311 310 309 309 309 311 309 309 310 311 312 312 314 315 314 314 317 317 320 325 328 326 323 321 322 321 320 320 320 321 323 324 329
297 298 297 297 297 298 300 302 304 304 307 307 308 307 308 309 308 312 312 311 311 309 312 314 316 314 314 315 316 318 321 318 323 321 326 328 321 320 320 321 320 320 322 324 329
296 297 297 297 298 299 301 301 303 304 306 306 307 308 307 306 311 312 315 315 315 313 311 313 315 314 315 316 317 318 318 320 319 325 328 326 327 320 321 320 319 319 320 323 327
296 297 297 298 299 299 301 301 303 303 304 306 306 307 308 308 309 309 315 313 312 311 310 312 314 315 316 318 319 319 320 320 320 323 326 330 331 325 325 323 320 320 323 326 326
296 298 297 299 299 300 300 301 302 303 303 305 305 306 306 307 307 308 311 314 311 310 313 312 316 315 314 315 316 315 320 320 324 325 323 322 326 325 324 322 320 321 323 324 327
296 296 296 298 300 300 301 301 301 302 304 305 305 306 306 305 306 307 313 310 310 311 309 309 315 317 314 314 314 317 319 320 319 320 324 326 326 324 322 321 320 320 322 323 326
296 297 298 299 298 301 301 302 303 303 304 303 304 305 305 306 306 306 309 312 310 310 309 309 311 313 316 317 315 318 320 320 320 324 323 325 326 326 324 321 320 320 320 321 322
295 298 298 293 299 300 302 304 304 304 305 304 305 304 305 305 307 307 308 311 310 309 309 310 311 313 314 313 315 316 317 319 321 321 325 325 325 324 323 321 320 321 320 321 321
296 297 298 299 299 302 301 302 302 304 305 306 305 305 306 304 304 306 308 308 309 310 310 309 311 311 312 313 314 316 318 318 322 320 321 323 324 321 321 320 320 319 319 320 320
295 296 296 298 299 300 303 303 303 303 303 304 306 306 307 307 307 307 308 308 309 310 310 310 309 309 313 313 313 318 319 320 321 321 322 324 322 320 322 320 319 319 319 319 320

GFSSW_850_thetae_078.txt.gz
Theta_e
300 299 299 299 298 299 298 298 298 298 298 299 299 300 300 300 302 303 306 312 310 310 310 310 310 310 315 315 315 316 312 312 314 315 316 317 316 318 320 320 322 323 323 322 326
299 299 299 299 298 297 297 297 298 298 298 298 298 299 299 299 301 303 312 312 312 311 311 311 311 310 317 317 318 314 310 314 314 314 314 316 315 316 317 319 319 322 322 323 327
300 300 300 298 298 298 297 297 297 297 298 298 298 298 299 299 300 308 310 312 312 311 311 308 309 310 313 318 318 315 317 314 314 315 315 315 315 317 316 316 319 322 326 327 330
302 301 299 299 299 298 297 297 297 297 297 297 297 297 299 299 302 314 311 310 311 310 310 313 314 309 309 314 317 315 316 315 316 316 315 315 316 316 315 317 319 320 323 327 328
301 300 298 298 297 298 297 297 297 297 297 297 297 297 299 301 302 304 309 309 311 309 308 317 315 310 309 311 313 314 316 317 317 317 316 316 315 315 316 317 317 318 323 327 327
301 300 299 298 297 296 296 297 297 297 296 296 297 301 302 304 303 308 308 309 310 309 308 310 313 315 312 313 312 315 315 316 317 316 316 315 315 315 316 317 318 318 321 325 328
301 300 300 300 298 296 296 296 297 297 296 296 300 303 304 301 302 302 304 308 310 309 308 309 310 308 309 312 315 317 315 315 315 316 315 316 314 315 316 317 318 318 318 322 326
301 300 299 299 299 297 296 296 297 297 298 300 303 306 307 302 310 309 307 306 308 310 310 309 311 309 308 312 315 316 315 316 316 315 315 314 316 315 317 317 317 318 318 318 325
300 299 298 298 297 296 296 296 299 304 302 301 305 307 307 308 310 310 310 311 313 312 311 311 311 309 309 313 314 314 316 315 315 316 315 315 316 315 317 317 316 318 318 317 323
300 299 299 297 297 296 296 301 306 308 309 309 308 310 307 308 310 308 308 309 311 313 312 311 309 306 308 312 316 315 315 314 314 316 316 317 315 316 317 316 315 317 319 318 326
300 300 299 298 298 296 304 306 307 307 306 308 310 310 310 312 312 311 309 308 312 314 312 311 308 308 305 309 314 315 316 316 315 317 318 317 317 317 318 318 315 315 318 322 326
299 299 299 297 297 298 305 304 304 305 306 306 306 305 307 309 308 310 308 306 312 313 313 313 310 309 308 310 311 314 315 316 316 317 317 316 316 318 318 318 317 317 318 323 327
299 298 298 297 297 298 303 302 305 306 305 305 304 306 305 304 307 305 306 308 311 312 313 314 315 312 311 315 317 313 314 314 314 317 317 317 318 318 319 317 317 317 320 320 326
297 297 297 297 298 299 302 303 305 306 304 306 308 308 308 308 308 307 309 308 308 313 314 314 314 316 316 317 316 318 313 314 316 319 321 319 321 319 319 319 317 316 318 319 325
296 296 297 297 297 297 299 302 304 306 303 307 310 309 309 310 311 310 310 309 313 313 313 313 314 315 316 317 316 317 313 315 318 319 321 319 321 319 319 318 318 316 317 319 324
296 297 296 297 297 297 299 302 304 305 306 309 311 310 311 311 311 309 308 309 311 312 313 312 312 313 314 314 315 315 315 316 318 320 321 319 322 321 320 319 319 318 319 319 326
296 297 297 298 297 297 298 302 303 306 305 309 312 311 312 312 311 309 308 311 310 311 312 311 311 311 313 314 314 315 317 320 321 322 321 320 322 321 321 319 318 318 319 319 326
296 296 297 298 298 297 299 303 304 303 304 306 307 310 311 311 311 310 308 309 309 310 311 310 311 313 313 313 316 316 319 323 323 325 323 321 322 321 320 320 319 319 319 322 327
296 296 295 296 298 296 298 303 302 303 304 305 306 307 310 307 308 310 308 308 308 309 310 312 314 312 313 313 314 318 321 318 323 324 323 324 322 320 319 318 318 316 321 326 327
295 295 295 296 297 298 300 301 301 302 303 303 305 307 307 307 309 308 313 314 314 310 309 312 313 312 315 314 316 316 318 321 321 324 326 325 324 323 325 321 318 317 319 326 327
294 295 295 296 297 298 297 298 300 300 301 304 305 305 306 306 306 306 314 313 311 310 310 312 312 314 316 317 318 318 320 320 320 321 328 327 328 324 325 323 321 318 319 325 327
294 295 296 297 298 298 298 298 299 299 301 302 304 305 306 306 306 306 312 313 311 310 312 312 313 313 313 313 316 317 318 320 320 323 323 323 325 325 324 322 319 319 321 322 327
294 295 295 296 299 297 298 299 299 299 300 302 304 304 304 305 304 306 311 310 310 309 309 309 312 313 313 314 316 316 317 317 320 320 325 325 325 323 323 322 321 319 320 322 326
295 295 297 297 296 299 298 298 300 300 301 300 301 303 304 305 306 305 309 311 309 310 308 309 310 311 313 314 314 316 315 314 319 321 321 322 323 321 323 323 321 320 321 322 323
294 293 296 298 298 298 299 299 301 301 301 302 304 304 304 304 304 304 307 310 310 309 309 309 309 310 311 312 312 313 316 316 316 318 322 321 323 324 323 322 321 319 320 322 323
294 295 296 298 298 299 301 300 302 302 304 305 305 306 306 306 306 307 307 308 309 307 309 308 308 310 310 311 314 315 315 314 315 317 317 319 322 320 322 321 319 318 320 321 321
294 294 295 296 297 297 298 299 303 303 303 302 303 304 306 306 307 307 307 307 307 309 309 308 310 308 308 312 311 315 315 315 315 318 319 321 320 320 322 319 317 317 320 320 317

GFSSW_850_thetae_081.txt.gz
Theta_e
298 298 298 298 298 298 298 298 298 298 298 298 298 299 299 299 301 302 303 306 312 310 308 309 310 311 314 314 314 315 310 309 312 314 314 315 315 317 316 317 317 319 325 324 328
299 299 298 298 298 297 298 298 297 297 297 298 298 298 298 299 300 303 308 312 310 310 310 311 311 311 313 315 316 312 310 310 311 313 314 314 314 315 315 316 316 316 320 322 327
301 299 298 298 297 297 297 297 297 297 297 297 297 298 299 298 300 308 310 311 310 310 309 308 307 308 312 316 315 314 314 311 313 315 315 314 313 315 314 314 315 316 317 322 325
301 300 299 298 297 296 297 297 297 297 296 297 297 297 298 298 300 313 308 309 311 309 310 311 314 309 307 311 316 315 313 315 315 316 315 313 316 314 314 314 316 316 317 325 327
301 300 299 299 297 297 296 297 297 297 296 296 296 296 298 301 301 303 310 309 310 310 309 315 314 310 307 308 310 313 315 316 316 316 316 316 313 314 315 316 317 316 315 321 326
301 300 300 299 298 297 297 296 296 297 296 296 295 297 304 304 302 305 303 306 308 310 308 311 314 313 311 310 309 311 313 313 314 315 315 315 315 314 315 317 316 316 316 318 326
301 301 300 299 298 297 296 296 297 297 296 296 297 300 304 301 302 301 301 306 307 309 309 308 309 310 308 308 311 315 314 313 313 313 312 315 314 312 316 316 316 316 316 317 322
301 300 300 298 298 297 296 296 297 297 300 301 301 303 304 302 303 305 308 305 305 307 310 309 309 311 308 308 311 314 314 315 314 313 314 314 316 315 316 316 316 317 317 316 321
301 300 300 299 298 296 296 296 298 307 307 306 304 302 305 305 306 310 309 308 308 312 311 310 311 310 308 308 310 312 314 313 314 314 313 312 315 314 316 315 315 316 317 316 315
299 299 299 298 298 296 297 300 303 307 308 308 307 308 305 306 311 309 308 307 310 311 313 310 309 305 307 308 310 313 314 312 313 314 314 313 315 314 316 316 316 317 317 317 316
298 298 298 298 297 296 303 302 302 305 305 306 308 309 308 310 312 311 309 308 308 313 311 310 307 306 305 308 310 312 313 314 313 313 314 315 315 315 315 315 314 316 316 318 317
296 298 297 297 297 296 302 302 301 301 301 305 304 305 306 306 307 310 309 308 310 312 312 313 310 309 307 307 307 309 311 311 313 314 315 314 315 315 315 315 316 316 317 317 316
295 295 296 296 295 298 299 302 302 303 304 305 304 305 305 304 306 305 307 307 310 312 312 313 314 313 310 309 311 312 314 312 313 314 314 314 316 315 315 316 318 319 320 316 316
296 297 296 297 297 296 299 301 303 304 304 304 306 306 305 305 306 304 305 306 306 311 311 313 313 315 314 316 315 316 315 315 313 316 316 317 319 318 317 317 317 318 318 316 317
297 296 296 296 296 297 296 300 302 305 301 303 308 308 307 306 309 305 306 307 307 313 312 313 313 314 315 315 315 315 315 315 316 316 317 317 320 317 316 317 318 317 318 318 317
297 296 296 297 297 297 297 300 302 303 302 304 310 309 308 309 311 308 308 308 310 312 312 311 311 312 312 313 313 314 315 314 314 317 319 317 318 317 316 317 319 319 317 318 317
295 296 296 296 296 298 297 299 302 303 301 304 306 306 308 311 310 308 308 309 310 312 312 311 311 311 312 313 313 314 316 315 315 317 317 317 317 317 316 318 319 319 318 317 318
294 296 296 296 296 298 296 300 301 299 301 303 305 305 308 310 311 308 306 307 309 308 309 310 310 310 312 312 313 314 316 317 320 320 321 316 318 317 318 319 319 319 319 319 318
293 294 295 296 295 297 296 300 299 300 302 303 304 308 309 308 306 308 306 307 308 308 310 311 312 311 311 312 313 316 318 316 321 320 324 320 321 318 323 319 321 320 321 318 320
294 293 294 295 296 297 296 298 300 301 300 300 304 307 307 306 306 307 309 313 312 308 308 311 312 311 315 313 313 314 316 322 318 321 324 322 322 327 325 323 321 318 317 318 324
293 294 294 295 296 297 297 296 298 299 299 301 304 305 306 306 305 306 313 312 311 310 310 311 312 312 315 316 315 317 316 317 319 320 325 327 327 324 323 322 321 319 319 321 325
293 289 296 297 297 297 297 297 297 298 299 299 302 303 304 305 305 307 312 313 310 311 312 311 313 312 311 312 314 315 316 318 322 324 322 321 320 323 321 319 320 319 321 322 325
293 294 294 294 296 298 297 298 297 298 298 299 301 303 303 304 305 307 311 310 310 308 310 309 311 310 308 312 316 317 316 315 317 318 320 320 319 321 320 319 320 319 322 323 326
293 293 294 296 295 293 296 298 297 298 299 300 300 300 300 303 304 306 309 310 309 309 308 308 309 309 309 309 312 312 314 314 313 319 321 319 320 321 320 319 320 320 322 321 322
293 292 294 288 294 296 295 294 297 298 299 299 300 302 303 305 305 304 308 310 309 309 308 306 308 309 309 309 310 311 312 312 313 314 316 315 319 321 320 319 319 319 319 317 316
294 294 295 296 296 297 297 300 300 299 302 302 302 303 305 305 306 307 306 307 309 307 308 307 308 308 309 308 309 311 309 312 313 314 315 315 316 318 320 319 319 318 317 314 312
293 293 294 294 295 296 297 298 298 299 302 302 303 303 304 305 306 306 306 306 307 308 308 308 307 308 306 306 307 310 312 314 315 315 313 315 316 320 321 321 319 318 313 310 309

GFSSW_850_thetae_084.txt.gz
Theta_e
298 298 298 298 298 298 298 298 298 297 298 298 298 298 298 299 300 301 302 304 304 309 306 310 312 313 313 313 314 312 308 307 309 311 311 314 315 315 316 316 315 316 317 318 323
299 298 298 298 298 298 297 297 297 297 297 297 297 297 298 298 299 302 306 310 310 310 308 308 309 310 313 314 314 310 308 308 308 310 310 312 313 314 314 314 315 315 316 318 317
301 300 298 298 297 297 297 297 297 297 297 297 297 297 297 298 299 307 310 310 310 310 308 310 310 310 312 315 314 313 311 309 311 312 312 312 311 314 313 312 315 315 316 316 316
299 299 299 298 298 297 297 297 297 297 297 297 297 296 297 297 299 310 309 310 310 309 309 309 308 308 308 310 315 313 312 313 312 313 314 312 314 313 313 314 316 316 316 316 316
300 300 299 299 298 297 297 297 297 297 296 296 296 296 296 299 300 301 309 308 309 310 309 312 314 309 306 306 308 311 313 314 315 315 314 315 312 314 313 316 316 316 316 316 316
302 301 299 299 298 297 297 297 297 297 296 296 296 296 298 301 301 302 301 304 307 309 309 312 315 314 309 308 308 309 310 310 312 313 314 314 314 314 315 316 316 316 316 317 317
301 301 300 298 298 297 297 297 297 296 297 297 299 300 300 298 300 301 301 305 303 306 309 308 310 308 307 307 309 311 312 311 311 312 312 314 313 312 314 316 315 316 317 317 317
299 300 299 297 296 296 296 296 297 298 300 303 307 306 303 300 300 301 303 303 303 306 308 309 309 310 309 309 309 311 311 313 312 311 313 313 314 313 315 315 316 316 316 316 316
296 296 299 297 296 295 295 296 298 303 306 306 306 305 303 302 305 306 308 309 306 306 306 309 309 309 307 307 306 308 310 311 312 313 313 310 314 313 315 314 312 315 316 317 318
296 295 297 297 295 294 295 297 298 306 306 307 307 306 303 305 310 309 308 308 309 311 310 309 308 304 304 305 307 308 311 312 313 312 312 312 313 312 314 315 315 317 317 317 317
296 295 295 295 295 295 297 301 300 302 301 302 304 308 306 307 307 310 307 308 307 311 310 308 306 305 305 307 308 310 310 309 308 310 311 311 312 313 312 312 311 314 315 317 317
295 294 296 295 295 296 298 301 298 297 299 301 302 302 301 302 305 305 307 308 310 312 311 312 309 306 306 305 306 307 307 307 308 310 311 311 312 312 312 312 314 313 315 317 317
294 295 296 295 296 296 296 301 299 300 299 303 303 304 304 304 305 304 305 307 307 311 312 312 313 312 309 310 309 309 310 312 313 313 311 312 313 312 312 313 314 315 316 317 318
296 296 296 295 296 296 297 296 300 302 303 303 304 304 304 305 306 304 304 307 306 310 311 311 310 313 311 311 309 314 314 315 314 313 313 313 317 313 313 315 315 315 316 318 318
295 296 296 295 296 296 296 296 300 303 302 300 304 307 306 305 306 306 304 305 306 310 312 311 313 315 315 314 313 314 315 315 314 314 314 314 315 312 313 314 314 314 316 318 319
293 295 296 296 296 296 296 296 300 302 301 301 305 304 305 307 308 305 305 306 307 312 311 309 311 311 311 312 312 313 314 313 313 315 316 313 314 314 314 314 315 315 317 318 318
292 293 295 296 296 295 297 297 299 301 299 299 303 303 305 305 308 306 307 310 310 311 311 310 311 311 312 312 312 313 314 313 314 318 316 313 315 314 314 314 315 316 317 318 318
293 293 293 293 295 295 297 298 299 297 299 301 301 304 308 307 307 308 307 307 308 307 309 309 309 310 311 311 312 313 314 315 318 318 318 317 315 315 321 320 319 319 318 318 317
293 293 293 293 294 295 296 297 297 300 300 300 300 307 306 307 306 306 306 306 306 307 309 310 311 310 311 311 312 315 316 315 318 317 320 318 317 320 321 321 320 319 319 319 318
294 293 293 295 295 297 295 296 297 298 298 300 301 305 306 305 307 306 308 310 309 307 308 310 311 311 313 312 312 314 315 320 318 317 320 319 320 324 322 320 320 320 319 322 321
294 293 294 296 296 296 294 296 296 296 297 299 301 301 303 304 306 307 310 311 310 309 309 310 310 311 314 314 314 316 316 317 317 320 321 319 320 323 322 319 320 319 321 321 320
293 290 295 295 294 295 291 296 297 297 297 297 299 301 302 303 303 306 309 312 309 310 312 311 311 311 311 310 313 314 314 314 320 319 318 317 317 322 322 318 319 319 320 320 324
293 293 293 294 287 290 297 296 297 297 297 297 298 299 303 301 302 305 307 309 309 309 311 310 310 309 306 311 314 316 315 315 313 316 319 322 317 319 318 319 318 318 318 317 321
293 292 293 295 294 292 295 295 296 297 298 298 298 299 300 301 301 303 305 307 309 309 309 307 308 308 308 307 308 308 311 311 313 313 312 316 316 314 318 319 317 319 317 316 318
293 290 292 290 292 293 296 296 296 296 297 298 299 299 299 302 304 305 306 308 309 308 308 305 308 309 308 308 308 309 309 310 311 312 313 311 312 313 315 319 318 318 314 313 312
293 293 294 294 295 294 296 296 297 298 300 299 299 299 301 303 304 307 305 306 308 307 307 306 307 307 308 307 307 309 307 306 306 308 310 311 313 313 314 319 318 313 310 310 308
293 293 293 294 294 292 294 296 297 298 299 299 301 302 303 304 303 305 306 305 306 307 307 307 305 305 304 305 305 305 308 311 310 312 312 315 313 316 319 320 317 311 307 305 304

GFSSW_850_thetae_087.txt.gz
Theta_e
299 298 298 298 297 297 297 297 297 297 297 298 298 298 299 299 300 301 302 303 303 303 303 307 312 312 312 313 313 311 312 312 312 313 313 313 315 314 315 315 315 316 317 316 323
298 298 297 297 297 297 297 297 297 297 297 297 297 298 299 299 300 302 306 307 303 303 308 305 312 313 313 313 313 313 313 313 311 312 313 312 314 314 314 315 315 314 314 315 316
297 297 298 297 297 297 297 297 297 297 297 297 297 297 298 298 299 302 309 310 309 309 309 307 309 310 312 313 313 313 314 311 311 311 311 312 312 312 313 314 314 314 315 315 316
297 298 298 298 297 297 297 297 297 297 297 297 297 297 298 297 301 307 309 310 309 309 308 309 309 310 310 313 314 313 313 313 312 312 313 313 313 313 313 314 314 315 315 315 316
299 299 298 298 297 296 297 297 297 297 297 297 297 297 297 298 299 301 302 309 309 309 309 309 309 307 308 308 309 314 314 314 314 314 313 313 314 315 314 315 315 315 316 316 316
299 297 297 296 295 296 296 296 297 297 297 297 298 299 301 301 301 301 301 302 307 307 309 311 315 312 309 308 309 309 310 311 311 312 312 313 314 314 314 314 315 315 316 316 316
296 295 295 295 295 295 295 296 296 297 297 298 301 305 304 301 301 300 301 300 303 304 306 309 313 311 309 308 308 310 310 312 313 314 314 313 313 314 314 315 314 315 315 316 316
296 295 294 294 294 295 295 296 296 296 297 299 303 306 304 302 301 301 302 301 301 303 304 309 309 308 308 309 309 310 311 312 313 313 313 313 314 315 314 314 314 314 315 316 316
295 294 294 294 295 295 295 296 296 297 302 303 305 305 304 303 310 310 310 307 308 307 303 307 308 309 307 309 308 308 309 312 313 313 314 314 314 314 314 314 315 315 315 315 316
295 294 294 294 295 295 295 296 298 300 303 304 306 305 304 306 308 308 309 307 307 307 306 306 307 308 307 308 306 307 309 312 312 314 312 312 312 312 312 313 314 315 315 315 316
294 293 294 294 295 296 296 296 298 299 298 298 299 300 298 300 300 303 308 307 308 310 307 307 309 309 308 309 307 309 311 311 310 309 309 310 311 312 312 312 313 314 314 315 315
293 293 294 294 295 295 295 299 296 296 298 299 298 299 299 300 302 302 303 306 308 311 311 310 310 309 308 308 308 308 308 309 310 310 312 314 315 314 313 313 312 313 314 315 315
293 294 294 294 295 295 297 296 296 297 299 300 300 302 303 303 303 303 302 304 307 310 312 312 312 311 308 308 308 308 309 311 312 313 314 314 314 314 313 313 313 313 313 314 315
293 293 294 294 295 295 295 295 297 300 302 301 303 304 305 305 305 305 304 305 307 308 312 312 311 313 311 312 311 312 311 312 315 315 314 314 315 314 314 315 315 315 315 314 315
292 292 293 294 295 296 295 295 298 302 296 300 302 305 303 305 305 306 305 304 307 309 312 312 313 313 313 313 311 315 314 314 314 315 315 315 316 315 314 316 317 317 316 316 316
292 292 292 294 295 295 295 296 300 300 297 299 301 301 301 304 306 305 304 305 305 311 312 309 311 313 313 313 314 313 313 313 314 315 317 314 315 315 316 316 319 320 318 316 317
292 293 293 292 293 295 295 298 299 297 298 299 301 300 300 307 308 307 305 304 309 309 311 311 312 311 312 313 313 313 314 316 317 316 315 314 315 316 316 321 321 321 320 320 319
293 293 293 293 293 294 296 298 295 296 297 300 299 300 301 306 307 307 308 305 308 307 309 310 311 312 312 312 313 314 314 316 315 318 318 318 318 316 322 320 320 320 321 322 323
293 294 293 294 295 295 296 296 295 300 299 298 299 301 305 304 305 306 306 308 308 308 311 310 312 310 311 311 313 315 316 315 317 317 318 316 318 317 321 321 320 321 321 321 322
293 294 294 295 295 296 295 296 296 296 296 297 298 302 301 301 300 303 305 309 308 308 308 310 314 312 312 312 312 314 316 318 316 317 319 318 318 319 323 321 320 320 321 321 321
293 293 295 295 296 295 295 295 296 296 296 297 298 298 298 299 301 302 305 309 310 309 309 310 312 313 314 314 315 315 315 315 317 319 320 320 318 323 321 319 320 320 319 320 320
293 291 295 293 294 294 295 296 296 296 296 296 297 298 298 299 303 303 304 305 303 307 312 311 311 312 312 310 313 314 315 314 316 318 318 318 319 320 315 317 318 319 318 318 319
293 292 293 294 291 293 294 295 295 296 296 297 297 297 298 299 300 300 304 304 302 306 312 311 311 309 314 314 314 314 314 311 311 311 315 318 318 318 312 314 316 318 316 316 316
293 290 292 294 293 294 295 295 296 296 297 297 297 298 298 298 299 301 301 304 302 308 309 308 309 308 307 308 310 310 310 309 312 312 311 311 311 311 311 312 316 315 314 313 311
292 291 292 291 293 294 293 294 295 296 297 297 298 298 298 299 302 302 304 305 305 307 308 308 309 309 308 308 309 309 309 309 309 309 309 308 309 310 312 312 316 312 310 308 307
292 292 293 293 293 291 294 295 296 297 298 298 299 298 299 299 302 304 305 306 307 308 309 308 309 308 308 307 307 307 307 307 306 307 308 309 311 312 313 314 314 310 307 305 303
292 292 292 292 294 293 293 295 297 297 298 298 298 300 300 301 303 304 303 305 306 307 308 307 308 308 307 305 306 305 307 307 308 310 312 311 312 310 314 311 310 306 304 301 299

GFSSW_850_thetae_090.txt.gz
Theta_e
297 297 297 297 297 298 298 298 298 298 298 298 298 299 299 299 300 301 303 304 302 302 303 306 312 312 312 314 315 314 316 317 317 316 316 316 316 316 316 316 317 318 318 320 323
297 297 297 297 297 297 297 298 298 298 298 298 298 298 299 299 301 302 308 309 308 304 303 311 312 314 313 313 314 316 318 318 319 317 317 316 315 316 316 316 316 317 316 316 319
297 297 297 297 297 297 297 297 297 298 298 298 298 299 299 299 302 303 309 310 309 307 305 309 311 314 315 315 315 316 317 318 317 315 316 316 316 315 315 316 315 315 315 316 319
297 297 297 297 297 297 297 297 297 297 298 298 298 298 298 299 305 307 306 309 310 309 311 310 310 313 314 315 315 316 316 316 316 315 315 316 315 315 315 315 315 315 315 316 316
297 296 296 296 296 296 296 296 296 297 297 297 298 298 299 303 302 301 301 303 308 309 312 311 310 311 312 312 313 315 315 314 314 314 314 314 315 316 316 316 316 316 316 316 316
296 295 295 295 296 296 296 296 296 297 297 297 298 300 303 304 302 301 301 301 302 308 311 312 312 311 311 312 312 313 313 314 314 314 314 315 316 316 316 316 316 316 317 317 317
295 295 295 295 296 296 296 296 297 297 297 297 298 300 304 304 301 301 301 300 300 303 309 311 313 314 312 314 313 313 314 315 315 315 316 316 317 318 317 316 317 317 317 317 318
295 295 295 295 296 296 296 296 297 297 297 298 299 303 306 301 302 303 308 304 302 300 303 305 309 311 312 310 311 312 313 313 314 315 315 316 316 317 316 317 317 317 317 317 317
294 294 294 295 295 296 296 296 297 298 298 300 306 306 307 302 309 310 309 310 309 307 302 304 307 309 309 310 311 311 311 312 313 315 315 316 316 317 316 316 317 317 317 318 318
294 294 294 295 295 295 296 296 297 299 300 300 306 307 306 306 303 308 306 307 309 308 308 305 307 310 310 310 309 309 309 310 311 313 315 315 315 315 315 314 314 314 315 317 317
294 294 294 294 295 295 296 298 300 303 298 300 300 300 300 300 300 301 303 307 309 308 308 306 308 310 310 310 309 309 309 311 313 312 311 311 312 313 314 314 315 315 315 315 316
294 294 294 294 294 295 297 299 298 297 299 299 300 301 302 302 303 305 302 306 308 311 309 309 309 309 310 310 309 310 308 308 309 311 312 313 315 316 316 316 315 315 316 316 316
293 293 294 293 294 295 296 297 297 298 301 302 302 304 305 304 306 306 305 304 307 310 312 310 311 310 309 310 310 311 311 311 311 312 314 315 316 316 316 316 316 316 316 316 316
292 292 293 292 297 294 298 296 296 299 305 302 304 306 303 306 308 304 306 306 305 306 310 313 312 312 312 311 311 311 311 311 311 315 316 315 314 314 315 316 318 319 319 319 319
292 292 292 292 293 298 295 295 298 302 301 301 303 306 302 302 303 305 306 307 308 306 310 312 312 312 312 312 311 311 314 314 315 316 315 316 317 316 316 318 319 322 323 322 321
292 293 293 295 295 295 294 295 300 305 299 300 301 303 302 301 304 306 306 306 306 307 309 310 312 312 312 312 313 314 315 315 314 315 317 316 317 315 318 319 322 324 323 323 323
293 293 293 293 296 293 294 299 302 299 299 299 301 301 301 301 305 308 308 308 308 307 310 310 311 313 313 315 314 314 314 316 318 318 315 316 317 316 318 323 324 324 324 324 324
293 294 293 293 293 293 295 300 297 297 298 301 300 300 300 304 304 307 308 308 308 308 308 311 311 312 313 313 314 314 314 315 314 316 316 316 319 320 322 323 322 322 322 322 323
293 294 295 294 294 295 298 299 297 299 299 299 299 299 301 304 302 302 304 306 308 309 308 308 309 310 312 312 313 315 317 315 318 317 319 316 317 321 322 322 321 321 321 322 323
293 295 296 295 295 298 299 296 297 297 297 297 297 298 301 301 300 301 303 307 309 310 310 311 311 313 313 313 314 316 315 317 318 319 318 316 317 320 323 320 320 321 321 321 322
293 296 295 293 295 297 298 297 297 297 297 297 297 298 298 299 298 300 302 304 303 306 307 311 313 315 314 315 315 316 317 317 318 319 321 318 320 324 320 318 317 319 320 320 321
295 298 294 294 297 297 297 297 296 297 297 298 298 299 299 300 301 302 304 304 304 303 305 312 313 315 315 314 314 315 315 316 318 320 318 318 319 320 319 314 313 316 318 319 317
296 295 294 295 297 297 297 296 296 297 297 298 298 298 299 298 299 301 302 303 302 303 308 313 313 314 315 313 314 314 316 315 314 314 317 318 318 320 315 312 313 315 317 316 312
296 297 295 296 295 296 296 297 297 296 298 298 299 299 300 299 300 300 300 302 300 301 302 309 312 311 312 313 314 314 313 312 314 315 314 315 313 311 312 314 316 316 316 314 309
295 296 295 297 297 296 296 296 297 298 298 298 299 300 300 300 300 301 303 304 303 305 309 311 312 311 309 309 309 309 309 310 311 310 310 310 310 311 313 315 315 316 313 310 306
295 296 294 295 295 295 296 296 297 298 298 298 300 300 299 301 301 300 303 304 308 306 307 308 310 309 307 308 308 307 307 308 308 308 310 310 312 311 312 312 313 309 308 306 303
294 294 294 295 296 296 297 296 296 297 297 297 299 300 300 301 301 301 302 304 305 307 307 308 309 307 307 306 306 306 307 308 308 309 311 312 312 312 312 311 308 306 303 302 299

GFSSW_850_thetae_093.txt.gz
Theta_e
298 298 298 298 298 298 298 298 298 298 298 299 299 299 300 300 302 303 308 308 308 305 303 307 316 315 313 314 318 318 321 321 321 321 322 319 319 318 318 318 318 319 319 323 323
297 297 298 298 297 297 297 298 298 298 298 298 299 299 299 300 302 308 308 308 310 309 305 308 313 313 314 316 318 320 321 321 321 321 321 319 319 319 318 318 318 318 318 319 319
297 297 298 297 297 297 297 297 297 298 298 299 299 299 299 300 308 309 306 307 308 310 309 309 311 313 315 315 316 318 320 320 320 320 320 320 319 319 319 319 319 318 318 318 317
297 297 297 297 297 296 296 297 297 297 298 298 299 299 299 300 310 311 303 302 306 310 314 314 311 312 316 317 316 319 318 319 319 319 319 319 318 319 318 319 318 318 317 317 317
296 296 296 296 296 296 296 297 297 298 298 298 298 298 299 308 307 305 302 302 305 313 314 314 314 313 315 316 315 318 318 317 317 317 317 317 318 318 318 318 318 318 317 317 317
296 296 296 296 296 296 296 297 297 298 298 298 298 298 305 309 305 304 302 303 305 310 312 313 313 313 314 315 315 314 314 315 314 315 316 317 317 317 318 318 318 318 319 319 319
295 295 296 296 296 296 296 297 297 298 298 298 298 299 308 307 306 306 306 305 304 305 308 310 312 314 315 316 314 315 316 317 317 316 316 317 318 318 318 318 318 319 319 319 319
295 295 295 296 296 296 296 297 298 298 298 299 299 308 309 307 306 306 309 310 309 305 305 307 310 312 314 314 314 313 314 314 314 314 315 316 318 318 318 318 319 319 319 319 319
295 295 295 295 296 297 296 297 298 298 299 299 310 309 310 305 310 309 309 310 310 310 308 305 306 308 310 312 313 313 311 312 313 314 314 316 317 318 318 318 318 319 319 319 319
294 294 295 295 296 296 297 298 300 302 302 305 308 309 309 307 305 303 304 307 309 311 310 306 306 309 310 312 312 310 310 312 312 313 314 315 317 317 316 317 317 316 316 317 318
294 294 294 295 295 295 298 302 303 307 303 303 303 304 302 304 306 306 305 303 305 310 312 310 308 310 310 312 311 311 311 311 311 313 314 314 314 313 314 314 314 315 315 316 316
294 294 294 294 294 296 301 301 300 299 303 302 302 302 303 305 307 308 306 304 306 310 312 312 310 310 311 312 311 311 311 312 311 311 311 311 313 314 315 316 316 316 316 316 317
293 294 294 294 295 301 301 300 300 301 304 305 304 306 307 306 308 308 308 308 308 307 309 312 312 311 310 311 311 312 312 311 311 311 313 314 314 316 317 317 316 316 316 317 318
293 293 293 294 301 300 301 299 300 302 308 307 304 307 306 306 307 307 305 308 310 309 307 310 312 311 313 311 311 312 311 310 311 312 312 317 316 317 317 317 317 318 321 323 323
292 293 293 294 298 300 299 299 300 304 306 304 305 307 305 303 303 305 306 307 308 310 310 307 307 311 313 312 311 312 312 312 312 313 314 316 317 316 317 316 319 321 323 324 324
293 293 294 299 300 299 297 295 303 310 304 303 303 305 304 303 303 303 304 307 307 309 310 310 307 312 313 314 313 312 313 315 315 316 318 316 315 317 317 320 322 324 324 325 325
293 293 295 298 300 294 294 302 306 305 303 302 303 303 303 302 302 304 307 308 308 309 310 310 308 312 313 313 313 313 316 317 317 316 315 316 316 316 320 323 323 324 324 324 325
293 294 294 297 297 295 300 304 302 302 301 303 302 301 301 301 302 304 305 306 308 308 310 310 308 312 313 313 313 314 315 315 315 316 317 317 317 316 322 323 322 323 323 323 324
295 298 299 296 295 300 301 304 302 301 300 300 299 300 301 304 306 303 304 305 306 309 311 310 310 311 313 312 313 314 316 314 317 318 320 320 318 323 321 322 321 321 322 322 323
298 299 298 296 295 300 302 301 300 299 299 299 299 299 300 301 301 301 302 306 308 306 306 314 313 312 312 312 312 314 314 316 317 317 316 315 315 324 323 321 319 319 321 321 321
299 300 299 294 299 300 302 300 299 298 298 298 299 299 299 300 300 301 301 303 306 306 305 309 315 314 313 313 312 313 317 316 316 316 318 318 321 323 319 317 316 317 319 320 319
299 302 297 297 301 299 301 298 297 298 298 299 299 299 300 301 301 301 302 304 305 304 306 307 315 316 313 313 312 313 315 316 317 318 317 321 322 320 319 315 316 318 318 319 317
300 299 297 299 301 300 299 298 298 299 299 299 299 299 300 300 300 301 302 303 302 304 306 307 315 318 316 316 316 315 315 315 316 317 319 318 318 318 314 314 316 317 318 318 314
299 301 298 298 297 299 299 299 299 299 299 299 300 300 301 301 302 301 302 301 302 302 303 304 308 317 316 316 316 316 316 316 316 317 315 316 315 314 313 315 315 318 316 316 311
299 299 298 300 300 299 298 298 299 299 299 299 301 301 302 302 302 302 303 304 304 304 305 306 315 313 314 314 314 314 314 314 314 314 312 312 311 312 314 315 315 314 313 311 308
298 299 297 298 297 298 299 298 299 299 299 300 300 301 301 302 301 302 302 304 307 307 307 308 313 311 310 309 309 309 309 310 310 310 310 311 312 314 312 312 311 310 308 306 303
297 296 298 296 299 299 300 298 298 299 298 299 300 301 303 303 303 303 304 303 305 307 308 309 309 310 309 307 307 307 308 308 309 311 313 314 312 311 311 308 302 301 302 300 300

GFSSW_850_thetae_096.txt.gz
Theta_e
298 298 298 298 298 298 298 298 299 299 299 300 300 300 300 301 302 302 309 310 310 308 307 304 309 316 314 316 320 320 321 322 321 322 322 322 322 322 319 319 319 320 319 321 327
298 298 298 298 298 298 298 298 298 299 299 299 299 300 300 300 301 306 311 309 308 309 309 307 307 314 316 316 315 318 323 321 321 321 321 321 321 321 320 319 319 319 319 319 322
297 297 297 297 297 297 297 298 298 298 298 299 299 299 299 299 309 313 305 304 304 304 309 312 309 311 314 314 316 317 320 321 321 320 320 320 321 321 320 320 320 319 319 319 319
297 297 297 297 297 297 297 297 298 298 298 299 299 299 299 300 312 311 308 306 303 303 307 313 314 311 313 314 316 316 317 319 319 319 319 320 320 320 320 320 320 319 319 319 318
297 297 296 296 296 297 297 298 298 298 298 299 298 298 299 312 311 308 307 304 303 307 315 315 314 314 313 313 313 316 316 317 318 318 319 319 319 319 319 319 318 319 319 318 318
296 296 296 296 297 297 297 298 298 298 298 299 298 298 300 311 307 306 305 305 305 307 312 313 313 314 314 314 315 315 315 315 315 317 316 317 317 317 317 317 318 318 318 319 319
296 296 296 296 296 296 297 297 298 298 299 298 298 298 309 309 308 308 307 307 306 305 306 309 312 313 314 315 315 314 314 314 315 314 315 315 316 317 317 317 317 317 319 319 319
295 296 296 296 296 296 297 298 298 298 298 298 300 308 311 309 308 307 308 310 311 309 306 306 307 310 312 314 314 315 315 315 316 316 316 316 317 317 316 317 318 318 319 319 319
295 295 295 295 296 297 297 298 300 301 299 300 310 313 311 310 306 311 310 310 311 311 311 309 306 307 311 314 314 314 315 315 315 314 314 314 315 315 316 316 316 318 320 319 319
295 295 295 295 296 296 297 302 303 303 306 307 310 309 311 309 307 306 306 305 308 307 310 311 308 308 308 310 313 313 313 313 313 313 313 313 315 315 315 317 318 318 318 318 319
294 294 295 295 295 296 299 304 304 307 308 305 306 311 308 305 305 307 308 307 306 305 309 312 310 309 309 310 310 311 312 313 313 313 313 314 313 314 316 316 314 315 316 316 317
294 294 294 295 295 299 302 303 302 301 302 303 303 304 304 304 305 307 308 307 306 306 307 310 313 312 310 309 311 311 312 313 313 313 312 311 312 312 313 313 313 314 314 314 315
294 294 294 294 296 302 303 301 301 302 304 305 306 306 306 306 307 308 308 308 309 309 308 308 310 312 312 311 310 312 313 312 312 312 311 312 311 313 314 315 315 315 315 316 317
293 293 293 297 303 302 304 301 301 304 307 309 306 306 307 307 306 307 307 307 307 308 309 310 309 308 309 312 311 311 312 312 312 312 311 311 313 313 316 317 316 316 316 317 322
293 293 293 294 299 303 301 300 301 306 313 307 307 308 307 306 305 304 305 304 304 306 308 308 309 309 308 310 312 312 312 312 313 312 312 312 313 314 316 316 317 321 323 323 324
293 293 296 301 302 301 299 297 304 311 312 305 305 305 305 305 304 303 303 303 304 306 308 308 307 309 310 308 311 313 312 312 313 313 314 313 314 315 316 317 321 324 324 325 325
293 293 295 298 302 299 295 304 309 309 305 304 304 304 303 303 303 303 303 302 303 307 308 309 309 310 310 307 312 314 314 316 318 317 317 314 314 316 316 323 324 324 324 324 325
293 294 295 299 296 296 303 306 306 305 304 303 302 301 301 302 304 305 305 304 305 307 309 310 310 309 311 312 314 315 315 317 318 318 317 315 315 318 318 322 322 323 323 323 323
296 299 301 299 295 301 304 307 305 302 301 300 300 301 301 302 302 304 304 303 304 308 309 309 310 311 311 311 313 315 316 317 318 316 319 323 316 321 321 322 321 321 321 322 321
300 301 301 294 296 303 305 305 302 301 300 300 299 300 300 300 301 301 302 303 303 307 306 306 309 311 311 311 312 315 315 316 317 323 323 324 320 324 323 321 318 318 321 321 319
300 302 301 295 301 304 305 303 300 299 298 299 299 299 299 300 302 302 303 303 306 306 304 305 308 310 313 312 314 313 316 315 316 317 320 320 323 321 318 316 317 319 319 319 317
301 304 300 298 304 302 303 300 298 299 299 300 299 300 300 300 301 301 301 302 304 305 304 306 311 311 315 313 313 312 314 317 317 317 317 322 324 317 317 315 318 319 318 316 314
302 301 296 302 305 303 300 300 299 300 300 300 300 300 301 300 301 301 302 302 304 303 304 306 308 313 314 315 314 312 312 314 317 317 320 321 323 315 315 317 317 316 315 314 311
301 304 300 301 297 300 300 300 300 300 300 301 301 301 302 302 302 303 303 303 304 305 304 304 305 307 311 315 314 313 313 316 317 318 317 317 317 315 315 315 314 312 312 311 309
301 303 300 303 301 300 300 300 300 300 300 299 301 301 301 302 302 301 304 304 304 304 306 306 309 310 310 311 317 317 316 316 316 315 314 312 314 313 313 312 310 308 307 306 304
299 301 297 299 299 299 301 300 300 300 300 300 302 301 301 302 302 303 303 303 306 307 308 307 313 311 313 314 314 315 313 314 312 312 311 312 313 310 308 304 302 301 300 299 297
298 298 299 299 300 301 302 300 300 301 300 299 300 301 301 303 302 302 303 303 305 306 309 309 310 312 309 308 309 310 309 310 313 310 311 311 309 306 305 299 296 295 295 294 293

GFSSW_850_thetae_099.txt.gz
Theta_e
298 298 298 298 298 298 298 299 299 300 300 300 300 300 300 300 301 302 303 305 309 308 308 307 305 312 314 315 317 320 319 320 319 318 319 320 320 321 321 320 319 319 319 323 326
298 298 298 298 298 298 298 298 299 299 299 299 299 299 299 300 301 304 309 309 309 308 308 309 305 310 315 316 315 312 315 319 317 317 318 319 318 318 318 318 318 319 319 325 326
298 297 297 298 298 298 298 298 298 298 298 299 299 299 299 299 303 314 305 305 305 304 304 310 310 308 310 316 316 314 314 314 315 319 319 318 318 319 317 317 318 319 319 319 322
297 297 297 297 297 297 297 297 298 298 299 298 298 299 299 299 310 311 309 307 306 303 303 308 312 313 309 308 313 312 314 314 314 316 317 318 318 317 318 318 318 319 319 318 319
297 297 297 297 297 297 297 297 298 298 299 299 298 298 298 305 304 308 308 307 305 303 304 312 314 315 311 309 310 310 311 314 315 316 316 317 316 317 317 318 317 317 317 317 318
297 297 297 296 296 297 297 297 298 298 299 299 298 298 298 306 308 306 306 306 305 305 306 312 314 313 313 313 311 312 312 312 313 314 314 314 315 315 316 316 315 316 316 317 317
297 296 296 296 296 297 297 297 298 298 298 298 298 298 300 301 307 309 309 308 307 306 305 305 306 307 309 311 314 314 312 313 312 312 312 314 312 312 315 315 315 315 316 316 317
296 296 296 296 296 297 297 297 298 299 299 298 299 301 304 306 309 307 307 308 310 310 310 308 305 305 306 308 311 311 311 312 313 313 314 312 313 313 315 316 315 315 316 316 317
296 296 296 296 296 296 297 298 299 302 302 300 302 309 314 310 310 307 309 309 310 310 311 310 310 307 305 305 308 310 311 312 312 312 312 311 313 313 314 315 315 315 315 316 316
296 295 295 295 296 296 297 299 303 303 305 306 308 311 310 309 306 307 307 306 306 305 305 307 310 307 303 303 307 310 311 311 312 312 312 312 311 311 312 313 313 314 315 315 317
295 295 295 295 295 298 299 303 303 306 308 309 309 308 308 309 307 304 304 308 308 307 302 304 307 310 304 304 305 307 308 308 308 310 311 311 308 310 311 312 311 313 314 314 314
295 294 295 295 295 302 301 303 301 301 302 301 301 305 305 304 304 303 306 308 307 305 303 303 303 306 309 308 307 307 306 306 308 310 311 309 308 307 308 308 310 311 312 312 312
294 294 294 295 298 302 303 301 301 301 302 302 304 305 306 305 304 305 307 308 307 307 307 306 306 308 308 309 310 310 308 307 308 310 309 309 309 308 310 310 311 312 312 312 312
294 294 294 296 303 302 302 301 300 302 304 308 306 306 308 307 306 306 307 306 307 306 306 306 307 308 307 308 307 306 309 309 308 310 310 310 310 309 309 311 311 312 314 313 314
293 293 294 294 301 302 300 301 298 305 313 308 307 307 307 306 306 305 304 303 302 302 302 302 303 305 306 307 308 308 308 311 309 310 310 310 308 309 311 312 313 315 313 313 314
293 293 299 300 302 302 299 297 305 310 313 305 307 306 304 304 303 302 302 303 302 302 301 301 305 306 307 308 307 307 309 312 312 311 311 311 310 310 312 313 314 321 324 325 324
293 293 296 298 302 302 296 304 308 311 305 303 302 302 301 301 302 302 304 303 302 302 304 305 306 306 307 307 308 309 309 313 314 315 314 312 312 312 313 314 319 323 322 321 321
293 294 297 298 294 295 303 304 306 306 302 301 300 301 301 302 302 302 302 302 302 305 307 307 307 306 307 307 310 309 310 314 315 316 315 313 314 313 313 315 320 321 320 319 318
295 300 301 297 294 301 304 306 304 301 300 299 299 299 300 300 300 300 300 300 302 307 306 306 304 304 304 308 311 312 313 310 315 317 319 319 319 320 319 321 318 319 317 316 314
300 301 301 295 295 304 304 305 302 300 299 299 298 299 299 299 299 300 302 302 303 305 305 306 305 304 306 308 312 313 313 315 316 319 320 323 323 320 317 316 318 318 314 312 310
300 301 302 296 301 304 302 304 300 298 299 298 298 298 299 299 300 300 300 302 302 305 304 303 305 305 308 311 313 313 313 314 316 317 322 323 323 311 314 319 318 314 311 308 306
301 301 298 296 303 304 301 300 299 299 299 300 299 300 300 300 300 300 301 301 302 303 302 305 306 307 307 308 311 313 313 315 314 317 317 319 318 312 314 316 313 312 310 306 304
302 300 297 302 302 301 300 299 299 300 300 300 301 301 300 301 301 301 302 303 303 303 303 304 306 304 306 312 312 314 313 314 316 315 318 320 317 313 314 310 308 307 306 303 301
302 300 299 301 296 300 300 301 300 300 300 300 299 300 301 301 302 302 302 303 303 303 304 304 306 304 305 308 309 311 312 315 316 316 319 318 314 311 308 305 303 301 300 299 298
301 302 301 301 299 298 299 300 300 300 300 299 300 301 301 301 301 301 302 302 303 303 304 304 307 307 306 306 308 309 311 315 317 315 317 312 308 308 303 301 299 298 297 296 295
299 301 297 301 299 297 300 300 300 300 300 299 301 300 300 300 302 303 303 303 304 305 307 306 308 310 312 312 312 315 314 312 310 310 310 309 306 304 299 296 295 294 294 293 293
299 298 299 299 298 298 300 301 299 299 299 300 300 301 301 301 302 301 301 302 302 303 304 308 309 311 313 312 312 315 311 307 305 304 306 305 302 301 297 294 293 292 291 291 291

GFSSW_850_thetae_102.txt.gz
Theta_e
300 300 299 300 299 299 299 300 300 300 299 299 299 299 299 300 301 302 303 304 305 309 309 307 307 306 312 313 314 318 314 315 315 317 317 318 318 320 318 318 319 319 319 319 330
300 299 299 299 299 299 299 299 299 299 299 299 299 299 299 300 301 303 309 308 307 306 307 307 308 305 311 314 315 311 312 317 317 316 317 318 317 317 317 317 318 318 322 330 333
299 299 298 298 299 299 299 298 298 298 298 298 298 299 299 299 300 311 306 306 305 305 304 304 308 310 307 311 315 312 314 315 315 315 316 315 316 317 317 315 318 318 317 320 331
299 298 298 298 298 298 298 298 298 298 298 298 298 298 299 298 302 311 309 309 307 305 303 303 309 311 308 306 310 312 313 313 314 314 314 313 315 315 316 316 317 318 318 317 317
298 298 298 298 298 297 297 297 298 298 298 298 298 298 298 300 302 303 307 308 306 305 303 306 311 313 312 310 309 307 308 310 311 313 313 314 313 314 315 316 317 317 317 317 316
298 298 297 297 297 297 297 297 297 298 298 298 298 298 298 304 304 307 305 306 307 306 304 305 312 312 310 310 310 311 311 310 311 310 311 311 312 313 314 315 315 315 316 315 316
299 299 297 297 297 297 297 297 297 297 298 298 298 298 299 301 303 306 308 308 308 309 307 304 305 305 305 305 308 309 309 310 311 311 310 311 310 311 312 313 314 314 315 315 314
301 300 297 297 296 296 296 297 297 297 299 300 300 299 300 302 308 307 308 307 307 307 307 310 310 309 305 305 306 306 308 309 311 311 311 311 312 312 313 313 313 314 314 314 315
302 300 297 296 296 296 297 297 298 298 301 302 299 304 307 309 310 308 307 307 307 308 308 307 308 308 308 303 302 306 307 307 309 311 310 310 311 312 313 313 313 314 314 314 314
302 298 297 296 296 295 297 298 301 303 303 304 304 308 307 308 305 305 305 306 307 307 306 307 306 307 301 301 303 305 307 306 307 309 309 310 310 311 312 311 310 311 312 312 313
300 298 296 295 295 297 299 302 302 303 306 307 307 308 308 309 308 306 305 304 307 306 303 304 300 302 306 303 305 304 303 303 304 305 306 306 306 308 310 308 307 310 310 312 312
299 297 295 295 295 302 301 301 300 300 300 299 300 305 306 304 304 303 303 305 307 305 304 302 301 302 305 307 305 305 304 304 305 306 306 305 306 308 306 307 308 308 310 310 311
302 295 294 294 298 303 302 301 301 300 300 301 302 303 305 305 304 304 305 307 306 306 306 305 306 306 306 305 305 306 307 307 307 307 307 306 307 308 308 307 310 310 310 310 311
297 294 294 294 300 302 302 302 301 300 305 306 306 307 307 306 306 305 303 303 302 302 303 304 305 305 304 304 305 305 306 306 307 306 308 307 308 308 309 309 310 310 310 310 311
295 293 293 297 302 302 302 301 297 305 303 308 308 306 307 304 303 305 303 302 301 301 301 301 300 300 301 302 302 303 307 307 306 306 311 309 309 310 308 309 309 309 317 320 316
293 293 294 296 301 301 300 297 305 309 305 305 304 301 301 301 302 302 303 304 303 301 300 300 301 300 301 305 306 307 307 307 309 311 311 310 311 310 310 310 310 321 320 318 317
293 293 298 299 300 302 299 305 307 309 305 301 300 300 301 300 301 300 300 299 301 300 301 303 304 303 305 305 306 307 307 309 309 312 311 310 310 310 313 313 312 318 316 314 312
293 293 296 297 296 298 298 304 306 304 301 300 299 300 300 299 300 299 300 300 299 302 304 305 304 304 304 303 303 303 309 309 311 312 313 311 312 313 317 318 318 316 314 310 308
293 296 297 296 294 298 304 302 302 301 299 298 299 299 299 299 299 299 300 300 302 305 305 305 304 303 303 303 308 310 311 309 310 310 313 317 315 317 317 316 314 312 309 306 304
299 300 299 294 297 304 302 306 299 299 299 299 298 299 298 298 298 299 300 300 301 302 303 304 303 303 303 304 306 310 311 310 311 312 314 318 320 321 314 316 313 308 305 303 301
301 302 301 298 303 304 301 303 299 299 299 298 298 299 298 299 299 299 300 300 300 302 303 303 303 303 303 308 310 312 313 312 312 314 314 319 318 308 309 309 308 306 302 300 298
301 301 300 300 302 302 301 300 299 299 299 299 299 299 300 299 300 300 300 300 301 302 301 304 303 304 304 304 305 310 312 312 311 312 316 316 316 307 305 303 302 301 300 298 297
302 299 295 301 298 298 300 300 299 300 300 300 300 300 299 299 300 301 302 302 302 302 302 304 302 303 303 310 310 312 312 313 314 313 317 319 315 306 302 300 299 298 297 296 294
302 297 299 301 297 299 300 300 300 300 300 299 299 299 301 300 300 300 300 301 302 302 303 304 303 304 305 306 306 308 309 311 314 315 313 310 309 304 300 298 297 296 295 294 293
301 299 300 298 298 298 298 299 300 299 300 299 299 300 300 300 300 300 301 300 300 303 304 304 307 306 305 305 305 306 311 312 313 312 312 307 305 301 297 296 294 293 293 293 291
301 297 300 299 296 295 299 300 299 299 299 299 300 300 299 300 299 299 301 301 301 304 305 303 307 307 307 308 306 309 310 306 306 307 307 304 303 298 294 293 292 291 291 291 290
298 299 299 300 298 298 298 300 299 297 299 299 299 301 301 302 301 301 301 301 301 301 301 303 306 310 313 311 312 309 305 303 302 301 301 302 301 296 293 292 290 289 289 288 288

GFSSW_850_thetae_105.txt.gz
Theta_e
310 306 303 301 301 300 300 300 300 300 299 299 299 299 300 300 301 302 303 303 303 307 304 309 308 307 307 310 309 316 313 311 313 314 314 316 317 318 318 317 318 318 318 323 327
308 306 303 301 300 300 300 300 299 299 299 299 299 299 299 300 301 303 307 309 305 308 307 307 306 307 306 312 313 311 311 314 313 314 315 317 316 317 316 317 316 318 318 319 328
313 305 304 301 299 299 299 299 299 299 298 298 299 299 299 300 301 309 306 306 306 306 305 304 306 308 306 309 313 310 313 313 314 315 315 313 314 315 315 315 316 317 318 318 318
316 310 304 300 299 299 299 299 298 298 298 298 299 299 299 299 301 311 309 308 308 307 304 303 307 310 308 306 307 310 311 311 312 313 313 311 313 313 313 313 314 316 316 317 317
315 310 304 299 299 299 299 298 298 297 297 298 298 299 299 299 301 302 303 307 306 305 304 304 308 311 312 311 310 307 307 309 309 309 310 310 310 311 312 313 313 314 315 316 317
312 306 301 298 298 298 298 298 298 298 297 297 298 298 298 302 301 305 307 305 307 307 306 305 310 310 306 306 306 309 308 308 309 310 310 308 309 310 311 312 312 313 314 316 316
311 308 300 299 300 297 297 297 297 297 297 297 299 299 299 300 301 306 306 307 308 307 307 308 305 305 305 303 305 305 306 306 309 309 309 311 310 309 312 312 312 313 313 313 313
315 310 305 305 299 296 296 296 297 297 297 298 301 301 300 301 302 302 305 306 307 307 307 308 307 307 306 306 304 304 304 307 309 307 310 310 311 310 312 312 311 312 313 313 314
314 306 303 304 299 296 296 296 297 298 299 299 301 301 302 304 308 308 309 308 306 307 307 307 307 307 306 304 303 302 303 304 305 306 308 310 308 309 309 310 310 311 311 312 313
312 306 303 302 297 295 296 296 299 302 302 302 302 306 303 307 306 305 305 304 306 307 307 305 306 305 301 304 304 302 304 303 303 304 303 303 303 304 306 306 307 308 309 310 311
310 309 303 301 296 295 296 300 302 303 304 304 306 305 308 309 306 305 305 304 304 306 304 304 300 301 303 304 306 306 305 305 306 305 304 304 304 304 306 306 306 307 307 308 310
314 309 303 297 295 296 300 301 300 300 299 299 302 306 305 306 306 304 304 304 306 305 303 302 301 301 302 303 305 305 305 305 305 305 305 306 306 306 306 305 306 307 307 308 310
308 306 299 295 294 301 301 301 301 301 297 298 300 301 303 301 302 304 304 305 305 305 305 304 305 305 303 304 304 304 305 305 305 305 304 304 305 306 306 307 307 308 307 308 313
306 301 301 294 295 302 301 301 301 298 302 304 305 305 305 305 305 304 302 303 302 301 301 300 302 301 300 300 301 300 302 303 303 304 305 305 306 306 307 307 308 309 314 316 316
303 302 296 293 301 302 302 302 300 302 299 307 306 304 304 303 302 303 302 301 301 301 300 300 299 299 299 299 300 300 301 304 306 306 305 306 306 307 307 307 308 311 317 314 314
302 298 294 293 301 302 301 296 304 305 301 304 301 301 302 301 301 300 300 301 302 301 300 299 301 300 299 302 303 305 305 304 305 306 307 306 307 307 307 308 309 315 312 310 309
300 294 293 295 301 301 299 304 306 308 303 300 300 300 301 299 300 299 300 299 298 299 300 301 302 303 303 304 303 304 305 305 304 306 307 306 306 307 316 316 315 313 310 307 308
294 293 295 299 300 301 297 301 305 304 300 299 299 300 299 299 299 299 299 298 300 302 302 303 302 303 302 302 302 301 303 305 306 308 308 309 311 315 314 312 310 307 305 303 304
293 293 298 298 296 297 303 299 301 300 299 299 299 299 299 298 298 298 299 298 300 301 301 303 303 301 301 301 302 306 302 303 307 307 309 307 309 315 308 307 305 302 302 301 299
294 297 297 295 295 302 300 304 298 299 299 299 298 299 298 297 298 298 298 299 299 299 302 302 301 301 301 302 302 305 305 306 308 311 310 310 313 311 306 305 305 302 299 298 297
299 299 297 296 303 303 300 303 299 299 299 299 298 298 298 299 298 298 299 299 298 300 301 302 302 302 302 302 302 308 310 310 309 310 310 312 311 306 303 302 302 300 298 296 294
301 300 298 302 301 301 301 302 299 299 299 299 299 300 300 299 299 299 300 299 300 301 301 301 300 302 301 301 302 303 306 312 313 312 312 313 308 304 301 300 298 297 296 294 292
299 299 297 301 299 300 301 300 300 300 300 299 300 299 299 299 300 301 300 301 301 301 301 302 302 300 302 308 307 309 309 309 314 314 313 313 308 302 300 297 295 295 294 292 291
298 297 299 301 299 299 299 299 300 299 299 299 299 299 300 300 299 299 300 299 301 301 302 302 300 301 301 303 304 306 307 307 311 315 310 309 303 300 297 295 294 293 292 291 290
301 297 299 298 298 298 298 299 299 299 299 298 299 300 299 299 299 299 299 298 299 300 302 304 305 304 303 303 304 306 308 309 310 312 308 304 301 297 294 293 291 291 290 290 289
300 298 300 297 297 297 299 299 299 299 299 299 299 299 299 299 299 298 299 299 299 301 304 303 302 304 305 305 307 304 302 302 305 306 305 301 298 294 292 290 289 289 288 288 288
299 299 299 297 296 298 298 299 299 297 299 299 299 299 300 301 301 301 300 300 301 301 302 302 302 306 310 308 305 299 301 300 300 298 300 302 297 293 291 290 289 287 287 287 286

GFSSW_850_thetae_108.txt.gz
Theta_e
320 318 314 310 308 304 301 300 300 300 300 300 300 299 300 301 302 302 303 303 303 304 304 305 308 307 307 308 309 315 310 309 311 312 312 315 315 317 317 317 318 318 318 319 317
320 319 315 312 305 303 300 300 299 300 300 299 299 299 300 300 302 303 307 308 308 307 308 308 306 305 307 309 311 310 311 311 311 311 314 315 314 316 315 315 316 317 317 316 317
322 321 318 311 306 303 299 299 299 299 299 299 299 299 300 300 301 308 306 306 305 306 305 303 304 307 305 310 311 309 309 310 313 315 315 313 313 314 313 312 315 315 314 314 315
323 322 319 310 305 302 299 299 299 298 297 298 298 299 300 300 301 310 308 307 307 306 305 303 305 309 308 305 306 310 309 311 311 311 311 310 312 311 311 312 312 312 312 312 313
324 322 320 311 307 300 299 298 298 297 297 297 298 299 299 299 301 302 302 303 307 305 305 303 307 310 310 309 308 306 307 307 307 308 309 309 307 308 309 312 312 312 312 312 313
324 322 320 311 306 300 299 298 297 297 297 297 297 298 299 299 301 301 304 307 306 307 307 305 311 309 305 305 304 306 305 305 306 307 308 307 308 309 311 312 312 312 312 312 312
323 322 319 312 310 301 302 299 297 297 296 297 297 299 300 300 301 301 306 305 306 307 307 307 306 304 304 304 305 304 303 303 305 308 308 309 307 307 310 309 308 308 309 310 311
323 321 319 317 311 304 302 297 297 297 297 297 299 299 300 301 301 300 305 306 307 307 307 307 307 306 306 306 305 303 303 304 306 304 306 308 306 306 308 307 306 306 306 306 307
323 320 320 316 311 306 301 297 296 296 297 299 300 301 301 303 303 306 307 305 306 307 306 306 306 306 305 303 303 301 301 303 303 303 303 303 304 306 306 305 305 306 306 307 308
322 318 319 315 305 303 298 296 297 299 301 302 302 304 302 305 307 305 305 305 305 305 306 305 305 302 300 303 303 301 301 302 304 304 303 302 303 305 305 306 305 305 305 306 307
321 318 317 311 304 301 295 297 301 302 303 301 304 303 307 307 305 304 303 305 303 306 304 303 300 302 303 303 304 303 304 305 305 305 304 304 303 305 305 305 304 305 306 306 307
319 315 316 311 305 296 295 300 300 300 299 299 300 303 303 305 306 305 304 304 304 303 302 301 301 301 301 301 303 303 303 303 303 303 303 303 303 303 304 304 305 306 306 306 307
318 312 313 306 300 294 299 300 300 301 297 298 298 299 300 301 301 303 303 304 304 303 303 303 305 303 302 302 303 303 303 303 303 302 301 301 302 302 303 305 306 307 307 307 309
316 310 310 301 297 295 301 301 301 298 299 301 302 304 304 303 303 302 302 302 301 302 301 300 301 301 300 299 300 298 300 301 300 300 300 303 302 302 303 304 305 306 307 314 313
311 309 305 305 297 299 301 301 301 300 299 305 304 303 304 304 302 301 301 302 301 301 300 301 300 300 300 300 299 299 300 299 300 303 303 302 301 301 303 303 307 312 311 308 306
310 309 304 301 296 301 301 301 298 303 300 302 300 300 301 300 300 299 300 301 301 300 299 300 301 300 299 300 301 302 303 303 302 302 303 301 300 302 304 312 311 310 308 306 303
308 306 303 296 295 301 301 302 303 306 302 299 299 300 299 299 299 299 299 298 297 299 300 301 301 302 302 302 301 301 301 302 301 306 303 301 302 305 309 307 305 304 303 301 299
307 303 295 294 298 301 298 302 304 303 300 299 298 299 298 298 298 299 298 298 301 299 300 302 301 302 300 301 301 300 301 303 304 305 305 303 305 313 307 304 303 301 299 298 296
304 299 293 295 299 301 302 301 298 300 299 298 299 299 298 298 298 298 298 298 299 299 298 300 302 300 300 300 300 302 302 301 302 302 304 305 306 309 304 303 302 300 299 296 294
297 293 296 299 299 299 300 302 298 299 298 298 299 298 298 297 298 298 298 299 299 299 299 302 301 300 300 301 300 302 304 304 306 305 308 307 309 306 302 302 300 299 297 294 292
295 298 299 297 298 302 297 301 298 298 299 299 298 298 298 299 298 298 299 299 298 300 301 301 301 300 301 301 299 304 305 304 304 307 308 306 306 304 301 299 298 297 295 293 292
298 296 297 297 301 300 300 302 299 299 299 300 300 300 299 299 299 299 300 299 300 300 300 300 299 302 301 301 301 301 303 304 304 312 311 309 306 301 298 297 295 294 293 292 290
299 298 299 301 301 300 301 300 300 300 300 299 300 299 298 298 299 299 300 300 300 300 301 301 301 299 301 305 307 306 307 309 308 307 313 306 303 298 296 294 293 292 291 290 289
297 297 298 300 300 300 300 300 300 299 299 298 299 299 299 299 299 299 300 299 300 300 301 301 300 299 300 300 301 303 305 306 307 308 308 304 303 297 295 292 291 290 290 289 289
298 296 299 300 296 298 299 300 300 299 299 298 298 299 299 299 299 299 298 296 297 300 300 300 302 301 302 302 303 305 304 302 310 310 308 303 299 295 293 291 290 289 288 288 288
299 298 299 297 298 299 300 299 299 299 299 298 298 298 298 299 299 297 298 298 297 299 302 304 302 303 302 303 305 301 301 299 299 302 300 298 296 293 291 290 289 287 287 287 287
299 299 298 296 297 297 298 299 299 297 299 299 298 298 299 299 299 299 299 300 301 302 302 302 302 303 306 304 303 302 300 299 297 297 299 301 296 292 290 288 287 286 286 286 285

GFSSW_850_thetae_111.txt.gz
Theta_e
323 322 320 316 315 308 305 303 301 300 300 300 300 301 301 301 302 303 303 303 303 303 303 305 307 307 307 308 312 313 313 313 313 313 313 314 316 316 316 316 315 317 317 317 316
324 323 321 319 317 313 307 304 300 300 299 300 299 299 300 301 302 303 306 306 308 307 305 304 307 306 307 307 309 314 316 313 312 313 314 315 315 315 315 316 316 316 315 313 312
323 324 322 322 320 313 308 304 300 299 299 299 299 299 299 300 302 307 306 307 307 307 306 306 305 306 305 310 310 309 310 312 314 314 314 315 314 314 314 314 313 313 312 312 312
323 323 323 322 320 316 311 303 300 299 298 298 298 299 299 300 303 309 308 307 307 306 304 303 304 308 308 306 307 311 310 311 312 311 310 311 310 311 311 311 311 311 312 311 312
323 323 323 322 320 318 313 303 301 299 298 297 298 298 299 299 301 302 301 305 305 305 305 304 305 308 310 309 308 309 309 307 307 306 306 308 308 310 310 311 311 310 310 310 310
323 323 324 323 320 317 316 306 303 300 298 297 297 297 298 300 301 301 301 303 305 306 306 305 310 308 306 305 306 307 305 305 305 306 306 307 309 308 310 309 309 309 308 308 308
324 324 323 322 321 318 315 307 305 300 297 297 297 297 298 300 301 301 301 306 305 306 307 306 305 304 304 305 304 304 305 305 306 307 308 306 307 309 307 307 307 307 307 307 308
325 324 323 322 321 318 315 309 304 299 297 297 297 298 298 300 300 301 301 306 305 307 307 306 306 306 306 305 306 306 304 306 306 305 305 308 306 309 306 306 306 306 306 306 307
324 324 322 321 319 317 316 306 300 298 297 298 300 300 300 301 303 305 303 304 306 305 306 305 305 305 304 306 307 304 305 304 305 306 305 307 306 307 307 306 306 306 306 306 306
323 323 321 320 319 316 311 301 297 297 300 301 301 301 301 303 306 306 308 307 306 305 305 304 305 306 304 307 305 304 304 303 305 306 306 307 307 307 306 305 305 305 306 306 306
321 321 320 318 319 315 306 298 300 301 302 300 301 300 305 306 305 304 303 303 304 305 306 302 305 306 306 306 306 305 305 306 306 306 306 306 305 305 305 304 305 305 305 305 306
319 320 318 317 317 313 301 296 299 299 300 299 300 302 302 306 305 304 303 304 304 304 303 304 305 304 302 302 303 304 304 305 305 305 304 303 303 304 304 304 304 304 305 306 306
318 318 316 316 312 312 297 299 300 300 298 298 299 299 299 300 302 301 302 302 304 303 304 304 305 303 303 303 303 303 304 303 302 302 302 302 303 304 304 304 304 308 311 310 310
318 316 316 315 310 306 297 300 299 300 300 300 300 302 302 301 302 301 301 303 302 304 304 303 301 302 301 301 301 301 302 302 301 301 301 303 302 303 303 305 311 310 308 306 305
316 316 316 311 309 304 304 299 300 299 302 304 304 303 303 302 301 301 301 301 301 301 302 302 301 301 302 302 300 302 301 302 302 303 303 303 303 304 303 307 308 305 304 302 300
316 315 312 309 308 301 300 300 300 304 300 303 300 301 301 299 299 299 300 301 300 301 300 301 301 301 302 301 301 302 303 303 304 304 302 302 302 303 309 308 305 303 301 299 298
313 314 309 309 303 300 299 300 303 302 302 301 300 300 299 299 299 299 299 299 300 300 301 301 301 302 302 303 302 302 302 304 304 305 303 304 303 305 308 306 303 302 300 298 296
313 311 307 304 302 300 300 303 300 303 302 299 299 299 299 298 298 299 298 299 301 300 300 300 300 303 301 302 301 301 301 302 303 304 304 302 302 308 305 303 301 300 298 296 295
308 305 301 296 298 301 300 301 300 301 300 299 299 299 298 298 298 298 298 298 301 299 300 300 301 301 300 300 300 301 302 302 302 302 302 302 306 305 303 302 300 298 296 295 293
308 301 296 296 298 300 301 300 300 299 298 299 300 299 299 297 298 299 298 299 299 300 299 301 301 301 300 301 301 301 303 305 304 306 307 307 306 310 302 300 298 297 295 293 292
305 298 297 298 300 300 300 300 298 298 299 299 298 298 298 298 299 299 298 298 299 301 301 301 300 299 301 301 301 302 303 303 304 304 309 310 309 302 299 297 296 295 293 292 291
299 299 297 298 301 299 300 301 299 299 299 299 300 299 299 299 299 299 299 299 299 300 300 301 302 302 301 301 302 301 302 304 305 307 308 309 308 298 297 295 293 293 292 291 290
298 298 299 299 300 300 301 300 300 300 300 300 300 300 299 299 299 300 300 300 299 300 301 302 302 301 302 305 306 304 304 306 308 305 306 308 306 297 294 293 291 291 290 290 289
297 298 298 299 300 300 301 300 300 299 299 299 299 299 299 299 299 299 300 300 299 299 301 302 301 301 299 299 300 302 304 304 306 308 307 307 300 296 294 292 290 289 289 289 288
298 298 299 299 299 300 300 301 300 300 299 298 299 299 299 299 299 299 299 298 297 299 300 302 301 301 301 301 302 304 303 302 301 305 308 301 297 295 293 291 289 288 288 288 287
298 298 299 299 298 299 301 300 300 299 299 298 299 299 299 299 299 299 299 299 300 300 302 302 303 301 300 302 303 301 300 301 299 301 299 297 295 292 291 289 288 287 287 287 286
298 299 299 300 299 300 300 300 300 299 298 299 299 299 299 300 299 299 299 300 301 301 303 302 303 303 305 303 302 304 300 299 298 297 300 301 295 292 290 288 287 286 286 285 284

GFSSW_850_thetae_114.txt.gz
Theta_e
325 325 324 323 323 322 322 318 316 309 306 302 302 302 301 302 302 303 304 304 303 303 302 306 308 309 309 311 314 313 315 317 318 317 318 317 318 317 318 318 318 318 318 318 317
324 324 324 324 323 322 320 319 314 307 304 304 303 302 301 301 302 303 306 306 307 304 306 308 308 308 309 310 311 313 315 316 316 316 316 316 316 317 317 317 318 317 317 316 315
323 323 323 323 324 323 321 318 312 305 302 303 303 301 301 300 304 308 306 307 307 307 308 308 307 307 309 310 311 312 314 314 315 314 314 315 316 315 315 316 315 315 313 314 314
324 323 323 323 323 323 321 318 311 304 304 303 301 301 300 300 308 305 308 307 307 306 307 307 308 308 308 310 311 312 312 312 312 313 313 313 312 312 312 313 313 313 313 313 313
324 324 323 323 323 323 322 318 314 304 308 304 301 300 299 303 303 302 301 306 306 306 307 307 308 308 310 309 309 311 311 310 311 311 310 310 311 312 312 312 312 311 312 311 311
324 324 323 323 323 322 322 319 317 309 308 302 300 298 299 304 303 302 301 301 303 306 307 307 308 308 309 310 310 310 311 310 309 309 309 310 310 311 311 311 311 310 310 310 310
324 324 324 324 323 321 321 320 318 313 307 301 299 297 300 305 304 301 301 301 306 307 308 308 308 308 308 309 307 307 308 309 309 309 310 309 311 311 311 310 310 310 310 309 309
325 325 325 324 323 322 321 320 319 315 308 300 299 298 303 302 300 301 301 302 306 305 306 306 306 308 308 308 309 310 309 309 310 309 309 309 310 311 310 310 310 309 309 309 309
325 324 323 323 322 320 321 319 317 312 303 302 300 300 304 301 303 305 303 304 307 306 307 306 306 309 309 311 311 310 308 308 308 309 309 309 309 309 309 309 309 309 308 308 309
323 323 322 321 320 320 320 316 314 307 302 302 303 304 304 304 307 305 306 306 306 306 306 307 308 310 310 310 309 309 308 308 308 308 309 309 309 310 309 308 308 308 308 308 308
320 320 319 319 319 318 316 313 304 305 302 307 305 304 304 308 306 305 306 305 306 307 309 308 309 310 310 310 309 308 308 308 308 309 308 309 309 309 308 307 307 307 307 307 310
321 317 317 319 318 317 314 311 301 303 306 304 302 303 303 304 307 305 304 306 306 308 309 309 309 310 309 308 307 308 308 308 308 308 307 307 307 307 308 308 307 307 310 313 312
316 317 316 318 316 315 313 306 300 299 303 304 302 302 303 304 303 305 305 305 306 307 307 308 308 307 307 307 307 308 308 308 307 306 306 306 307 309 307 307 308 312 310 309 308
319 314 316 317 313 312 307 302 300 301 304 310 302 302 301 303 304 302 302 304 305 305 306 307 307 306 306 306 306 307 307 305 304 305 306 306 306 308 309 308 310 310 309 307 306
312 316 314 315 314 310 306 301 302 303 317 307 305 303 303 303 303 302 301 303 306 306 306 306 305 305 306 306 305 305 304 305 305 305 306 307 306 309 308 307 310 308 306 305 304
312 311 314 313 311 308 306 303 300 307 314 305 304 304 305 303 302 302 303 303 303 305 305 306 304 304 305 304 304 304 304 305 306 306 306 307 307 308 310 309 307 305 303 302 301
312 312 315 314 310 306 301 300 305 311 305 305 305 304 306 303 302 303 304 304 305 305 306 305 305 304 303 303 304 304 305 306 307 309 308 306 306 306 310 307 305 303 301 301 299
313 313 311 312 307 302 300 304 309 309 305 302 303 304 305 303 302 302 302 304 303 303 305 305 305 303 304 304 304 305 305 305 303 305 306 306 306 309 308 305 304 302 300 299 297
314 309 307 306 304 302 301 305 313 309 305 303 303 304 304 301 302 302 302 303 303 303 303 303 302 303 303 303 302 303 303 304 304 304 305 305 306 308 306 305 302 300 298 297 295
311 305 303 301 301 301 302 307 307 302 302 303 304 305 305 303 302 302 302 301 302 301 300 302 301 301 302 302 302 302 304 305 305 307 307 308 307 313 304 302 300 298 296 294 293
308 301 299 300 299 301 304 305 303 300 301 302 303 302 303 302 302 302 301 301 301 301 301 302 301 301 301 302 302 303 304 304 306 307 309 311 313 303 300 298 297 297 295 293 292
303 300 298 300 301 301 305 304 302 301 300 301 302 302 302 302 302 301 301 301 300 302 301 302 303 303 303 303 303 303 304 305 307 309 308 310 310 299 297 295 295 294 294 293 292
299 296 297 299 304 304 303 302 301 301 301 301 302 302 301 301 302 302 301 301 301 301 301 303 303 304 304 307 306 307 305 304 306 308 309 310 309 298 296 295 293 292 293 292 291
299 301 297 298 302 304 304 303 301 301 301 301 301 301 301 302 301 301 300 301 301 301 301 303 303 303 305 302 302 303 306 306 306 309 309 311 304 298 296 294 292 291 291 291 290
301 301 301 303 302 303 303 303 301 301 301 300 300 302 302 301 301 300 301 301 300 301 301 303 302 304 303 303 303 305 305 305 304 304 306 306 302 296 294 293 291 290 290 290 289
300 301 300 302 301 303 303 302 301 301 300 301 302 302 301 300 301 301 301 302 303 302 302 302 303 304 304 305 305 306 302 304 302 300 301 300 298 295 293 291 291 290 289 288 288
300 301 302 301 303 303 304 302 302 302 301 301 301 301 301 301 301 301 301 302 303 303 304 305 304 306 308 304 305 306 302 301 300 300 302 306 298 295 293 291 289 288 288 287 286

GFSSW_850_thetae_117.txt.gz
Theta_e
325 325 325 324 324 324 324 323 321 319 315 315 311 308 309 305 307 308 310 309 307 304 303 310 311 312 312 314 316 316 318 321 321 322 322 321 320 319 320 320 320 320 321 321 320
326 325 324 324 324 324 324 323 321 319 315 316 316 312 307 304 308 309 309 307 306 305 305 310 310 311 312 313 314 317 319 320 320 319 319 318 318 319 319 319 320 320 320 319 318
325 324 323 323 323 323 323 324 320 319 317 317 318 315 309 306 310 313 306 307 307 307 311 310 310 310 312 313 314 315 317 318 318 316 317 316 317 317 318 318 317 318 317 316 316
325 325 324 323 323 323 323 323 321 319 318 318 318 316 307 308 315 310 305 306 307 309 310 310 310 311 312 313 314 315 315 315 315 314 315 316 315 315 314 315 315 315 315 315 315
325 325 325 324 323 323 323 322 321 319 319 318 316 314 313 310 311 308 304 302 306 309 308 309 310 311 313 313 313 312 313 312 312 312 313 312 312 312 313 313 313 313 313 314 314
325 325 324 324 323 323 323 321 321 320 320 318 313 306 308 313 307 306 305 309 309 308 308 308 308 309 310 311 313 313 312 312 312 312 311 311 311 311 311 312 313 313 313 312 312
325 325 324 324 324 324 324 322 321 321 320 319 312 303 308 313 308 307 305 305 308 307 309 309 310 311 310 311 311 310 311 311 312 311 312 311 311 312 312 313 313 313 312 312 311
326 325 325 324 324 323 323 322 321 320 320 317 306 302 310 309 307 305 304 306 306 306 308 308 308 309 309 310 311 311 312 313 314 312 311 310 312 313 312 312 312 312 311 311 311
325 324 324 324 323 323 322 321 320 319 318 315 305 309 313 307 305 308 306 305 307 308 308 308 307 308 310 312 313 313 314 315 314 312 311 311 311 312 311 312 311 311 311 311 310
323 322 324 323 321 320 320 319 318 316 312 310 309 309 310 308 309 307 309 306 307 308 308 308 308 311 312 312 313 315 315 314 313 313 312 311 312 313 311 311 311 311 311 311 310
318 321 322 322 320 319 318 316 309 311 309 315 315 313 310 310 307 307 310 310 307 308 310 309 311 312 313 314 313 313 313 312 312 312 311 311 312 312 311 311 311 310 310 310 312
316 320 321 319 318 318 316 315 307 309 315 313 310 310 309 308 308 309 307 308 309 311 311 312 312 313 312 312 312 312 310 311 311 311 311 311 311 310 311 311 311 310 310 314 313
313 318 319 318 317 316 315 313 311 309 312 314 313 311 310 307 307 308 308 308 309 310 311 312 313 311 310 310 310 310 310 310 310 310 310 309 310 312 313 310 309 312 313 311 311
315 315 318 317 314 314 313 313 308 306 315 316 309 306 305 306 307 307 307 308 309 309 309 310 310 309 310 309 309 309 310 309 309 308 309 311 311 312 313 313 312 312 311 310 309
315 315 313 315 315 313 310 310 305 308 318 312 306 304 305 305 306 305 304 304 307 309 308 309 308 308 308 308 309 309 309 308 308 308 308 309 309 311 313 312 313 312 309 307 307
315 314 313 314 314 313 312 307 307 312 318 312 308 307 307 306 306 305 304 305 306 308 309 309 308 308 308 308 307 307 307 307 307 307 308 309 310 311 314 313 311 308 306 305 304
315 314 313 312 313 313 308 305 311 316 311 311 309 308 309 307 307 306 307 307 308 308 309 309 309 308 306 307 308 307 307 309 310 310 310 311 311 310 313 310 307 306 305 303 302
315 315 313 313 311 311 308 306 315 313 314 307 308 308 309 309 307 307 307 308 308 307 308 309 309 309 307 307 307 307 308 309 309 309 309 309 309 312 310 308 306 304 303 300 299
313 309 313 311 310 308 305 312 314 314 313 308 307 308 309 308 306 307 307 308 309 308 307 306 307 306 306 306 306 305 306 306 306 306 307 307 308 311 309 308 304 302 301 298 297
311 307 306 308 306 303 306 313 314 312 309 308 309 310 310 309 306 307 308 307 306 305 304 305 305 305 305 304 305 305 305 305 306 306 308 308 309 312 305 303 302 301 299 297 295
308 302 302 302 300 302 311 313 312 308 306 308 309 309 309 310 308 308 306 305 304 304 303 304 305 305 303 304 304 305 305 304 305 308 311 312 315 304 300 299 299 299 298 296 294
303 302 300 299 301 301 311 311 309 308 304 305 306 308 307 307 306 306 305 304 303 304 304 304 305 305 304 304 305 305 306 306 307 307 310 309 312 300 298 298 297 296 296 295 293
300 297 299 300 307 309 310 310 308 307 305 305 305 306 306 306 305 305 305 304 302 303 303 304 303 303 305 306 307 308 307 305 307 309 310 312 311 300 298 297 295 295 295 294 293
300 300 298 298 300 310 310 309 307 305 305 305 305 304 305 304 304 305 305 303 302 302 302 303 304 305 307 306 306 307 307 307 307 308 308 310 309 301 298 297 295 293 293 292 291
301 302 302 302 301 307 308 309 308 305 304 304 304 304 304 304 305 305 304 303 303 302 302 302 304 305 304 304 304 305 307 307 308 308 310 309 305 299 297 295 294 292 291 291 290
303 306 303 307 303 305 308 309 308 305 305 304 304 303 304 305 305 304 303 304 303 302 303 304 303 305 305 306 307 309 308 307 307 306 303 304 301 297 295 294 293 291 291 289 288
305 307 305 306 305 307 309 309 308 306 303 302 302 304 305 305 303 302 303 303 304 305 303 305 306 306 309 307 307 309 306 305 305 302 304 305 300 297 295 293 291 290 289 288 287

GFSSW_850_thetae_120.txt.gz
Theta_e
326 326 326 325 324 324 324 324 323 321 321 320 319 319 318 319 316 312 312 311 310 308 305 309 312 313 313 314 317 318 319 319 321 322 322 321 321 320 320 320 320 321 321 321 321
326 326 326 324 324 323 323 323 324 322 320 320 320 319 318 318 313 312 312 307 307 306 305 311 312 312 313 315 315 317 319 320 321 321 320 319 319 318 317 318 319 319 320 320 319
325 325 325 325 324 323 323 323 323 323 320 320 320 319 318 316 314 316 308 306 307 307 311 312 312 312 312 313 315 316 317 318 318 318 317 317 317 317 317 318 318 317 316 316 316
325 325 325 325 324 323 323 323 322 322 321 320 320 320 319 314 318 312 309 308 305 305 313 312 311 312 312 314 314 315 316 316 316 315 315 315 315 315 315 315 314 315 315 315 315
325 325 325 325 325 324 323 323 322 322 322 321 320 320 318 315 316 311 309 308 303 307 310 310 311 312 313 314 315 315 315 314 314 314 313 313 313 313 312 312 312 313 313 314 314
325 325 325 325 324 324 324 323 323 322 322 321 320 319 312 314 313 308 309 310 310 311 310 309 309 309 311 312 312 313 313 314 313 313 312 313 312 311 311 311 311 313 313 313 313
326 325 324 325 324 324 324 324 323 323 322 320 319 314 310 314 314 310 308 306 308 310 309 310 310 311 312 313 312 312 312 313 312 312 313 313 312 312 313 313 313 313 313 313 313
325 325 325 324 324 324 323 323 323 322 321 320 317 306 310 315 311 309 308 307 307 307 308 309 310 310 310 310 311 312 312 313 314 316 313 312 311 314 314 313 313 313 313 312 312
324 324 324 324 323 323 322 321 320 321 320 319 312 313 315 310 309 309 306 307 307 308 308 308 309 309 310 311 312 314 314 315 316 315 314 313 312 313 313 312 312 313 312 311 312
319 320 324 323 323 321 320 320 318 319 315 315 311 311 314 311 309 310 309 309 307 309 309 309 309 309 310 311 312 315 316 316 316 316 314 314 313 313 313 313 313 312 312 312 311
310 313 322 321 322 320 319 317 315 314 311 316 318 316 316 316 311 310 310 310 307 308 310 311 310 311 312 314 314 315 314 314 315 315 313 314 313 313 313 313 313 312 312 312 312
315 313 313 319 320 320 318 316 311 311 312 316 315 315 315 314 313 312 310 311 311 310 310 311 312 312 314 314 314 313 313 314 313 312 313 313 312 312 313 312 312 312 313 314 313
315 315 317 318 319 318 317 317 316 310 311 316 315 315 315 314 313 312 312 310 311 312 312 313 314 315 314 312 311 312 312 313 311 311 311 311 311 311 313 313 313 313 313 313 311
316 315 318 318 318 317 316 316 313 311 316 312 314 313 315 311 310 310 311 311 311 311 311 312 312 312 312 312 311 311 311 311 310 310 309 310 310 310 311 312 313 313 312 310 309
316 316 314 315 316 315 315 316 311 311 314 313 310 307 308 309 308 308 310 309 310 312 311 310 310 310 310 310 310 310 310 310 309 309 309 309 309 311 312 312 313 311 309 307 306
314 315 315 315 315 314 313 311 309 315 316 313 309 308 309 308 308 307 306 306 307 308 308 309 310 310 309 310 309 309 308 308 308 309 310 309 310 311 313 313 310 308 306 305 303
313 314 315 314 314 314 311 308 314 317 313 313 312 310 310 309 309 308 308 307 308 308 309 310 310 310 310 308 308 308 308 309 310 312 312 311 312 314 311 309 307 306 304 302 301
313 314 315 313 313 313 306 309 316 312 313 311 311 311 310 311 309 309 308 309 309 309 309 309 311 311 310 309 308 308 308 309 308 311 311 309 309 311 310 307 305 303 302 300 298
311 312 312 313 313 311 308 313 314 312 313 314 311 310 310 310 310 309 309 309 310 310 309 309 310 308 307 307 307 307 307 307 308 307 308 307 308 311 308 305 303 302 300 299 297
310 309 311 311 311 307 309 312 313 313 314 314 312 311 311 311 309 308 309 310 309 309 308 308 307 307 307 307 306 306 306 307 307 306 307 308 309 310 305 302 302 301 299 298 296
308 306 306 308 304 305 310 312 313 313 314 311 313 311 311 311 311 310 309 307 307 306 306 305 305 305 306 306 305 306 307 305 305 305 307 310 312 304 301 300 300 299 298 296 294
305 303 302 304 302 300 309 312 311 314 313 310 310 310 311 310 311 311 309 309 305 305 305 305 305 306 306 306 306 305 305 306 308 306 306 308 311 301 299 299 298 297 296 295 293
303 299 300 301 305 305 308 311 313 313 312 308 308 308 310 310 309 309 308 305 304 305 305 305 304 305 304 305 305 304 306 307 307 309 308 310 310 301 300 298 296 295 295 293 292
302 300 298 300 301 306 310 312 312 311 311 308 307 308 309 308 308 307 307 306 304 303 302 304 304 306 305 306 306 308 310 308 308 309 308 309 306 301 299 297 295 294 293 292 290
302 302 301 301 302 304 309 310 312 313 308 307 307 308 307 307 307 306 306 306 304 303 303 303 303 305 304 303 303 305 306 306 309 308 310 310 307 300 297 296 294 293 292 290 289
303 306 303 307 303 304 305 312 312 311 308 307 307 307 307 306 306 306 306 306 305 304 303 303 303 306 304 304 305 306 307 306 308 309 308 306 305 298 296 294 293 291 290 289 288
304 305 306 306 306 305 307 310 311 311 309 306 307 307 306 305 305 306 304 304 305 304 304 305 307 304 305 308 308 309 310 310 309 307 306 306 302 297 295 293 291 290 289 287 287

GFSSW_850_thetae_123.txt.gz
Theta_e
326 326 326 325 325 324 323 323 323 323 323 321 320 320 319 320 317 313 313 311 310 308 307 307 312 312 313 313 314 315 313 313 315 316 317 317 317 318 317 317 319 320 320 320 319
325 325 326 325 325 324 324 323 323 323 322 321 320 320 320 321 315 314 309 307 307 307 308 312 312 312 312 313 314 313 312 314 315 315 314 315 314 316 316 316 317 317 318 316 317
324 324 325 325 325 325 324 324 323 323 322 322 321 321 320 320 316 316 309 308 309 308 312 312 311 311 312 312 312 312 311 313 315 316 316 314 314 314 313 313 316 314 314 315 315
324 324 325 325 325 325 324 324 323 322 322 322 322 321 318 318 316 315 314 312 310 306 308 312 312 311 311 310 313 311 312 314 315 315 314 311 313 312 313 313 313 312 312 313 315
324 324 324 325 325 325 324 324 324 323 323 322 322 321 319 317 317 312 311 312 310 306 310 309 309 310 310 310 310 310 311 312 312 313 313 313 312 311 312 312 312 311 312 312 314
326 326 325 325 325 325 324 324 324 323 324 323 322 321 317 313 314 310 310 311 311 311 311 309 309 309 310 311 311 312 311 311 312 312 312 310 310 311 312 312 311 311 311 313 313
324 325 325 325 324 324 323 324 324 324 322 322 321 319 316 318 315 312 311 310 309 309 309 309 309 310 311 309 311 311 309 309 310 311 309 311 308 308 312 312 312 312 313 313 313
324 324 323 325 324 323 323 323 323 323 323 321 320 316 314 318 316 313 311 310 308 307 307 309 309 310 310 310 309 308 309 309 310 311 312 310 310 311 312 313 312 313 313 313 312
323 320 319 324 324 324 324 321 322 321 322 321 318 314 315 313 310 310 310 309 307 307 308 308 308 309 309 308 308 309 310 311 312 313 311 309 309 310 313 312 312 312 313 313 312
313 320 323 323 323 323 322 320 319 320 319 316 313 312 314 313 310 310 310 309 308 307 309 309 309 307 306 306 307 310 311 311 311 313 311 310 308 308 312 312 311 312 312 312 313
309 311 314 316 322 322 321 318 318 313 313 317 316 317 317 317 315 312 310 309 310 307 308 309 307 307 306 307 309 310 312 310 310 312 311 310 309 308 310 310 310 312 311 312 310
309 314 314 317 320 321 319 318 315 314 312 317 318 317 318 317 316 314 312 311 311 307 307 307 308 309 310 310 311 312 311 310 310 312 311 308 307 307 308 309 310 311 311 310 308
310 315 315 314 317 318 318 318 316 313 308 313 314 316 316 317 315 314 314 312 310 310 310 309 310 312 312 311 312 310 310 309 309 309 308 307 307 307 308 309 311 309 308 306 305
311 315 315 313 316 315 316 316 316 312 310 313 314 315 315 315 313 313 313 313 310 309 309 309 311 312 311 310 310 308 309 309 309 307 306 307 306 307 308 309 310 307 305 303 302
312 315 315 313 314 316 315 316 315 309 312 312 309 310 313 313 308 308 309 311 310 309 310 309 310 309 309 309 309 308 309 308 307 305 305 306 304 306 307 310 307 305 303 301 300
313 314 315 315 315 314 315 315 311 312 314 312 307 308 308 309 309 307 309 308 306 307 308 308 308 307 307 309 308 308 307 306 306 305 305 306 306 307 309 308 306 304 301 299 298
310 313 314 314 314 314 313 310 313 315 313 311 309 308 308 308 308 307 306 305 304 306 306 307 307 307 308 308 308 307 306 305 307 307 307 308 309 313 307 305 304 302 300 298 296
306 311 313 315 314 314 310 310 315 312 311 313 312 309 309 310 308 308 307 305 305 305 306 307 307 308 309 308 306 307 306 308 309 307 306 306 308 309 305 303 302 301 299 297 295
305 309 312 312 312 313 309 312 312 311 312 312 312 310 310 310 310 308 306 306 307 307 306 307 308 307 307 307 306 307 305 306 306 305 305 305 308 306 304 302 301 300 298 296 294
304 308 309 311 311 308 310 312 312 311 312 313 315 311 310 309 309 308 308 309 308 308 307 307 306 307 307 307 306 304 305 303 304 306 307 305 308 311 304 302 301 299 297 295 293
304 306 307 310 308 303 308 311 311 311 312 313 314 313 310 310 309 308 309 307 307 305 305 305 304 305 305 305 305 305 304 305 304 304 304 303 300 303 300 300 299 298 296 294 292
304 305 304 307 302 301 307 309 310 311 312 313 313 309 311 311 310 310 310 310 306 305 304 304 304 303 305 305 305 304 304 305 302 304 305 305 303 300 299 299 297 296 295 293 291
304 301 302 304 306 304 305 308 310 311 312 313 314 309 308 308 309 309 307 305 304 304 304 304 303 302 303 304 306 307 308 308 308 306 306 305 302 300 300 297 296 294 293 291 290
302 299 300 301 301 304 306 308 311 310 312 312 311 307 307 307 308 307 306 305 304 303 303 303 304 303 303 304 304 303 304 306 309 309 304 303 299 301 299 297 295 293 292 290 288
302 300 300 299 301 303 307 308 309 312 310 312 312 307 307 307 306 306 306 304 304 304 303 301 302 300 302 303 303 303 302 303 303 305 305 301 303 300 298 296 293 292 291 289 288
302 303 300 302 302 303 306 309 310 311 312 309 309 306 306 305 305 305 305 304 302 303 303 302 300 297 296 303 303 303 303 303 302 303 302 301 302 297 295 294 292 290 289 288 287
301 303 303 303 302 303 305 306 309 309 311 308 307 306 306 306 305 304 304 304 304 303 302 301 299 296 300 305 308 304 301 303 303 305 306 306 301 296 295 293 291 290 288 287 285

GFSSW_850_thetae_126.txt.gz
Theta_e
326 326 326 326 326 325 324 324 324 323 323 322 321 320 320 319 316 312 309 307 307 307 306 309 312 313 313 313 313 313 311 311 314 315 315 315 313 315 316 316 317 317 316 316 317
326 325 325 325 325 325 325 324 324 324 323 322 322 321 320 319 317 313 309 308 311 308 311 312 312 311 312 313 313 311 310 313 313 314 313 313 312 313 314 314 315 315 315 313 315
326 325 324 324 325 325 325 325 324 324 323 322 322 322 321 319 318 315 313 313 312 310 310 311 311 311 311 311 311 310 309 311 314 315 314 312 312 313 312 312 313 312 312 312 313
324 324 324 324 324 325 325 325 324 324 323 323 323 322 321 321 319 317 314 312 312 310 307 311 310 311 310 310 311 310 311 311 312 312 311 310 312 311 312 312 312 312 312 311 312
324 323 324 324 324 324 324 325 324 324 324 323 323 323 321 320 319 316 313 314 312 310 309 309 309 308 308 308 309 308 310 311 311 311 311 311 310 310 311 312 312 312 311 311 313
326 325 325 325 325 324 324 324 325 324 325 323 323 322 321 316 318 315 314 314 311 310 311 310 309 309 309 309 310 310 309 309 310 310 310 310 309 309 311 312 311 311 311 311 313
325 325 324 323 324 324 323 321 322 323 324 323 322 322 319 322 318 316 315 314 313 309 308 309 308 309 310 309 310 309 308 308 309 310 309 311 309 309 312 311 311 312 311 312 312
323 323 322 323 322 323 323 321 322 323 323 322 322 321 318 321 318 316 314 312 312 309 308 308 308 308 309 309 309 308 308 309 310 310 312 310 310 308 312 311 312 313 312 312 312
318 321 322 322 321 322 323 323 323 322 322 320 319 319 317 318 313 311 312 312 309 307 307 308 307 308 308 307 305 307 307 310 311 312 311 309 309 309 311 311 311 312 312 311 309
309 316 313 321 321 321 322 321 320 321 320 319 315 314 317 318 313 312 311 310 309 309 307 308 308 306 304 303 306 307 308 309 309 310 310 310 309 307 310 310 309 309 308 309 306
306 309 311 317 321 321 321 319 319 319 316 320 317 317 315 314 313 311 311 310 308 309 306 308 306 306 305 305 306 306 307 307 308 309 309 308 307 308 309 309 308 308 307 305 303
305 306 311 312 315 318 320 319 317 312 313 316 318 317 319 319 317 318 315 309 309 307 305 305 306 307 307 308 308 308 308 309 308 309 309 308 306 306 307 307 306 304 303 302 302
307 308 312 313 312 316 316 316 316 315 312 314 315 315 315 315 315 315 316 312 310 309 308 304 306 309 308 308 309 309 309 308 308 307 307 306 306 307 307 307 304 302 301 300 299
310 309 314 315 314 313 314 317 314 313 308 310 313 312 314 315 315 315 316 314 308 309 308 307 308 309 309 310 308 308 308 308 307 305 305 305 304 304 306 306 303 301 299 298 299
311 310 312 314 312 313 312 314 316 312 304 308 311 311 314 316 310 310 315 313 311 308 308 308 309 308 307 308 308 308 307 306 306 304 304 304 303 304 307 306 303 300 298 297 297
311 310 312 314 313 313 313 314 313 309 310 312 307 308 310 310 308 308 309 308 308 307 307 307 308 306 305 307 307 307 306 304 304 303 305 305 303 303 307 305 303 300 298 296 295
309 311 312 312 314 312 314 311 313 312 311 311 307 307 308 308 308 305 305 304 304 305 304 306 306 306 306 305 306 305 303 304 305 306 306 305 305 308 304 303 301 299 297 295 294
306 310 312 314 313 313 313 310 313 311 312 311 309 307 307 307 307 307 304 304 303 304 304 305 306 307 307 306 305 305 304 305 309 309 305 305 305 307 303 301 300 298 296 295 293
304 307 310 311 313 312 309 311 310 310 311 311 310 308 308 308 307 306 304 304 304 303 305 306 306 306 305 306 306 306 304 305 305 304 304 304 306 305 302 301 300 299 295 294 293
303 305 308 309 311 309 309 311 311 310 310 311 313 311 308 308 308 306 305 306 306 306 305 306 306 306 306 306 305 304 304 304 304 307 306 304 305 305 303 302 300 298 294 293 292
303 307 306 309 310 306 309 310 311 310 310 312 313 314 311 308 307 306 308 307 306 304 304 303 304 304 304 304 304 304 302 303 303 304 305 303 298 296 298 299 297 296 295 292 291
303 303 304 306 304 300 306 308 310 311 310 310 312 312 309 310 309 308 308 308 305 304 303 303 302 303 303 304 303 304 303 304 303 305 303 303 302 301 298 298 296 295 294 292 290
302 302 303 304 306 304 304 307 308 311 310 311 313 312 308 307 308 309 306 304 304 303 303 303 301 301 303 302 305 305 306 307 306 303 303 301 299 299 299 296 295 294 292 291 289
302 300 302 301 304 304 304 306 307 309 309 310 312 311 308 306 308 306 304 305 303 303 303 303 302 302 303 303 303 302 302 302 306 303 305 301 297 301 300 297 295 293 291 289 289
300 300 301 302 301 303 304 305 306 308 310 310 311 311 307 306 308 306 304 303 303 303 302 300 302 298 301 302 303 302 301 302 300 303 305 300 301 298 298 295 294 292 290 289 288
299 299 301 299 302 303 305 306 306 307 308 310 311 312 309 306 306 305 303 302 301 302 302 300 299 294 293 302 302 302 301 301 302 302 299 298 302 296 295 294 292 291 289 288 286
299 300 301 300 301 303 304 304 306 307 308 308 308 308 305 304 305 304 305 304 303 301 301 298 297 294 297 302 304 305 302 300 299 301 302 303 301 295 294 293 291 289 288 287 284

GFSSW_850_thetae_132.txt.gz
Theta_e
325 325 326 326 325 325 325 325 325 325 325 325 324 324 323 322 321 315 314 314 314 311 311 312 311 312 313 313 312 313 308 310 313 311 314 313 312 314 314 313 315 314 314 314 314
325 326 326 325 325 324 324 324 324 324 325 325 325 324 323 322 321 316 316 315 314 315 311 311 311 311 311 312 312 309 308 311 311 313 312 311 311 312 312 312 313 312 313 312 313
325 326 326 326 325 325 324 323 324 324 324 325 325 324 323 322 321 315 318 315 315 314 310 309 311 311 310 309 308 307 308 309 310 310 309 310 309 311 311 311 312 312 312 310 314
325 325 326 325 325 324 323 323 323 324 324 324 325 324 323 322 319 320 318 316 313 310 307 310 310 308 307 307 308 307 307 308 309 310 308 308 309 309 310 311 312 312 310 309 311
324 324 324 324 324 323 323 324 323 322 324 323 324 324 323 322 322 320 318 316 312 311 309 309 309 308 307 306 308 306 307 309 309 309 309 309 308 308 310 312 311 308 309 311 313
324 323 323 324 323 324 324 324 324 323 322 321 323 323 323 321 321 320 318 316 313 311 310 309 308 308 308 308 308 308 308 307 309 309 308 307 307 308 310 309 308 309 310 311 311
324 324 322 324 324 324 324 325 324 322 320 321 321 323 322 323 323 322 319 316 313 311 310 309 308 308 307 307 308 308 306 305 307 309 309 308 309 309 307 308 309 308 308 308 308
323 322 321 323 323 324 324 324 323 322 321 321 322 322 321 323 322 321 320 319 312 311 309 308 307 307 307 308 306 306 305 306 307 309 309 308 309 308 306 309 307 307 306 307 306
322 322 319 317 323 324 323 322 320 319 320 320 321 320 320 321 321 321 319 316 311 308 307 307 307 307 307 304 303 303 306 307 308 308 309 307 309 305 306 308 306 304 304 304 305
319 313 316 312 322 323 323 321 319 319 320 320 320 319 320 321 315 311 312 312 310 309 308 306 307 302 300 302 305 306 306 306 306 306 304 307 306 304 306 305 303 302 302 302 302
306 306 308 310 319 322 321 321 318 318 317 321 318 320 318 315 314 311 310 310 309 309 306 306 304 304 303 303 305 305 305 304 303 304 306 306 305 305 304 302 301 300 300 300 300
304 306 305 308 310 311 315 316 319 313 313 316 317 318 319 319 316 313 310 311 307 306 303 302 304 305 305 304 305 305 306 305 305 305 305 304 304 304 302 301 300 299 298 297 298
309 306 306 308 314 314 314 317 317 316 313 314 315 315 315 315 317 318 316 310 307 306 303 304 305 304 305 306 306 306 306 306 306 305 304 304 303 305 302 300 300 298 298 298 297
310 309 307 310 312 312 313 315 314 313 309 309 310 312 315 316 314 317 318 316 308 310 305 305 306 306 306 306 305 307 306 306 306 304 304 303 304 302 304 302 300 298 298 298 297
309 309 309 310 311 310 311 312 313 311 309 307 310 311 314 314 311 313 314 314 309 307 307 308 307 307 307 306 306 307 305 305 304 303 302 302 301 302 303 303 300 298 297 297 296
307 311 309 311 310 310 311 312 312 307 309 306 311 312 314 314 307 312 313 314 313 308 307 307 306 306 306 306 306 304 305 303 301 301 303 302 302 302 304 305 300 298 297 296 295
306 310 311 309 310 309 312 314 312 311 308 308 306 312 313 312 306 305 306 304 306 310 309 307 306 305 306 306 304 303 302 304 305 304 305 303 302 303 302 302 301 299 296 295 295
306 309 310 309 310 311 312 310 311 309 308 309 306 307 311 307 306 304 304 304 303 303 303 306 306 305 304 304 304 302 303 304 306 306 305 303 304 302 302 300 299 298 297 296 295
305 307 310 309 309 312 311 311 307 309 309 309 306 306 307 306 307 305 304 304 304 302 306 303 305 305 304 304 304 304 303 303 305 304 303 303 302 302 300 299 297 296 296 295 294
304 306 309 309 310 311 310 311 310 308 309 309 308 307 306 306 306 306 304 304 304 302 304 304 306 305 304 304 302 304 302 303 303 307 307 305 303 305 301 301 299 296 295 293 292
304 305 306 308 310 308 310 310 309 309 309 310 310 312 308 306 305 304 306 305 304 303 303 303 304 304 303 303 303 302 302 302 303 303 305 306 303 295 297 300 300 296 294 293 292
304 302 304 306 306 304 307 308 308 309 309 309 309 311 311 308 307 306 306 306 304 303 303 302 304 303 303 302 302 302 302 302 302 304 302 303 304 299 296 295 298 294 293 292 291
303 302 304 307 306 306 305 307 307 308 309 309 310 309 310 308 310 307 306 303 303 302 302 302 303 302 304 302 302 302 302 302 303 303 303 300 303 298 296 295 296 294 293 292 291
300 302 302 304 305 304 305 307 308 307 308 309 310 310 307 307 306 306 303 303 302 304 304 303 302 303 306 305 302 303 303 304 303 301 304 303 303 300 297 295 294 293 293 292 291
300 301 300 302 303 303 303 304 306 307 307 308 308 310 309 309 306 305 303 302 302 302 301 302 303 298 300 302 302 302 302 302 302 303 302 302 301 302 298 296 294 294 292 290 290
299 300 299 299 302 302 304 304 304 305 306 307 308 308 307 307 306 306 304 302 302 301 301 299 301 295 295 300 300 300 300 300 300 301 300 299 300 299 298 297 293 293 291 290 289
298 299 300 299 299 302 302 303 303 303 305 306 306 307 307 307 307 307 306 305 305 303 302 301 300 300 302 301 301 300 298 299 298 299 299 300 300 295 294 294 292 291 291 290 288